GFSCGP_500_rhum_000.txt.gz
RH
49 61 38 30 28 42 36 27 32 38 19 40 45 48 51 47 31 16 34 39 48 58 62 52 42 36 35 35 32 26 17 7 1 1 1 0 0 0 0 1 1 1 2 2
52 43 37 40 54 39 40 30 33 45 16 36 51 53 37 21 24 31 35 42 48 54 52 42 39 35 32 30 22 11 4 1 3 3 2 2 4 6 7 8 10 11 11 13
47 44 64 50 53 29 31 31 31 51 20 15 42 51 32 20 15 35 42 46 51 48 42 38 35 35 34 24 6 0 1 4 6 8 10 12 13 17 19 20 19 18 18 18
44 41 52 40 35 39 29 33 31 59 21 16 35 35 30 24 18 35 46 44 45 42 40 39 34 28 19 4 1 7 10 11 11 11 15 20 21 20 21 22 23 28 29 31
38 41 44 48 44 48 40 44 49 67 17 15 29 30 25 28 21 26 41 44 43 39 32 25 13 4 3 7 11 10 12 16 21 23 23 24 26 30 32 32 30 27 25 22
43 44 48 45 44 40 48 52 70 68 16 11 20 25 25 22 18 24 30 38 35 29 18 8 5 7 8 9 15 25 30 37 36 34 33 32 28 24 19 15 14 14 16 16
54 65 68 51 39 47 44 47 60 50 25 8 16 25 24 24 16 20 23 27 22 10 4 5 6 12 20 30 39 39 39 36 31 26 21 16 13 10 10 12 16 21 24 25
55 52 88 51 48 50 48 57 56 25 10 6 12 19 17 15 12 13 14 14 8 6 8 14 24 41 44 40 36 33 29 24 20 16 13 12 15 21 26 25 19 14 11 8
98 90 58 56 49 58 49 54 24 7 1 4 7 7 6 5 7 10 9 8 17 19 21 42 43 40 34 32 27 24 20 17 16 19 24 25 18 8 5 6 7 7 8 8
95 81 71 76 78 62 41 15 7 3 0 2 4 7 8 11 10 10 15 26 35 36 46 43 39 33 28 24 20 18 19 24 24 10 4 4 7 9 9 9 8 8 8 8
92 87 81 74 61 35 22 4 0 3 3 5 9 10 13 19 30 34 40 42 43 43 38 33 28 24 24 22 26 30 28 11 6 8 8 9 10 10 9 8 9 10 10 11
93 87 46 32 15 4 0 1 3 5 10 15 25 33 42 47 47 44 42 40 35 30 27 26 27 31 37 35 24 12 9 10 11 12 13 12 12 11 10 11 11 12 11 12
41 17 5 8 12 2 2 5 10 18 27 31 45 53 54 44 42 38 34 32 32 33 28 25 31 38 22 12 11 13 13 14 15 16 15 14 13 14 14 14 13 12 12 14
24 16 8 14 14 13 14 24 31 35 44 58 52 45 40 39 38 35 30 32 35 37 38 32 20 15 14 14 16 18 20 19 18 17 16 17 16 14 13 12 11 12 14 15
29 36 37 35 38 41 39 36 42 55 60 56 44 43 42 39 33 40 38 32 17 15 16 17 17 18 19 20 22 22 21 19 18 19 18 15 13 11 10 11 11 12 10 8
64 71 74 72 65 68 74 74 67 59 46 38 35 39 44 42 31 18 16 18 20 22 24 24 25 26 26 25 24 22 21 21 21 17 14 11 9 8 9 9 8 7 7 8
91 92 89 92 95 95 91 79 62 46 37 37 39 36 22 15 19 21 24 27 28 28 28 26 25 24 24 23 23 22 22 19 15 12 10 8 8 8 7 7 8 8 10 15
92 83 86 90 91 68 50 46 47 41 37 40 36 15 17 23 25 28 29 29 27 26 24 25 28 26 25 25 24 19 17 13 10 8 8 8 7 7 9 12 18 32 43 51
41 39 35 32 32 33 34 36 38 49 46 29 20 24 24 24 26 28 26 27 29 32 32 31 30 29 25 21 18 15 10 10 10 10 10 8 9 16 30 42 56 54 53 53
20 22 24 24 24 26 35 40 49 37 29 26 26 28 26 26 25 30 30 34 37 37 33 30 27 23 21 18 12 12 12 11 12 11 11 18 38 54 62 66 67 61 52 41
65 73 69 71 60 55 45 35 25 28 29 29 28 27 28 30 32 33 37 37 35 33 30 26 24 23 20 14 15 14 14 14 12 16 34 53 65 77 85 84 78 70 67 59
75 70 54 46 30 30 32 30 31 32 32 33 36 35 33 32 32 36 36 35 33 30 27 28 27 23 17 17 16 16 15 13 20 36 55 72 85 98 96 89 84 72 60 49
64 46 33 34 34 35 35 35 36 36 37 37 37 38 39 39 40 38 36 33 30 30 30 28 26 20 20 19 18 16 14 19 40 61 78 92 96 93 88 72 57 47 41 32
57 44 39 35 36 37 36 37 38 40 41 43 46 48 49 47 43 40 37 35 35 34 32 30 24 23 21 19 17 14 16 41 63 73 83 90 88 78 63 48 35 26 22 20
45 41 38 38 41 41 43 42 42 45 50 54 56 58 55 50 47 46 43 41 39 36 34 30 26 23 20 17 15 20 42 60 73 83 87 76 61 42 27 22 21 19 14 11
42 40 40 42 45 46 46 46 48 50 58 63 67 66 62 57 53 49 48 45 41 36 32 28 23 21 17 14 24 39 57 71 77 75 60 34 22 20 19 16 12 11 13 17

GFSCGP_500_rhum_003.txt.gz
RH
79 69 54 40 32 28 33 29 28 39 42 44 14 39 41 50 52 52 43 35 14 24 49 61 67 59 44 37 34 34 33 27 17 6 2 1 2 2 2 5 10 14 18 19
78 67 57 48 39 38 32 31 30 39 33 43 14 35 42 48 51 36 20 7 24 43 50 57 57 44 39 37 34 30 27 18 3 0 2 6 8 11 15 20 23 22 23 24
68 62 56 46 39 42 36 30 33 39 28 52 21 25 46 55 46 15 9 12 33 43 50 52 47 40 35 33 30 19 13 2 1 7 9 10 16 24 27 30 33 33 31 30
70 65 59 53 42 40 50 34 35 37 37 48 33 16 44 52 41 21 18 34 44 42 43 43 42 38 34 25 15 5 1 4 8 12 23 29 32 34 35 34 30 26 21 18
62 64 57 52 42 52 58 54 35 34 36 30 42 15 26 31 29 24 26 28 45 47 44 45 42 33 24 14 5 4 7 12 26 35 37 36 35 33 28 23 18 15 13 13
67 62 64 52 61 60 92 56 43 31 31 21 38 15 21 26 27 26 24 26 35 43 43 40 35 22 9 5 7 19 33 37 38 38 34 30 27 22 17 13 13 15 17 14
62 59 52 53 82 72 71 48 36 33 29 29 43 19 16 24 24 26 21 20 26 32 35 31 23 8 5 16 31 41 39 38 36 33 28 22 18 17 18 17 11 5 6 7
55 54 53 61 45 52 59 42 32 39 36 46 45 31 10 16 22 24 16 17 21 25 23 19 10 10 26 44 48 42 37 33 28 22 21 20 22 10 5 4 6 8 8 9
43 49 47 45 44 52 45 34 50 45 41 42 39 18 6 10 14 16 14 14 14 13 12 10 17 40 50 49 41 36 30 25 22 22 27 22 8 8 9 9 9 10 10 11
52 49 46 48 53 50 38 68 57 43 35 34 22 3 4 7 9 8 10 12 13 12 18 38 48 50 46 37 30 26 26 30 30 19 10 10 10 10 10 11 13 14 14 15
64 71 61 60 46 45 49 44 41 33 24 10 2 2 4 10 16 15 17 20 24 35 43 44 41 36 30 27 31 45 38 20 10 9 12 12 14 18 18 18 17 18 17 15
90 93 79 70 63 56 58 55 32 16 6 1 4 11 16 21 26 35 38 45 45 43 36 34 33 32 30 38 39 30 16 11 14 16 16 18 21 21 20 20 20 17 14 11
96 95 100 99 90 77 68 34 16 1 0 6 17 28 39 46 53 54 49 43 37 34 33 33 36 37 28 21 15 14 16 17 18 20 22 23 22 22 20 19 16 12 9 9
97 100 94 79 64 51 22 0 0 4 12 22 34 54 62 58 53 45 42 36 39 37 39 30 15 13 15 20 22 22 21 23 24 24 23 22 22 20 17 13 10 11 10 9
94 98 95 55 20 14 12 7 12 20 31 38 57 68 63 53 47 44 38 46 47 24 17 18 22 26 25 23 25 26 27 27 26 25 24 21 18 14 11 13 12 10 8 8
47 27 18 7 7 24 24 31 28 31 40 51 67 69 56 48 40 42 46 19 19 22 26 29 28 28 30 33 32 31 29 27 25 22 20 16 13 15 15 12 10 9 8 7
42 50 44 41 37 37 40 46 49 62 74 69 60 45 41 57 55 34 21 24 27 31 31 33 34 36 35 34 32 29 27 25 24 22 18 16 17 14 12 11 10 9 8 10
59 43 52 65 71 58 61 84 86 86 79 61 65 59 56 60 22 20 24 29 31 33 36 38 38 35 32 32 30 28 26 26 24 19 19 17 14 13 12 11 9 9 19 44
79 80 75 84 77 75 88 95 82 60 52 49 52 64 33 20 24 26 32 33 35 36 37 36 34 34 33 31 29 29 28 25 22 21 18 16 15 13 10 8 15 36 52 64
80 90 83 84 79 73 64 56 50 42 40 56 50 29 26 28 31 36 39 42 41 40 39 38 36 34 32 32 32 30 28 26 23 21 19 17 14 10 9 20 42 62 68 66
23 27 38 43 44 31 27 28 35 47 41 30 29 32 35 39 43 44 42 42 42 42 41 38 36 35 36 36 34 31 27 24 24 22 19 14 8 11 30 47 57 56 46 34
61 54 45 42 50 56 53 49 38 31 31 34 36 39 42 42 42 43 44 44 43 42 42 41 41 40 39 37 32 29 27 26 24 19 13 8 13 34 47 42 28 19 17 16
78 70 71 63 49 33 30 32 35 36 39 40 41 41 41 41 42 45 47 49 50 52 51 48 45 44 40 36 33 31 28 23 18 12 8 14 38 41 27 19 18 17 16 14
77 81 75 45 38 34 33 36 37 40 40 39 40 42 43 46 46 50 52 56 61 61 59 54 51 46 42 38 34 29 22 16 11 8 13 32 38 25 21 21 19 17 11 9
65 68 68 66 64 59 50 41 41 41 44 44 43 46 48 48 55 59 60 66 68 67 62 56 52 47 42 38 28 20 15 12 8 16 31 40 29 24 24 21 18 11 11 15
69 65 60 52 44 43 42 42 42 43 43 45 47 48 51 59 63 65 69 72 72 69 63 59 53 47 38 26 19 17 12 8 14 24 42 38 28 28 28 22 15 11 13 13

GFSCGP_500_rhum_006.txt.gz
RH
78 83 53 61 64 51 33 25 30 35 28 29 35 36 16 37 33 30 36 45 48 47 44 23 11 37 65 68 56 39 34 35 35 31 25 13 2 1 4 6 9 16 23 24
90 80 75 77 65 49 35 25 30 32 25 30 37 36 18 40 43 48 51 48 37 18 9 30 42 54 64 55 44 38 37 35 32 22 11 1 6 8 11 16 25 29 33 36
75 85 84 79 65 50 36 29 31 32 29 33 41 40 12 36 43 50 53 25 11 11 18 36 46 54 54 46 41 37 35 29 14 4 3 9 12 20 28 32 36 39 37 33
79 92 76 86 68 52 37 44 39 33 29 34 30 38 17 20 44 57 50 26 18 27 38 40 47 50 45 38 38 35 24 11 4 8 10 23 32 37 42 43 40 35 28 21
78 79 93 73 69 55 53 58 50 36 31 30 39 40 25 16 41 53 39 24 25 32 44 46 44 42 41 36 33 23 7 4 8 21 33 36 43 46 43 36 27 20 18 14
84 82 96 84 68 62 66 60 70 44 38 26 37 32 35 16 23 27 25 22 25 27 32 31 33 36 36 33 21 6 5 11 24 31 37 41 41 36 28 23 21 12 8 8
95 83 76 81 76 52 65 87 80 57 38 23 32 33 35 20 18 20 22 25 23 19 21 24 25 30 30 21 10 7 20 29 37 44 46 39 29 23 25 23 13 10 10 12
69 73 71 74 59 51 59 77 54 42 34 26 27 27 40 28 13 18 22 20 22 21 19 20 24 24 19 12 11 23 39 47 50 46 35 25 27 23 12 10 10 10 11 13
66 57 66 67 67 66 85 75 71 57 38 25 26 37 41 36 15 11 15 16 19 19 15 16 15 13 14 24 38 48 49 46 35 26 28 29 15 10 10 13 15 15 16 18
74 63 64 71 66 60 64 96 69 50 42 30 26 30 33 23 11 9 12 14 13 13 14 14 16 24 44 48 46 44 35 28 28 31 28 14 14 17 18 17 16 19 20 21
72 65 63 62 49 46 52 44 43 47 40 33 30 30 20 4 5 10 13 13 12 13 16 24 42 50 44 40 35 33 33 31 26 16 18 20 18 16 17 19 19 20 21 20
56 56 60 54 48 59 57 54 56 47 51 46 33 20 4 4 10 18 21 19 21 31 45 53 45 37 35 34 37 34 20 17 23 22 21 20 23 24 24 23 23 22 22 20
57 53 56 53 58 62 53 54 57 53 56 34 18 7 8 18 28 39 31 40 53 56 50 40 39 37 40 36 18 20 26 24 23 23 22 25 24 25 24 24 24 23 20 18
61 54 53 50 52 58 57 62 74 67 39 18 6 8 25 36 40 45 56 62 53 44 44 41 45 39 22 21 26 25 24 23 23 24 27 27 26 25 26 26 24 22 19 17
96 90 95 81 77 94 95 97 80 20 3 4 18 23 36 41 50 61 62 51 47 44 49 44 23 20 26 27 25 26 25 27 29 30 28 28 28 28 27 25 22 19 18 15
100 99 100 100 100 99 90 72 17 2 1 3 17 41 51 50 60 66 50 43 48 50 23 20 24 27 28 28 31 33 35 34 33 30 31 32 30 28 25 22 20 18 15 14
97 98 97 98 95 72 37 25 16 9 15 33 34 50 65 72 56 43 56 66 60 27 21 27 31 34 36 37 39 38 36 35 35 35 34 31 29 27 25 22 18 16 14 11
100 100 96 64 38 22 13 22 26 26 38 47 57 72 50 59 69 71 70 71 29 23 29 35 39 40 42 42 41 40 39 39 39 36 34 32 30 27 23 20 17 15 11 7
66 55 39 46 43 39 27 27 42 58 66 77 86 90 76 65 67 66 42 24 26 33 39 44 46 46 45 45 45 46 46 44 41 39 36 33 30 26 22 19 15 10 8 13
92 84 64 72 66 64 68 93 100 95 93 96 95 92 77 72 67 35 27 30 37 44 47 49 52 53 54 53 53 53 51 48 44 40 36 33 28 24 21 16 10 8 16 24
89 80 82 86 95 91 82 82 96 91 70 72 69 58 60 53 32 30 36 44 47 46 49 52 53 57 56 56 57 58 55 49 44 39 36 32 27 22 16 11 9 18 31 28
88 86 78 80 81 76 69 66 46 42 38 46 51 46 32 30 35 42 45 45 47 50 50 52 55 54 54 55 61 62 54 48 43 40 34 30 22 17 11 10 20 40 35 34
47 55 71 83 77 75 70 72 67 55 50 38 31 32 36 41 45 47 46 47 50 49 49 51 52 52 56 69 68 59 52 47 42 38 32 25 20 14 11 23 43 43 40 39
63 74 79 74 67 64 53 43 32 31 32 35 40 42 45 47 47 46 46 48 49 49 53 54 56 66 79 70 62 54 50 45 41 36 28 23 18 13 22 44 51 46 44 39
43 55 66 76 82 74 52 42 39 37 41 42 43 44 45 46 45 47 48 49 53 58 56 64 78 81 72 65 58 53 48 44 40 32 26 20 14 21 38 50 53 50 46 36
40 30 37 47 66 68 68 64 58 50 44 44 43 44 46 48 48 48 50 60 62 62 73 81 81 75 68 62 54 51 47 42 35 28 21 15 19 34 44 46 54 52 45 33

GFSCGP_500_rhum_009.txt.gz
RH
76 94 92 82 78 73 54 44 35 45 24 17 20 28 28 35 23 36 34 38 44 46 40 48 52 48 23 8 33 70 67 52 37 36 37 35 29 13 4 5 9 11 16 24
99 87 98 100 88 74 60 47 41 36 23 19 21 26 33 35 22 38 34 39 39 39 44 46 36 13 35 45 56 62 53 44 40 39 36 21 8 3 9 13 20 30 37 41
65 79 100 97 87 74 59 52 40 31 25 21 23 27 40 30 26 40 48 50 50 46 29 11 6 28 46 56 57 55 47 44 44 29 15 6 8 11 15 31 40 45 48 45
84 99 96 97 91 73 64 53 40 36 28 24 24 25 56 29 19 40 47 49 54 45 14 16 26 34 42 52 52 46 47 46 30 12 5 7 13 25 36 42 48 46 36 26
100 91 94 94 81 81 63 50 40 40 30 26 25 26 53 51 14 27 42 51 50 39 23 34 43 47 46 45 47 48 46 32 12 5 6 18 32 42 49 50 38 24 24 22
100 97 97 93 94 87 63 53 48 42 36 27 33 25 53 56 22 17 29 44 42 23 25 30 32 38 44 49 48 43 30 20 8 9 23 34 45 49 46 32 25 22 14 10
99 87 96 80 90 83 61 60 55 55 44 27 32 27 38 41 35 18 18 23 20 19 22 22 24 26 34 33 29 24 17 12 12 22 44 52 49 36 29 29 19 11 16 19
99 81 76 88 96 70 65 59 61 71 42 34 37 27 32 34 38 22 17 19 20 20 20 20 21 24 24 21 17 14 15 24 38 53 49 39 28 29 30 19 16 20 19 18
81 67 65 86 98 89 83 70 76 51 46 42 38 31 26 43 42 39 28 14 14 20 19 17 17 18 17 15 16 21 36 48 46 36 31 30 31 23 18 20 21 21 18 16
91 64 57 80 94 87 86 82 74 52 57 40 35 34 32 39 40 39 35 24 12 11 15 17 19 18 16 22 38 47 48 39 35 35 32 22 20 22 22 20 18 17 18 17
83 82 64 65 69 71 68 57 65 78 64 44 32 35 42 39 34 30 20 12 9 11 13 16 18 20 37 56 52 44 38 39 33 20 21 24 22 21 19 20 19 20 21 22
79 76 80 67 68 73 63 69 90 70 57 50 46 51 50 33 26 18 8 6 16 20 23 26 37 58 60 46 42 43 40 22 22 26 24 21 19 21 22 23 24 24 25 26
85 75 64 71 70 65 60 53 53 61 51 39 39 39 44 34 16 7 11 16 23 34 51 62 59 51 47 48 47 28 24 27 26 22 21 23 24 25 26 28 28 29 30 30
82 77 71 62 60 63 55 48 51 59 48 46 42 55 32 11 8 11 20 32 43 65 71 56 48 49 51 33 23 25 24 24 24 26 28 29 29 30 33 34 34 34 32 29
61 60 59 58 56 56 57 66 86 79 69 72 71 30 12 7 16 23 34 50 69 69 57 50 51 43 22 24 23 24 28 30 31 33 34 35 37 39 40 40 39 35 32 29
71 76 70 67 64 64 73 69 66 66 80 76 48 9 11 22 28 36 54 74 72 57 45 63 51 38 40 24 28 34 37 39 39 41 43 44 45 45 48 45 40 35 33 30
86 88 94 88 89 87 56 73 90 97 91 43 10 10 22 30 38 54 70 67 51 48 63 70 60 25 27 35 41 44 44 46 48 49 49 50 53 55 52 45 38 36 32 26
98 98 98 96 96 88 86 95 86 81 60 18 9 16 30 44 67 63 56 62 71 70 62 36 27 34 43 45 45 45 47 51 53 54 55 57 61 57 49 41 39 34 28 22
100 98 97 96 95 87 89 80 39 22 23 21 25 38 60 75 63 78 81 76 72 56 30 29 38 47 46 46 47 49 53 55 57 59 62 65 61 51 44 41 36 29 21 16
93 94 92 99 92 88 65 59 57 39 32 44 62 89 88 86 80 72 78 75 60 32 34 44 47 47 48 49 51 53 56 59 63 69 69 63 52 47 43 37 28 18 12 11
93 95 96 92 93 84 83 88 95 98 92 98 94 89 85 81 74 64 70 60 34 35 43 47 48 47 49 50 52 58 59 64 68 69 64 55 52 46 39 29 19 14 13 10
100 97 96 90 80 80 87 83 80 84 79 80 90 88 75 58 54 62 44 32 37 44 46 46 46 48 50 54 61 58 60 65 67 67 59 55 51 42 32 21 17 14 11 13
99 93 91 84 86 81 68 73 71 68 52 41 40 42 57 54 38 32 38 44 45 45 46 46 47 49 58 62 56 58 66 71 70 61 57 54 45 34 25 20 15 12 13 25
60 60 66 77 92 96 95 92 84 84 81 54 39 33 34 37 41 43 43 43 45 46 47 48 50 62 63 57 56 63 70 68 62 61 56 47 37 28 22 16 12 12 26 48
84 68 67 64 73 84 80 69 61 50 39 34 34 37 40 45 48 45 45 46 48 48 49 54 64 65 63 61 65 68 65 64 62 56 49 39 31 26 18 14 12 19 54 61
43 40 35 31 32 41 58 68 75 75 63 56 55 57 54 46 44 45 46 46 47 53 62 65 67 64 67 71 68 64 62 57 52 47 40 34 29 20 15 13 17 51 59 63

GFSCGP_500_rhum_012.txt.gz
RH
62 54 50 84 78 84 87 76 53 53 46 32 21 33 25 19 32 25 26 34 35 46 50 49 47 42 40 51 54 24 13 42 68 63 46 39 39 38 21 9 7 10 13 23
100 62 57 92 95 91 91 71 54 60 46 30 26 27 26 20 29 30 26 35 32 35 42 46 43 40 39 45 25 35 56 63 61 52 44 45 38 18 10 9 10 13 25 37
84 43 90 94 98 92 89 68 59 66 44 28 29 30 26 23 24 33 26 32 34 40 43 44 44 46 38 12 27 50 61 67 61 52 49 34 16 10 9 15 30 39 44 46
81 98 98 100 96 93 89 69 71 66 45 31 29 29 31 29 24 31 27 35 42 46 50 47 33 9 6 18 32 44 57 60 58 48 33 19 12 11 20 33 40 49 47 36
92 100 98 99 82 97 88 72 77 62 48 32 33 28 32 27 26 30 25 44 50 50 52 52 25 21 31 37 41 45 57 56 51 33 19 14 13 25 36 53 52 42 33 31
100 100 99 98 97 97 90 80 68 60 48 35 32 30 43 36 45 38 20 35 44 43 53 55 27 27 36 39 46 55 55 47 31 19 16 18 32 50 54 45 34 32 35 26
98 99 93 96 98 95 95 80 70 59 49 34 34 29 45 42 44 48 27 16 24 42 51 29 20 25 33 43 48 45 35 25 20 18 21 44 52 46 37 34 39 34 23 21
98 100 94 68 98 76 83 78 67 58 51 36 40 30 38 48 57 52 39 22 17 20 20 18 20 21 26 31 29 25 22 19 21 25 44 46 37 36 38 30 22 23 22 18
100 91 91 78 82 91 88 75 67 66 52 35 46 35 40 36 34 35 36 30 17 17 20 21 20 19 18 19 19 18 19 22 33 52 42 39 40 27 21 25 23 20 19 23
100 87 88 72 93 90 85 88 74 58 52 47 53 45 43 39 30 30 36 38 38 30 19 14 14 17 19 18 19 21 29 48 48 41 42 32 22 26 25 21 20 24 25 26
100 99 83 90 88 93 74 82 73 66 53 46 53 46 35 35 39 39 36 35 35 32 25 15 13 13 14 20 28 47 55 45 44 38 26 26 28 24 22 25 27 28 30 31
94 69 71 50 68 97 98 98 97 78 53 48 48 52 46 39 41 40 35 30 23 18 12 12 17 23 30 48 57 51 49 44 33 25 25 25 24 26 28 28 30 33 34 35
81 74 70 78 76 70 75 76 74 65 58 58 64 50 46 46 56 49 30 16 11 7 9 20 33 45 67 59 50 51 36 27 24 25 27 26 29 30 30 33 37 38 38 42
81 80 79 63 56 63 66 65 72 66 60 51 47 54 60 71 84 45 30 20 14 17 30 48 63 71 57 50 51 30 25 31 31 28 29 32 33 34 39 41 41 43 46 50
94 83 86 75 70 72 71 78 76 72 63 51 67 71 64 63 53 30 12 10 13 33 52 71 71 58 51 60 38 51 48 30 31 34 36 38 41 44 44 45 47 49 54 58
76 79 74 80 70 67 60 60 63 62 60 50 53 48 85 62 30 19 10 14 33 51 71 77 59 51 68 70 60 40 29 36 40 42 43 46 48 49 49 51 53 60 66 58
85 77 79 80 75 68 63 57 61 56 50 52 50 72 66 41 14 11 16 36 48 59 67 55 59 67 68 56 33 32 39 44 45 46 47 50 52 52 52 57 65 70 61 50
96 86 84 82 69 56 56 64 59 63 67 62 68 75 33 10 6 17 31 40 56 60 60 69 74 73 41 31 36 44 46 47 48 49 51 54 56 56 63 72 73 63 53 46
95 94 78 79 73 70 71 68 67 63 81 84 79 65 18 15 25 33 50 65 65 73 75 80 78 49 35 37 44 48 48 47 50 51 58 58 58 69 77 76 63 55 48 39
88 94 99 78 84 81 98 96 90 84 63 40 29 26 28 41 45 64 71 74 74 73 90 88 72 40 38 46 51 51 48 49 52 62 61 61 72 78 73 61 55 49 38 32
84 84 97 96 87 87 96 94 89 78 77 73 67 62 71 88 86 90 84 96 95 85 82 65 36 40 48 52 52 48 49 52 63 67 65 72 75 68 58 53 43 34 26 20
97 95 94 97 90 92 97 95 91 80 77 88 89 87 82 84 91 94 88 68 60 68 40 36 44 48 52 50 50 50 56 65 67 69 74 72 64 57 47 38 30 19 16 17
98 98 98 99 90 94 92 97 94 86 74 71 74 78 83 57 56 48 65 58 38 36 44 48 49 50 48 50 52 60 68 68 72 74 68 61 52 42 36 31 26 22 20 21
96 98 89 85 78 66 58 61 71 69 66 63 52 57 61 73 63 41 35 38 44 48 50 48 47 45 47 58 64 67 67 73 70 62 52 41 38 38 36 31 21 21 23 20
71 68 70 78 90 93 96 95 88 84 86 88 86 67 56 36 37 40 44 61 65 51 46 45 44 55 63 63 63 69 70 61 51 41 38 38 38 32 25 21 22 23 21 18
88 90 81 62 57 52 46 45 60 75 81 82 80 70 58 60 75 78 60 52 47 44 43 56 64 61 63 66 68 60 49 41 39 38 34 30 24 21 19 20 23 21 17 16

GFSCGP_500_rhum_015.txt.gz
RH
63 36 31 38 43 44 61 61 57 61 66 62 48 33 38 32 23 26 27 31 22 32 42 54 54 62 56 50 44 38 42 51 49 16 39 65 60 43 43 42 26 11 8 12
71 62 34 28 44 47 58 99 70 85 71 61 54 34 42 30 21 29 30 29 21 31 37 47 50 53 48 46 45 41 42 41 21 44 54 60 53 48 44 30 12 8 12 26
96 74 56 47 51 73 85 70 72 86 76 64 50 34 41 32 24 25 34 32 24 34 34 36 40 40 46 45 44 44 34 15 62 85 76 67 58 50 33 16 10 16 36 50
95 99 88 77 50 66 67 69 82 99 81 71 49 38 43 35 25 24 28 35 27 31 30 31 39 44 45 41 27 8 8 16 42 48 61 58 49 35 21 14 15 38 53 49
62 100 92 69 79 70 89 72 72 99 83 69 48 40 36 32 24 26 27 35 30 30 35 43 44 50 49 39 18 25 24 29 39 54 53 48 32 21 18 22 47 51 47 38
91 100 84 50 99 62 98 92 92 97 83 65 51 44 36 34 33 30 30 32 28 29 39 45 49 50 54 41 25 34 38 45 52 51 43 30 22 20 31 47 46 39 36 36
100 93 77 81 100 96 97 86 81 96 76 58 56 43 55 32 32 34 32 36 29 23 38 48 45 44 53 28 26 36 43 47 44 34 26 21 21 30 43 41 39 37 28 24
100 100 70 100 97 97 95 90 97 78 68 59 53 40 40 38 36 36 36 46 40 20 20 27 35 42 31 19 23 26 30 31 28 23 21 21 39 46 42 39 30 24 26 23
91 96 88 94 94 98 93 95 96 68 59 78 50 44 34 38 43 46 47 54 48 32 19 17 19 20 18 19 20 21 21 21 21 22 27 46 45 43 38 26 28 27 24 27
93 89 80 97 99 97 95 95 83 75 58 60 59 49 54 41 39 48 57 52 48 39 30 20 17 16 15 15 15 17 19 18 22 39 53 45 43 31 28 28 26 26 29 30
100 94 71 91 96 65 98 88 78 66 62 78 86 66 54 48 42 40 34 33 34 37 40 38 34 29 22 18 14 15 20 32 50 52 46 41 29 27 27 29 29 31 33 35
99 97 95 89 54 95 97 96 88 70 65 62 50 57 60 59 46 39 35 33 34 35 36 33 30 24 15 11 16 23 42 56 51 48 34 26 28 30 30 31 33 35 39 41
99 95 96 85 83 72 88 83 85 88 67 58 59 62 61 61 57 51 51 46 39 34 30 26 18 11 11 19 35 56 58 52 46 28 29 40 40 31 35 36 38 42 45 46
95 98 100 94 81 69 75 97 93 87 78 66 56 72 52 75 75 64 55 46 40 35 27 15 12 21 31 45 64 62 55 54 41 49 50 38 32 38 39 42 45 48 50 49
70 58 62 69 56 69 96 94 91 81 85 66 70 66 71 93 67 54 47 43 50 35 21 12 18 34 50 68 67 56 64 64 61 46 32 36 42 42 44 48 51 52 52 48
83 82 82 81 77 80 76 73 65 67 61 64 58 63 88 63 63 55 46 47 46 23 12 20 35 50 64 72 56 64 69 56 47 32 42 43 43 45 51 53 53 56 53 57
83 83 81 85 75 74 60 58 52 52 52 51 55 65 65 57 72 52 58 52 28 13 14 28 42 63 62 61 71 72 67 44 35 42 46 46 46 53 55 55 60 58 64 69
98 97 92 82 83 69 52 54 61 55 52 51 58 65 56 53 61 63 52 15 8 12 25 46 60 60 63 72 77 72 62 42 44 47 48 48 56 56 60 61 62 68 66 59
96 100 95 84 84 80 74 74 69 67 70 69 63 58 54 58 69 60 22 8 15 28 47 61 64 71 76 86 93 86 43 46 48 49 51 57 54 62 62 68 68 59 50 43
94 92 87 83 87 80 80 71 65 61 66 63 65 70 75 81 79 45 24 27 40 60 71 75 77 79 91 94 72 40 48 50 51 51 55 56 64 68 70 58 45 39 41 34
85 80 76 87 76 84 98 89 85 80 77 78 72 64 44 41 41 39 46 55 77 88 84 92 91 84 87 48 43 51 51 50 52 52 60 65 69 61 47 38 38 29 19 18
92 90 71 98 92 93 97 95 97 92 85 93 89 76 69 72 70 75 85 84 90 94 92 66 68 54 39 49 52 51 50 53 57 63 67 66 51 40 36 25 17 16 16 15
86 82 85 92 95 99 96 98 95 100 96 86 83 81 83 85 86 86 88 66 47 52 71 67 40 47 56 58 50 50 59 64 65 70 56 44 38 28 16 14 14 17 17 16
94 99 94 97 95 99 96 98 92 94 88 84 82 76 77 74 64 65 61 71 59 37 39 46 63 67 51 50 61 69 70 67 64 50 40 34 19 15 15 18 19 18 16 15
99 96 97 95 95 95 84 74 73 87 96 92 90 87 88 89 85 63 54 39 46 59 76 71 55 50 61 71 74 66 65 52 44 39 29 18 16 17 19 21 21 18 16 13
97 98 85 91 95 95 88 72 57 51 53 64 76 79 79 77 76 73 70 74 82 82 71 59 58 71 74 67 67 54 45 41 37 24 20 17 18 20 18 20 19 18 14 7

GFSCGP_500_rhum_018.txt.gz
RH
46 40 35 27 20 17 28 42 36 28 22 32 32 46 51 50 44 34 28 22 22 28 20 30 29 28 48 59 60 61 58 50 43 38 37 38 23 41 62 60 50 50 47 26
69 49 41 37 26 23 19 29 44 40 36 38 42 38 52 45 49 38 31 26 23 30 28 27 31 34 48 52 60 56 49 47 44 39 41 50 41 51 69 62 58 51 35 20
84 53 72 57 43 32 26 26 35 60 62 40 48 39 53 48 48 38 32 26 26 28 33 22 30 37 44 47 52 48 47 46 42 40 20 13 45 58 61 58 52 36 22 16
94 78 70 59 48 40 24 20 31 90 97 59 55 36 54 54 51 39 36 31 25 36 25 25 33 35 37 38 39 46 45 43 21 7 11 30 40 55 55 53 38 24 17 19
76 64 62 66 64 69 35 47 56 53 62 98 56 48 52 49 48 36 34 28 23 36 36 25 29 34 31 38 44 47 49 25 17 25 36 40 49 50 46 34 24 16 22 35
68 71 84 72 90 60 40 95 84 97 98 76 74 58 52 58 41 37 34 26 22 30 38 34 27 34 40 46 50 50 47 29 29 36 40 43 43 36 28 22 18 24 40 42
84 82 92 100 93 43 44 94 97 99 90 82 63 66 64 63 45 32 33 23 24 29 38 33 26 37 46 50 47 42 40 30 27 30 33 32 28 25 20 19 34 45 43 33
81 82 97 95 64 46 46 96 97 96 69 79 52 82 57 57 45 32 30 25 27 29 37 31 16 26 37 41 39 36 31 22 23 22 24 21 20 20 19 46 47 41 30 30
89 93 98 76 77 85 83 96 97 96 75 62 51 72 59 57 42 36 27 29 32 32 46 45 23 16 17 20 22 21 20 21 21 19 19 19 17 28 52 49 39 30 30 30
100 100 83 99 100 98 99 100 97 99 88 76 83 75 57 52 42 35 33 34 36 36 48 49 35 26 19 18 18 18 17 16 16 16 16 21 43 52 49 35 28 30 33 35
100 100 97 94 93 96 98 98 98 98 81 88 88 73 52 44 42 37 37 43 54 54 54 49 43 37 33 30 29 28 26 20 14 18 29 51 53 48 30 29 37 36 35 37
100 100 99 88 88 98 97 98 96 91 96 88 81 58 51 50 46 47 40 38 41 40 38 36 35 37 39 36 30 23 16 13 20 35 58 54 49 31 40 46 34 38 39 41
99 87 98 74 99 95 97 96 96 82 78 85 63 57 49 56 58 56 48 42 41 36 32 31 32 31 30 26 19 10 13 29 52 65 58 57 48 57 41 31 38 42 44 51
100 100 74 80 92 98 94 89 100 95 79 70 66 58 60 70 65 59 56 51 45 42 40 37 36 31 26 17 13 22 40 63 68 61 63 70 61 42 33 41 43 46 56 60
95 97 97 94 72 94 98 95 95 88 82 76 85 66 57 62 68 64 62 57 49 42 39 40 47 37 22 12 18 36 59 74 63 64 70 58 46 39 41 45 48 58 61 60
93 97 99 98 96 84 74 65 74 80 94 91 84 78 72 54 54 74 70 58 49 45 43 46 45 26 16 16 34 58 73 63 68 76 64 65 51 43 47 48 58 63 62 59
100 100 90 61 65 75 76 75 78 71 70 69 82 82 92 76 72 70 57 53 57 56 62 44 24 18 17 35 57 66 63 78 90 77 92 48 46 50 50 57 64 64 62 64
76 84 88 78 76 73 71 64 62 65 60 53 54 61 68 60 59 65 59 56 62 62 41 16 12 19 36 56 62 67 83 96 96 85 42 47 51 51 57 64 65 65 58 37
80 76 70 83 69 78 74 71 65 55 65 54 53 60 48 48 57 64 59 57 67 52 20 12 23 39 60 67 72 80 93 96 60 42 52 52 51 59 67 67 69 49 34 17
68 76 61 74 74 87 82 78 70 56 61 53 54 55 44 63 60 59 68 78 65 38 28 42 66 85 99 98 95 82 83 54 44 54 53 52 65 74 68 68 45 32 17 15
76 78 76 84 74 72 92 93 81 77 75 69 65 63 62 58 63 77 76 66 54 41 51 82 93 92 96 89 76 84 45 49 58 51 56 74 78 67 60 43 32 18 14 11
95 95 90 82 77 97 88 93 96 99 97 80 71 77 80 77 67 48 38 42 64 82 83 73 57 60 74 90 58 46 58 58 51 68 79 71 65 49 40 29 20 13 12 14
84 84 90 90 95 96 97 97 95 95 96 98 98 97 94 88 84 90 90 82 76 72 82 69 74 73 48 44 58 65 52 58 79 77 67 58 42 36 25 20 13 14 16 19
82 96 84 94 97 89 97 98 98 96 94 96 95 92 90 87 82 79 73 63 61 74 77 48 40 50 69 80 68 58 65 82 71 65 49 40 33 25 16 14 14 17 22 26
74 80 91 91 96 94 98 97 97 97 87 75 85 95 93 88 83 82 81 78 66 54 49 58 76 85 76 62 49 58 77 67 61 46 38 30 23 15 13 15 18 24 30 34
88 90 97 95 98 98 98 87 84 94 86 66 57 56 56 53 52 51 52 54 60 74 82 80 72 60 45 50 75 72 67 54 44 36 28 20 14 14 15 19 27 38 42 36

GFSCGP_500_rhum_021.txt.gz
RH
70 53 48 57 48 40 36 35 28 28 27 36 27 20 17 30 35 46 48 40 29 23 27 34 20 18 29 31 45 59 60 67 67 62 55 50 44 40 40 56 44 66 65 60
61 45 72 69 55 40 33 29 25 27 36 51 34 24 18 31 34 39 52 43 33 25 23 33 24 21 30 31 32 40 60 61 60 54 48 47 44 34 13 33 64 61 57 53
73 72 91 81 69 54 41 33 27 22 24 30 56 29 18 21 25 48 52 46 35 28 27 26 31 25 27 33 36 48 56 59 59 49 49 44 18 8 22 36 43 55 55 45
74 91 89 94 78 71 52 49 39 27 21 18 39 29 19 15 21 44 56 47 46 30 31 28 28 35 23 29 36 44 48 52 45 47 44 20 17 26 37 42 49 49 37 28
84 83 100 86 64 95 56 62 44 32 28 20 29 55 19 20 17 36 52 47 42 31 28 36 35 25 25 33 35 35 37 40 45 45 42 27 30 36 40 43 43 34 26 19
92 96 84 76 81 76 62 63 55 46 27 23 19 96 72 23 25 30 51 49 45 30 28 35 38 34 26 27 34 34 40 45 50 51 50 39 31 33 35 30 26 22 19 22
99 88 95 93 75 68 56 46 46 45 29 16 67 94 51 54 38 34 50 46 41 29 30 30 35 40 34 24 35 39 43 48 46 46 46 30 23 24 23 21 20 20 28 48
100 99 92 68 63 71 59 59 51 40 24 13 28 84 80 65 44 43 51 47 40 32 27 28 29 38 34 20 31 37 40 44 41 37 28 20 21 20 18 19 19 37 53 48
84 71 87 90 100 93 96 72 64 31 18 49 72 88 84 69 62 59 44 42 33 31 28 33 32 41 30 15 16 22 26 25 22 21 21 18 16 18 17 24 47 55 48 32
80 94 99 100 100 97 81 56 94 69 98 72 96 73 42 40 61 53 42 40 32 29 29 32 41 53 45 25 18 18 18 18 18 19 23 23 16 20 35 54 58 48 32 37
98 100 100 100 97 68 94 84 94 94 91 99 88 57 47 70 69 55 44 36 33 32 32 39 47 52 49 44 37 30 30 31 32 29 23 18 21 43 60 60 51 35 45 41
98 100 100 97 58 94 99 100 98 95 97 99 73 53 51 79 62 49 40 36 37 41 46 52 52 51 46 40 38 38 37 32 25 19 16 26 49 69 62 64 58 56 39 40
100 100 70 69 93 93 95 99 99 97 100 98 88 69 80 68 52 43 46 44 43 44 43 42 38 36 34 37 36 31 27 20 15 17 29 48 73 65 65 80 52 45 48 47
100 99 89 97 95 92 100 97 95 96 98 98 83 78 65 56 61 53 54 55 50 46 40 37 37 36 36 37 37 34 28 21 17 26 50 76 71 74 73 48 57 73 47 53
99 98 100 74 86 96 98 97 97 99 100 98 88 87 71 64 63 63 64 57 51 48 47 44 41 40 40 44 48 28 17 17 26 57 83 68 79 90 70 86 57 50 70 60
98 99 100 87 70 88 96 97 98 96 93 91 97 93 86 75 62 62 56 58 60 58 52 50 48 48 49 48 32 19 26 39 66 79 65 82 96 98 94 47 59 78 56 74
97 99 98 100 90 84 83 92 98 98 98 97 97 89 89 80 74 67 60 53 61 61 55 56 58 55 49 23 22 38 50 70 71 67 79 90 97 69 50 79 60 60 76 68
92 96 100 100 99 100 83 84 96 92 86 80 95 82 82 72 65 70 72 70 60 57 55 56 56 49 19 15 29 47 64 70 73 86 96 94 64 55 61 57 70 76 67 58
70 73 81 87 94 93 92 81 70 70 66 63 62 74 74 62 52 51 58 63 62 59 58 61 60 26 20 38 62 77 94 99 98 81 88 64 58 61 57 80 73 67 47 38
66 80 80 77 85 82 82 79 76 72 63 57 63 57 50 57 60 60 53 55 58 60 75 75 58 36 44 74 96 98 97 100 95 93 60 56 60 62 88 72 64 42 35 27
76 77 74 68 74 76 80 78 78 84 71 61 61 63 61 58 58 59 66 73 70 76 74 58 45 59 88 78 72 73 82 93 67 51 61 63 84 85 71 56 42 34 24 13
68 66 74 79 91 94 81 84 87 85 88 72 61 60 62 66 69 72 81 80 64 51 49 73 82 82 87 79 85 86 59 48 59 87 76 74 78 71 52 41 32 20 13 14
85 83 90 87 94 98 98 92 94 93 85 82 81 76 74 76 80 78 73 70 79 78 77 75 76 86 88 83 52 43 66 90 82 54 74 75 69 49 40 28 18 14 16 18
86 91 94 95 89 80 92 93 94 93 89 88 90 90 91 89 88 89 87 83 81 81 87 85 80 76 58 50 67 83 79 55 61 77 70 64 49 38 27 18 15 19 21 22
93 79 77 91 95 92 83 89 95 93 88 87 88 85 81 82 84 88 92 92 90 84 80 75 74 79 84 84 76 53 54 75 70 69 60 48 37 27 18 18 22 23 25 25
95 73 70 82 87 94 88 90 91 96 96 90 92 88 80 67 57 48 36 24 20 22 31 46 64 72 61 43 48 74 68 66 70 60 48 38 27 19 22 23 26 31 30 37

GFSCGP_500_rhum_024.txt.gz
RH
66 43 38 49 51 44 40 36 33 36 34 30 23 18 16 20 20 16 23 28 42 48 37 34 23 28 32 19 21 32 34 54 60 67 74 71 64 58 48 47 39 17 37 63
57 50 60 75 66 55 55 48 44 42 36 30 29 18 15 17 17 15 20 28 37 51 37 38 28 25 36 22 17 27 33 46 60 65 67 66 59 50 49 34 10 25 38 41
62 59 63 67 68 62 62 54 54 46 40 34 31 22 19 18 22 16 17 25 28 46 38 38 33 26 32 22 20 27 34 35 39 62 64 65 53 49 38 16 26 35 39 43
55 63 69 78 78 96 71 75 67 53 40 34 33 22 23 22 16 14 19 24 25 35 38 38 36 28 27 33 30 26 32 40 51 58 59 54 48 46 32 27 32 36 39 40
65 73 86 81 100 98 78 98 86 68 53 41 35 26 17 22 14 13 17 23 27 38 42 40 41 30 27 32 36 24 23 34 44 50 52 44 46 48 48 40 32 31 30 26
88 84 89 95 100 98 93 99 100 96 80 58 38 35 18 21 16 21 18 23 29 53 46 38 38 28 28 34 31 24 28 35 36 38 39 44 48 46 48 37 26 23 23 20
95 91 95 100 100 100 100 100 100 100 88 45 39 40 17 17 23 24 20 21 29 54 46 37 42 32 35 37 38 32 22 32 37 38 41 46 42 41 37 25 23 21 19 18
98 99 93 99 100 100 100 100 100 98 78 53 42 28 15 16 60 61 23 20 30 61 44 46 43 33 30 34 43 36 19 30 37 38 42 40 35 28 22 20 20 21 17 24
75 90 99 100 100 99 79 83 63 72 66 60 44 19 14 16 54 65 28 23 30 54 46 45 41 32 29 34 43 30 16 21 30 30 25 24 21 20 21 27 22 19 31 51
69 67 84 80 67 69 57 78 83 69 41 36 26 24 13 17 59 52 51 35 46 48 42 41 35 31 35 47 46 28 18 16 17 19 19 19 23 30 28 22 18 42 62 65
74 78 76 62 76 91 100 92 48 68 67 42 22 16 12 26 74 82 70 66 55 48 40 40 38 40 47 57 46 34 32 32 32 30 32 35 32 25 18 23 54 71 64 66
96 78 99 100 100 100 100 96 100 78 44 63 68 56 31 54 79 85 94 81 53 43 39 41 41 46 59 58 53 50 46 40 38 38 32 26 18 17 36 64 80 76 67 71
100 100 100 100 89 64 46 86 100 92 93 96 100 83 88 80 75 83 70 57 50 51 48 44 49 60 59 55 47 42 41 37 33 29 25 23 25 38 57 80 81 69 74 80
100 100 98 99 96 96 77 86 92 97 97 99 98 99 89 61 82 67 54 50 54 51 50 50 51 50 45 42 40 39 40 41 40 34 25 24 30 51 78 74 64 77 91 97
100 100 96 93 94 98 95 98 96 95 99 99 98 98 96 84 94 74 73 68 62 58 55 52 47 44 44 46 48 51 50 44 38 30 24 30 51 70 65 66 84 98 92 58
98 99 99 96 98 98 99 99 96 96 99 98 92 98 91 93 78 76 75 71 69 68 65 60 55 52 51 50 49 52 45 35 25 22 35 49 66 67 77 96 100 84 72 82
100 100 98 88 89 97 99 99 97 98 98 98 98 98 98 97 91 85 80 79 81 78 74 70 62 58 56 58 56 47 34 21 21 32 57 72 81 97 98 95 90 84 68 73
100 98 97 98 99 91 99 98 94 93 88 80 77 78 75 76 79 80 81 82 82 82 73 64 58 59 60 57 45 25 18 26 45 71 87 97 100 97 94 87 63 65 84 82
87 82 83 95 99 92 99 93 86 90 75 70 78 81 89 90 84 86 80 80 73 67 65 64 62 62 66 53 36 31 43 68 88 96 93 94 95 90 60 61 84 84 81 67
85 86 86 85 88 78 77 83 75 68 68 61 62 66 68 86 81 84 69 62 55 52 56 57 62 80 74 63 50 53 81 90 81 78 90 98 76 56 81 74 72 81 62 46
58 63 65 65 75 74 79 77 76 78 71 68 62 61 54 58 58 51 50 51 54 60 65 75 80 72 58 51 66 90 87 77 88 97 73 52 80 86 60 77 77 57 45 32
51 53 66 84 82 76 78 76 85 77 66 66 64 60 60 61 62 62 63 68 74 76 76 66 51 56 77 86 86 91 96 95 75 48 69 90 68 64 79 74 56 43 31 20
62 76 85 75 70 73 86 87 86 91 91 88 84 84 86 85 83 81 81 77 74 74 79 82 81 80 78 83 90 93 74 52 70 83 75 58 73 76 71 56 42 30 22 21
88 94 95 87 86 90 100 97 91 99 100 100 100 100 100 100 100 100 97 96 95 91 87 83 90 93 89 77 69 70 80 85 76 53 68 73 78 71 57 41 28 23 22 21
91 96 97 95 90 91 92 89 90 96 96 96 100 100 100 98 90 86 85 85 87 89 91 86 72 53 41 42 58 70 61 45 67 71 71 82 72 55 39 27 25 25 23 23
91 89 95 90 78 80 87 92 89 92 93 93 95 95 89 87 96 92 81 62 40 22 17 20 26 39 56 66 58 44 70 75 62 79 82 70 50 36 29 28 29 28 27 26

GFSCGP_500_rhum_027.txt.gz
RH
20 17 19 45 50 32 43 53 50 46 46 45 31 21 16 16 18 15 13 14 15 19 29 51 46 39 34 26 32 18 19 31 38 56 72 69 76 80 73 63 54 49 47 20
19 21 31 50 57 54 41 45 53 50 46 38 37 24 22 18 16 16 14 12 13 15 18 41 49 41 38 27 32 35 22 20 32 36 58 65 70 72 68 60 51 47 25 17
27 33 48 50 58 59 59 47 51 54 60 44 28 19 24 22 21 20 16 12 12 12 15 21 49 48 39 28 31 38 28 16 24 35 46 64 68 67 65 58 50 42 25 29
25 47 66 66 63 78 68 73 76 74 72 56 44 16 23 22 23 21 19 14 9 12 14 20 40 45 36 30 28 35 29 26 26 34 38 40 55 63 60 51 48 45 42 41
57 68 72 61 67 87 61 92 86 85 79 64 56 43 20 30 25 21 19 17 14 12 12 21 46 50 40 33 30 31 40 44 30 28 38 48 55 56 53 46 47 47 49 43
73 69 69 71 82 83 79 94 100 100 98 61 58 59 22 28 28 24 23 23 18 17 13 23 40 51 38 34 34 35 43 39 23 22 27 35 43 44 42 45 46 43 40 30
67 61 64 83 94 99 100 100 100 100 98 53 62 74 29 30 34 28 24 21 21 19 16 22 38 53 44 39 40 46 49 42 26 23 30 37 38 39 41 44 40 36 27 22
25 26 41 50 97 100 100 100 100 100 85 84 95 54 25 32 39 30 24 24 23 19 17 20 40 57 50 41 41 52 52 49 36 19 25 36 36 36 41 36 30 24 22 27
19 20 48 59 99 90 97 99 97 100 100 100 90 46 33 38 36 32 22 25 26 23 18 17 39 62 51 42 41 46 48 50 38 16 19 28 30 28 24 25 23 24 31 26
28 30 56 66 85 80 100 100 100 100 92 87 54 40 31 40 33 29 26 29 34 25 19 17 43 62 48 42 39 40 49 49 36 16 15 18 20 21 22 26 33 31 25 20
45 41 58 50 39 62 76 86 84 82 93 66 48 39 33 39 25 17 20 81 56 34 26 29 56 51 44 41 39 44 55 45 30 22 21 24 26 31 36 34 27 20 24 35
69 92 91 69 77 82 87 55 59 68 60 63 47 27 31 34 25 17 21 74 52 50 43 56 54 50 46 42 46 59 55 34 35 42 38 37 38 37 30 23 22 30 38 59
89 82 96 100 100 100 100 100 100 100 100 80 61 42 29 20 17 14 39 85 78 72 60 52 49 46 47 52 62 57 53 52 47 42 42 39 34 33 30 23 27 43 58 59
94 97 100 100 100 100 100 98 94 99 80 76 69 99 30 33 26 39 74 80 93 65 63 62 58 57 57 63 65 61 53 47 44 40 40 45 41 33 28 29 43 55 61 72
96 100 99 100 92 99 96 100 95 98 100 98 100 100 99 80 84 94 97 98 81 57 70 75 78 72 66 62 56 50 45 45 51 53 48 42 35 22 31 38 58 71 87 94
98 99 100 92 96 100 98 98 97 100 96 97 98 87 80 96 99 84 96 89 75 83 81 75 68 60 56 53 54 54 52 53 51 49 43 30 24 30 44 71 90 96 98 98
100 99 100 92 98 98 97 98 94 100 98 98 96 99 99 92 96 92 99 93 85 78 73 69 66 61 59 58 56 53 52 52 51 40 22 24 37 62 86 98 95 100 98 61
98 100 99 96 99 98 98 98 96 96 98 96 97 83 80 89 99 100 94 95 89 84 80 75 73 70 64 57 56 56 57 50 32 25 33 56 80 97 89 90 100 91 65 88
80 86 100 96 98 98 99 98 98 96 98 95 99 97 95 98 99 99 98 98 100 100 97 91 78 65 60 60 62 62 56 40 41 53 78 99 95 83 94 99 66 81 91 61
87 78 78 82 76 79 98 99 95 94 85 99 100 89 100 98 99 97 97 98 92 84 77 70 66 64 64 67 74 71 63 55 67 97 100 89 94 100 77 60 90 74 63 80
67 68 75 73 79 73 65 69 81 80 82 81 79 92 96 98 96 91 87 80 66 59 56 55 59 65 75 84 76 58 62 91 97 93 96 100 80 58 82 83 62 71 79 70
50 56 62 74 69 77 69 68 71 70 60 60 65 67 73 70 74 84 78 65 51 55 65 74 80 82 68 56 73 91 91 90 94 98 85 65 84 88 63 65 76 81 66 42
50 45 56 72 77 75 74 70 66 72 78 84 78 68 62 65 66 63 62 69 76 79 79 74 69 78 86 87 85 88 93 89 76 77 86 86 58 63 74 78 81 58 39 31
51 53 79 82 88 83 79 86 84 86 87 90 96 90 82 80 84 86 86 86 86 89 94 96 94 90 91 94 90 81 72 62 69 71 53 62 77 70 83 73 50 38 31 32
46 75 85 82 96 94 83 86 84 88 98 100 96 96 94 94 93 94 94 94 94 95 97 95 86 56 37 35 34 45 64 68 53 62 82 64 73 78 63 49 38 33 37 36
98 92 91 77 87 96 93 89 88 90 93 96 96 96 97 98 96 94 98 100 97 76 40 22 23 26 29 43 64 76 62 59 88 68 62 77 73 58 50 41 39 38 35 27

GFSCGP_500_rhum_030.txt.gz
RH
11 11 11 16 16 15 15 16 18 23 25 43 42 21 20 15 12 16 14 12 11 12 15 17 15 20 51 48 43 39 29 34 17 25 46 62 83 80 75 83 88 80 68 56
12 13 15 16 16 17 19 20 22 32 39 30 44 24 24 20 13 15 16 17 15 14 18 17 13 17 42 53 44 41 30 39 31 19 33 39 49 74 72 76 76 74 65 52
20 20 19 20 21 22 24 30 40 47 59 49 29 17 35 32 18 19 19 20 16 16 16 17 14 16 25 54 50 42 30 33 45 27 21 29 37 48 64 70 71 67 62 52
20 22 24 24 23 28 30 46 60 61 62 49 62 18 23 36 28 20 22 20 19 19 19 17 15 16 19 55 51 40 35 28 41 30 18 26 35 40 55 65 62 64 59 51
27 29 27 22 32 54 51 66 68 64 62 58 51 49 12 22 33 26 20 21 24 25 25 22 16 18 20 38 53 41 39 28 40 33 27 27 32 39 43 50 60 57 53 48
30 28 27 38 66 69 71 71 74 80 78 54 47 56 20 26 22 26 24 20 23 26 25 24 20 15 19 36 54 45 40 29 32 39 40 31 24 31 40 48 50 47 43 46
33 36 46 45 44 54 67 84 94 94 82 48 49 46 22 25 32 38 41 33 32 30 24 21 21 17 20 46 58 46 42 33 34 38 40 28 25 36 37 36 37 40 43 45
45 32 15 16 18 38 51 100 100 100 94 87 92 43 21 30 34 46 42 42 33 27 24 24 23 18 23 35 57 50 48 39 39 47 43 29 21 22 32 38 38 39 40 32
12 12 20 22 18 26 27 46 91 100 100 100 75 50 34 32 41 45 50 46 38 32 26 24 26 19 22 41 59 53 52 41 48 56 52 40 22 21 25 30 31 30 26 28
17 20 34 36 30 36 44 61 68 79 100 98 66 52 34 33 47 50 53 45 38 30 26 27 26 24 32 59 62 54 52 43 47 50 52 47 27 15 15 18 21 25 32 38
26 25 38 54 92 81 68 49 56 88 94 100 82 50 46 35 42 45 47 47 35 28 28 33 26 28 38 69 60 55 52 46 45 45 52 44 26 20 21 26 33 38 39 34
25 32 40 67 94 100 100 99 100 91 66 82 86 43 41 43 50 51 56 47 51 50 26 32 26 29 49 70 57 49 52 48 46 52 53 36 24 32 38 39 41 37 35 36
50 46 54 60 90 99 100 100 100 100 100 93 100 36 60 44 49 58 39 30 40 73 48 33 26 24 47 62 57 52 52 49 51 68 40 35 44 43 43 39 40 43 35 31
52 71 97 94 100 100 100 99 100 100 98 99 96 88 87 61 41 46 25 22 61 74 52 39 46 53 65 58 52 53 49 56 67 48 50 48 45 42 44 50 43 31 36 42
73 94 92 91 100 97 94 99 100 99 99 100 100 51 41 35 46 20 18 21 76 68 68 62 72 68 63 54 51 53 68 61 59 55 49 44 47 56 53 40 28 36 57 84
93 96 98 99 99 98 98 98 98 100 100 99 100 91 25 22 23 15 14 51 88 86 86 89 91 72 62 57 65 73 68 61 51 46 51 56 60 53 32 25 37 75 96 95
95 98 99 96 98 98 99 89 96 76 99 100 100 74 66 19 36 39 29 44 97 96 87 93 100 84 75 78 73 61 53 52 54 57 63 60 46 26 30 53 88 100 89 90
98 99 94 98 98 98 99 81 63 67 51 80 90 88 90 99 92 95 88 87 95 91 85 93 85 75 69 63 63 65 65 63 61 62 52 36 32 45 71 98 99 92 96 76
93 100 79 100 99 99 98 95 89 82 62 72 90 99 99 92 79 95 85 84 84 78 84 77 73 75 79 77 71 67 66 65 62 57 48 52 64 83 100 97 98 90 64 86
82 90 88 86 84 74 92 95 96 98 97 100 96 97 88 100 91 77 73 74 81 87 94 96 98 98 87 75 71 74 73 74 71 68 63 74 99 97 98 99 71 87 86 62
70 71 64 71 78 86 76 70 82 78 87 95 98 98 99 99 98 86 93 95 88 94 98 96 90 81 78 75 75 82 91 82 64 74 100 98 98 98 83 85 90 63 66 73
57 65 62 64 74 81 77 73 66 70 67 65 76 88 95 98 77 88 98 96 96 86 75 69 70 76 81 90 98 81 64 87 95 93 97 96 85 85 83 61 65 74 73 72
60 48 52 67 70 81 78 94 94 83 87 79 73 68 66 68 73 91 98 97 91 85 79 85 88 92 79 71 85 92 92 97 100 92 75 68 69 57 64 79 70 74 66 52
68 55 49 72 82 86 79 79 90 94 96 94 95 90 87 85 99 100 100 100 94 90 87 84 84 89 96 94 94 98 92 61 40 51 70 62 63 83 67 72 76 62 56 54
67 58 46 69 80 79 83 91 98 100 100 98 98 98 98 99 100 100 100 100 99 99 100 98 98 96 95 81 48 29 32 51 72 67 62 84 74 64 76 73 62 63 56 50
43 47 65 87 88 91 86 94 94 99 100 100 100 98 98 99 100 100 100 99 98 97 98 94 67 32 27 29 33 48 68 70 58 83 86 62 70 79 72 67 69 57 52 36

GFSCGP_500_rhum_033.txt.gz
RH
11 10 11 12 11 11 11 12 13 18 17 17 15 13 12 15 15 16 18 14 12 12 16 16 20 18 12 14 19 58 55 48 37 33 37 17 22 43 67 72 78 79 83 91
12 12 12 12 13 13 15 17 17 18 19 18 18 15 15 15 16 17 20 20 15 13 18 16 18 18 14 12 15 39 58 50 44 34 36 22 23 48 69 76 83 77 81 81
16 15 17 18 19 19 19 19 19 19 21 20 20 15 17 18 18 18 22 24 21 15 19 18 17 19 18 13 16 29 53 55 44 37 32 38 24 44 66 70 72 74 74 75
18 19 19 18 17 21 19 22 25 24 23 21 25 15 15 19 24 22 26 32 31 30 25 24 21 19 20 18 18 21 44 58 47 42 31 42 37 31 41 45 43 56 64 72
19 20 21 22 25 26 27 29 29 28 26 24 23 26 11 16 24 36 32 40 40 37 34 31 27 26 23 21 18 20 32 57 50 46 34 43 42 34 51 43 39 43 51 50
32 30 28 28 32 33 35 37 41 46 53 39 32 36 16 20 26 39 48 40 42 37 34 33 32 29 27 23 20 20 26 52 57 49 36 39 47 39 31 29 35 41 46 52
34 31 32 37 40 37 30 18 15 16 18 26 43 52 22 23 30 38 46 55 42 41 35 26 24 28 29 25 23 23 26 51 57 48 39 35 38 41 37 26 25 33 34 36
31 35 39 31 22 16 15 17 20 23 18 16 22 18 18 28 35 46 47 51 54 42 35 28 27 25 29 26 24 24 32 60 58 55 46 37 33 37 36 28 30 27 32 38
34 40 26 15 16 24 31 48 54 40 34 32 25 16 14 21 35 42 57 55 62 53 38 35 34 34 29 26 24 25 43 61 59 58 51 44 37 43 44 30 21 22 25 26
44 22 19 23 30 41 49 50 65 82 83 80 58 40 25 42 51 40 37 48 50 59 50 42 37 30 27 25 24 28 35 48 55 58 54 48 49 53 52 44 26 17 18 24
16 17 23 29 45 56 59 66 84 95 84 97 90 52 60 50 60 55 50 36 50 53 51 46 37 30 25 26 25 28 29 41 58 59 58 54 59 54 55 54 37 26 28 40
14 20 39 56 61 70 72 99 100 100 96 98 83 36 70 79 76 60 58 44 55 52 55 46 39 33 25 25 24 28 48 59 61 57 57 56 56 55 65 44 28 34 46 52
23 44 45 47 68 71 78 99 99 100 100 91 100 38 98 99 87 46 50 66 62 57 55 42 33 29 24 24 28 43 69 70 62 57 58 56 59 75 60 30 40 47 50 52
53 59 54 67 88 98 96 90 100 100 99 97 86 92 91 88 73 44 57 70 67 61 46 36 30 25 27 28 38 58 65 73 62 60 60 58 74 80 36 45 50 49 61 58
61 75 68 99 94 99 99 99 100 100 100 90 98 90 76 26 31 51 70 79 64 58 52 30 24 32 31 33 37 54 65 68 66 66 59 69 86 42 48 50 58 68 59 35
73 83 91 99 97 98 99 99 72 76 92 76 20 25 22 29 52 97 74 40 46 67 73 59 51 38 33 38 52 75 72 72 69 61 82 61 50 53 56 74 72 49 32 50
87 93 96 97 97 100 100 72 61 71 49 60 25 31 49 79 53 58 31 54 67 94 81 72 64 62 47 55 77 74 69 71 76 71 60 56 59 77 82 63 30 36 64 84
91 96 93 94 98 96 100 99 70 83 46 16 23 35 54 48 32 20 24 69 93 98 75 75 80 75 69 75 79 78 82 77 68 60 64 80 87 70 41 36 56 70 91 96
94 98 94 93 96 98 99 99 80 84 97 93 96 30 20 25 22 15 27 49 80 98 90 94 98 90 98 100 91 77 69 65 68 77 82 68 48 51 66 71 86 98 92 90
83 85 83 74 65 69 84 99 98 95 93 100 99 99 95 99 99 77 86 86 97 98 97 98 98 97 96 96 96 93 84 78 82 76 70 74 76 70 82 96 93 95 84 80
75 76 72 67 70 76 73 88 76 96 98 98 94 92 90 90 94 97 97 97 94 91 94 97 95 92 96 98 96 87 82 85 90 92 89 71 84 93 95 97 82 74 61 73
62 66 56 54 67 77 75 73 79 67 68 89 97 100 98 98 99 98 99 99 98 98 98 96 90 90 87 83 78 79 84 96 86 77 90 93 97 96 70 68 63 69 80 68
53 45 44 58 70 68 66 73 74 72 69 74 83 93 100 100 96 100 96 95 88 86 84 81 81 78 78 86 94 86 82 90 96 99 99 73 49 66 68 66 81 72 66 74
55 52 52 49 77 80 78 84 81 79 80 80 77 76 86 95 97 94 94 95 90 87 90 93 95 92 85 90 97 99 98 98 76 38 40 65 69 64 79 81 62 70 74 72
46 54 55 56 76 83 90 99 99 98 90 85 89 85 81 75 73 74 74 79 85 92 97 96 95 96 98 99 95 64 34 31 38 51 65 62 72 84 66 66 79 78 78 74
31 40 50 64 82 89 98 98 98 96 98 99 96 92 91 91 92 88 88 92 95 97 97 98 97 84 49 33 32 30 30 37 52 58 69 86 76 62 74 83 82 79 65 46

GFSCGP_500_rhum_036.txt.gz
RH
12 10 12 13 12 11 10 9 8 9 10 11 11 6 10 14 15 14 13 13 16 19 20 14 11 20 21 16 15 14 26 71 65 54 47 40 29 35 45 42 38 46 81 92
12 13 13 12 13 12 11 10 10 9 10 8 7 5 9 11 14 17 16 14 15 19 24 20 14 14 25 21 17 14 16 32 69 64 52 45 35 40 54 51 60 66 81 87
14 14 14 14 13 13 14 12 14 13 13 12 11 6 12 12 14 16 19 17 18 20 30 28 21 15 24 22 17 15 14 20 33 62 61 52 45 36 37 29 47 70 75 84
17 17 16 16 16 17 16 17 16 16 15 15 15 12 12 12 12 13 20 24 21 24 29 34 26 18 21 20 18 18 15 17 22 36 62 58 49 40 44 45 37 56 78 75
18 19 19 18 19 17 18 17 20 23 24 23 20 22 10 12 14 18 21 24 32 30 28 39 34 22 22 21 17 20 18 17 18 23 60 61 50 43 35 55 70 65 60 53
20 22 29 32 32 32 30 28 28 28 30 25 23 24 10 18 19 21 23 25 42 39 36 31 41 29 25 22 20 18 20 18 17 20 37 65 56 48 42 55 65 53 59 47
42 39 36 33 31 28 29 34 31 26 20 19 18 19 14 15 16 19 28 33 34 51 43 32 43 38 32 26 23 22 21 20 18 20 26 64 64 50 61 62 63 56 35 31
30 31 31 37 35 39 36 25 20 19 17 23 26 17 21 24 21 20 14 29 48 48 57 45 38 44 36 32 28 29 27 22 19 21 24 59 63 52 41 48 60 48 35 30
28 31 36 44 39 25 20 19 22 26 35 36 31 24 21 37 35 44 41 27 36 61 57 57 39 44 40 32 29 32 29 25 20 20 23 56 64 57 53 50 58 54 41 50
28 34 48 36 19 20 18 23 39 63 54 51 39 34 35 57 58 52 60 74 37 48 61 53 53 39 43 34 27 30 29 25 21 21 25 55 66 59 53 61 73 74 58 43
33 38 38 18 23 25 34 51 74 88 98 98 76 54 71 94 58 77 53 49 54 32 54 54 49 43 38 34 30 31 27 24 21 21 25 53 68 63 61 70 84 79 76 72
37 47 18 25 38 46 58 82 98 100 100 96 97 44 100 100 78 69 52 48 58 38 46 53 52 49 39 39 35 31 26 23 22 25 31 57 72 68 64 73 77 75 90 69
46 18 30 53 67 68 73 100 99 100 100 79 100 78 99 100 100 100 55 46 57 44 40 47 54 53 47 42 31 27 26 23 25 27 33 62 75 73 70 68 71 80 97 50
18 51 53 71 73 86 93 95 98 100 96 99 73 34 100 100 97 82 50 38 50 56 47 49 47 53 47 37 30 25 26 25 28 30 44 73 76 75 76 73 72 100 71 49
49 72 78 93 92 100 98 79 94 98 77 86 36 25 44 78 65 33 51 41 43 56 62 55 48 51 46 39 31 26 26 28 33 46 74 81 81 80 78 79 98 83 54 69
78 100 100 95 98 98 95 87 67 70 43 36 36 35 32 36 47 47 42 42 55 68 78 63 54 43 35 30 26 31 31 38 57 75 82 87 91 86 85 100 60 60 71 89
90 95 91 88 96 95 89 78 65 74 19 24 37 56 55 60 78 93 92 84 78 76 76 55 39 30 33 37 40 39 44 50 62 88 93 95 88 100 86 62 68 80 94 75
94 93 85 96 98 99 91 70 69 82 29 34 37 39 48 89 99 97 99 94 85 74 74 71 36 38 50 45 40 42 53 76 91 86 89 98 94 77 75 81 94 82 41 72
96 80 90 86 94 100 95 89 96 98 96 62 34 43 33 52 52 96 100 97 97 100 95 84 79 73 74 72 66 76 90 88 92 98 93 88 91 96 99 75 54 75 83 100
80 77 79 86 94 76 94 100 100 98 98 98 93 80 60 41 25 59 91 97 98 93 91 100 100 99 100 99 94 93 92 90 91 93 98 98 96 81 81 85 83 100 99 98
71 67 66 69 73 76 74 82 76 95 98 98 98 98 98 91 50 36 49 93 98 98 98 100 98 96 99 99 94 92 95 97 97 96 96 98 98 88 83 98 98 98 72 67
64 60 52 58 68 77 78 77 81 73 90 100 100 96 95 99 100 97 97 94 92 87 93 97 97 98 98 98 98 96 94 96 97 100 96 86 84 93 96 86 62 67 69 81
56 51 47 61 74 78 80 78 79 67 56 70 79 98 100 98 98 97 95 96 97 98 97 94 92 89 87 90 91 90 93 91 86 83 88 91 74 46 49 76 68 78 82 69
54 48 49 51 65 73 80 87 86 89 78 74 82 76 82 95 99 98 100 99 94 92 88 84 82 81 80 79 81 82 84 88 85 60 34 34 57 76 66 70 86 74 66 71
52 51 58 57 54 82 82 88 82 88 93 91 91 87 87 92 97 95 91 95 95 95 80 77 77 80 84 88 91 83 49 29 30 36 49 65 63 68 87 82 68 66 73 74
36 33 40 51 53 89 92 94 98 95 98 99 99 91 93 91 90 94 95 97 98 97 94 92 91 85 62 36 31 32 34 36 40 50 59 70 86 83 76 67 70 77 71 57

GFSCGP_500_rhum_039.txt.gz
RH
31 27 31 31 23 21 19 18 15 10 9 8 8 6 6 8 9 11 11 12 13 13 14 14 14 16 15 14 16 20 17 14 15 18 46 59 59 50 43 37 39 55 43 33
26 25 25 21 17 15 13 12 11 12 12 10 11 7 7 9 9 9 11 11 14 16 15 14 14 17 18 16 14 23 22 17 16 16 28 54 44 55 50 48 58 68 86 73
18 18 18 17 15 14 13 12 12 12 12 11 10 5 8 5 5 6 8 11 14 15 16 17 16 15 17 18 16 18 26 19 19 17 16 21 37 64 56 48 45 52 65 76
15 17 16 15 15 14 13 13 14 13 11 10 8 5 5 7 6 8 11 14 14 14 14 15 18 17 16 18 18 16 22 23 21 19 16 17 26 50 62 56 50 62 70 70
16 16 18 18 18 16 16 15 16 16 16 15 14 16 5 12 13 15 14 14 15 16 16 14 14 18 18 20 19 19 16 25 22 17 15 17 17 20 58 66 57 53 50 76
18 19 19 20 19 18 18 20 26 27 24 17 17 21 10 12 14 14 13 13 12 15 19 17 18 17 19 21 22 20 18 21 19 16 17 16 14 19 43 66 62 59 66 66
20 19 20 21 28 33 30 28 24 22 20 15 21 18 9 14 16 13 22 18 16 13 15 20 21 22 22 25 25 22 22 20 18 18 17 18 16 20 24 60 67 64 85 80
25 27 32 40 32 26 23 23 36 26 24 19 19 13 11 16 21 20 32 30 21 17 20 17 22 24 27 34 28 27 25 25 23 21 22 18 19 19 22 48 76 67 64 58
41 42 39 28 28 28 32 29 26 24 20 17 15 16 22 28 30 47 51 41 32 27 28 15 16 29 36 38 34 34 33 29 27 25 23 20 21 20 28 43 71 64 55 61
40 34 27 27 32 40 35 27 22 21 26 29 28 34 59 53 61 64 82 82 67 57 43 22 18 24 41 48 40 45 39 34 31 29 26 24 21 22 33 47 71 65 70 73
28 26 26 35 41 34 24 19 24 32 46 74 60 35 78 96 96 96 96 100 70 44 44 24 24 34 50 51 46 50 43 38 35 32 30 27 23 26 30 58 73 72 78 87
27 20 34 44 29 19 19 24 40 60 93 96 74 38 88 100 94 83 96 99 78 46 45 35 33 74 64 56 50 52 48 35 32 31 31 29 26 23 31 61 79 77 78 97
20 28 46 22 18 24 31 68 90 95 72 65 96 57 97 79 66 67 87 99 88 50 32 28 59 79 68 60 56 51 48 37 31 32 32 30 28 28 42 69 80 90 81 89
26 43 20 21 46 52 76 100 100 91 70 83 54 23 68 37 28 50 100 94 67 53 32 49 73 82 66 60 58 50 42 38 36 33 32 30 29 35 51 69 84 89 85 82
45 24 21 60 76 94 99 99 91 95 82 33 22 32 41 37 32 34 68 74 84 53 50 61 75 80 66 63 57 48 41 38 36 35 33 33 37 41 50 73 90 91 92 97
21 34 68 96 90 98 98 89 86 83 44 19 22 39 66 77 62 44 40 37 60 50 48 55 80 76 65 53 39 36 36 36 37 35 33 37 39 42 65 91 98 94 84 100
31 77 92 98 100 88 90 83 89 85 51 40 23 28 41 83 94 100 89 63 41 38 47 56 77 72 59 51 38 32 33 36 36 37 39 41 46 71 93 99 94 88 100 91
80 82 86 98 94 90 94 100 80 75 83 69 36 52 47 78 98 100 96 93 81 81 72 74 68 59 48 43 38 35 36 46 41 41 43 55 91 98 94 82 100 95 81 95
88 84 96 92 93 92 96 96 81 85 89 95 88 82 32 56 97 99 90 92 82 74 70 59 42 37 40 43 45 46 51 50 48 57 60 84 95 94 98 94 83 95 97 96
96 94 90 79 71 77 80 81 67 76 87 89 94 100 42 67 64 99 95 78 81 83 96 74 42 54 69 64 56 53 55 58 73 98 98 82 83 86 88 94 96 96 96 100
89 89 77 72 78 76 68 65 66 70 80 88 96 90 98 97 80 98 98 98 99 99 99 99 99 99 100 100 99 100 99 93 79 64 79 89 93 97 97 94 96 99 100 88
87 77 54 54 59 76 68 75 80 77 72 73 89 97 96 98 100 96 98 98 95 93 94 92 95 96 93 91 89 89 88 91 95 96 98 98 96 93 98 100 96 66 67 71
72 62 52 55 67 67 65 68 71 80 89 86 80 85 98 99 98 99 97 98 99 96 97 98 98 97 98 97 98 98 98 98 100 100 91 93 100 100 70 52 69 74 68 81
67 60 56 53 53 60 71 69 77 80 92 92 89 85 82 94 98 98 100 100 96 98 96 95 96 95 91 93 95 96 95 98 100 100 94 64 43 51 67 71 67 80 80 71
67 60 60 58 56 54 67 68 79 79 84 98 98 97 90 92 88 88 92 99 99 97 95 97 97 97 99 100 100 100 94 68 42 38 42 47 54 61 70 85 83 75 64 68
63 61 47 41 41 53 70 71 73 80 87 90 94 97 98 96 99 99 99 98 98 99 100 100 100 97 77 52 38 36 38 40 41 42 48 60 74 85 85 76 64 69 69 57

GFSCGP_500_rhum_042.txt.gz
RH
23 22 20 38 24 28 19 17 20 22 15 13 17 11 10 11 9 12 11 9 10 10 14 13 12 12 13 13 13 13 13 16 16 13 14 12 14 12 16 43 55 54 56 63
30 33 38 31 30 32 27 29 29 30 26 17 18 13 11 9 7 7 8 9 10 10 11 14 14 14 14 14 14 13 14 14 14 17 15 15 12 12 12 23 46 59 70 68
34 36 34 30 30 33 28 26 23 20 18 15 12 10 9 7 7 8 9 10 10 11 10 9 9 8 9 12 14 14 14 16 15 15 20 16 13 15 14 16 25 46 65 77
31 33 30 27 26 22 18 17 16 15 14 12 11 8 8 8 8 8 9 10 8 7 6 5 6 6 8 10 14 16 16 15 17 15 18 21 16 16 21 22 23 36 53 74
25 24 22 23 20 17 16 15 15 14 13 11 11 10 6 7 6 6 8 9 9 12 12 12 11 11 11 12 12 14 18 16 18 17 18 23 22 23 28 26 26 28 44 61
18 19 21 19 19 18 18 17 18 15 13 9 10 13 5 7 9 13 13 12 12 12 12 12 12 12 14 14 14 14 15 18 18 18 20 22 27 22 22 18 20 24 29 55
20 22 20 20 19 19 18 19 20 20 16 13 16 12 9 12 13 15 14 15 15 14 12 12 13 11 12 13 18 18 16 18 22 20 25 21 26 23 18 20 20 22 27 47
21 19 20 21 21 21 25 27 31 20 16 14 16 12 12 12 12 12 13 18 23 26 23 18 16 16 15 12 14 26 22 18 25 27 34 28 18 25 20 23 22 24 27 35
22 20 23 31 34 35 31 28 26 23 23 17 16 15 14 25 23 33 42 40 38 57 66 52 41 34 21 16 10 19 28 25 33 36 40 28 21 23 22 25 24 24 31 40
26 27 31 41 40 32 25 25 25 26 24 20 14 14 18 41 64 60 55 47 46 51 52 60 62 50 44 30 19 12 33 35 40 48 40 28 27 26 24 27 27 26 31 46
40 38 42 38 30 24 23 26 31 26 19 29 20 23 58 87 94 96 100 83 72 66 44 46 60 58 55 47 30 11 38 52 50 49 38 35 37 33 29 30 31 29 43 52
51 45 30 27 23 22 27 34 21 22 48 38 54 27 76 41 37 43 57 53 86 74 64 36 48 53 45 31 18 16 45 66 56 52 52 44 41 36 35 33 38 51 48 51
38 30 29 22 22 31 28 21 39 46 54 58 66 42 35 36 43 58 46 46 47 78 96 72 42 61 34 32 23 39 69 73 59 62 52 47 43 40 45 57 39 47 50 60
33 28 21 22 32 23 26 64 75 69 62 80 65 29 27 24 28 48 85 77 53 56 99 88 77 56 42 34 52 83 91 73 68 59 48 46 43 62 66 45 41 49 47 69
26 15 18 37 22 26 53 68 67 83 89 75 63 29 30 34 50 82 91 91 50 46 57 84 86 56 61 49 75 100 93 72 64 55 47 44 44 45 44 48 49 53 70 73
15 35 35 27 38 70 83 82 89 100 100 96 77 74 44 61 69 95 100 93 63 56 57 71 63 63 66 62 100 98 76 64 57 50 46 45 43 53 54 68 60 58 52 93
28 35 26 67 79 75 88 97 98 100 96 90 91 87 54 49 94 99 90 92 53 40 40 46 58 59 75 99 99 96 58 52 48 46 48 46 54 73 62 52 51 57 96 96
42 22 59 90 84 98 100 95 94 88 78 78 90 80 79 45 70 90 81 81 52 40 43 51 56 86 96 97 94 48 46 44 44 56 50 46 49 50 48 45 57 97 97 96
22 58 80 90 98 95 99 94 86 64 76 72 79 73 75 89 99 80 66 76 56 55 62 72 80 92 96 85 41 36 35 37 39 48 56 55 51 45 81 76 92 61 96 100
43 86 90 89 85 84 70 77 79 65 71 65 68 76 82 97 97 69 61 58 69 71 68 67 62 46 46 46 44 43 52 52 55 55 52 54 47 100 99 98 99 99 98 99
64 98 89 73 75 66 66 78 70 68 64 59 64 81 95 90 94 96 87 80 79 64 48 41 38 37 39 57 55 47 55 67 90 82 98 98 99 92 89 98 99 98 96 95
88 91 80 56 59 64 67 64 71 84 86 67 63 87 92 86 81 89 96 96 100 98 93 77 85 93 96 98 97 96 98 97 96 98 98 98 96 89 98 91 91 95 83 65
93 74 60 58 74 66 60 68 76 81 88 87 76 80 89 97 96 86 94 95 88 79 82 87 96 76 76 99 100 95 91 86 84 80 82 87 93 90 92 79 53 63 72 69
90 65 54 61 55 50 54 66 79 85 87 88 86 86 86 96 99 96 97 96 89 88 87 95 96 97 96 96 95 93 95 96 96 94 93 88 62 41 46 58 67 71 83 81
84 66 52 55 59 56 56 62 76 85 82 82 80 87 91 93 89 98 98 99 97 94 92 91 90 91 91 89 91 92 92 91 75 49 40 45 51 56 65 77 85 81 64 64
89 70 56 56 51 42 48 60 76 90 89 91 90 87 97 98 98 96 98 98 98 98 98 98 98 91 77 60 47 40 40 43 46 46 48 54 67 83 87 78 61 64 65 55

GFSCGP_500_rhum_045.txt.gz
RH
19 19 18 27 22 18 13 11 11 15 14 10 10 9 10 10 8 8 9 10 10 10 11 10 10 11 12 13 13 12 13 12 12 13 22 16 13 12 11 11 10 20 31 45
18 18 35 27 19 18 12 13 18 19 14 6 10 9 10 10 9 10 12 12 12 12 12 12 10 10 10 11 11 13 13 13 13 13 14 23 26 32 42 24 23 18 25 31
28 36 33 25 22 31 24 18 21 19 18 16 9 7 12 13 14 14 15 13 11 11 12 12 11 10 11 11 12 13 14 13 12 12 13 15 24 34 46 50 33 30 24 20
30 36 34 37 36 34 27 26 26 26 24 19 15 8 13 15 14 13 11 8 8 9 10 11 11 11 12 11 11 10 10 10 10 11 13 14 13 15 17 33 23 19 30 45
39 36 42 43 38 33 27 25 24 20 17 15 14 10 8 11 11 10 9 9 9 9 9 8 7 7 7 6 6 9 12 13 13 12 13 14 16 16 18 32 48 52 54 54
32 42 41 34 29 25 21 20 18 16 14 12 12 11 8 9 9 8 7 7 8 9 8 10 12 12 12 12 12 11 12 16 16 15 13 13 14 21 22 29 40 55 53 53
32 32 29 24 22 19 18 19 18 15 13 12 10 9 8 11 12 11 10 12 12 12 12 11 11 11 12 11 11 11 11 12 16 16 12 13 13 19 28 32 41 55 50 46
27 26 23 22 22 20 19 21 19 15 13 12 12 9 10 13 14 15 15 15 14 15 16 16 13 16 14 17 16 14 12 10 12 16 13 17 16 20 35 41 44 47 55 50
23 24 24 22 20 21 30 25 24 23 20 15 16 14 14 14 18 23 19 19 27 30 41 43 39 39 34 22 30 25 21 16 10 12 17 16 22 32 50 53 53 52 53 43
24 24 22 23 24 26 30 32 27 23 20 16 13 11 13 48 48 36 33 28 25 29 32 30 26 33 38 47 69 58 38 28 15 8 15 29 31 43 53 59 56 49 36 29
23 22 28 33 32 35 36 28 21 18 19 19 15 14 45 61 56 32 23 24 33 38 44 42 37 36 35 30 28 45 63 41 21 10 18 49 47 53 62 62 48 37 33 31
24 26 38 40 42 34 23 16 14 24 21 19 29 18 70 65 43 26 28 41 39 53 92 75 61 42 42 37 30 33 60 54 29 15 13 50 57 69 69 57 46 38 32 36
38 45 51 41 30 22 15 23 26 23 32 57 42 68 71 45 41 46 48 62 74 100 100 94 59 40 48 56 37 57 62 65 54 39 28 60 76 77 70 58 51 41 39 41
56 50 37 29 24 13 27 26 23 43 61 61 73 52 67 59 54 50 56 99 97 86 87 76 47 39 100 80 67 63 55 44 45 54 61 81 82 74 64 57 50 48 54 60
42 33 29 25 12 20 26 38 73 75 76 58 68 72 52 63 55 57 64 98 85 97 56 36 41 59 74 87 82 69 53 41 93 62 91 86 77 66 56 51 55 70 80 68
33 29 20 13 34 28 54 71 83 78 72 76 75 65 57 68 74 66 35 72 85 52 45 46 74 71 68 50 43 43 56 88 75 90 91 81 60 52 49 59 80 96 55 52
26 13 31 41 28 76 94 95 90 85 79 86 69 66 62 62 69 58 32 37 39 37 38 33 40 43 50 44 57 57 84 88 92 93 80 63 52 48 50 96 98 66 99 100
12 18 42 27 86 100 99 88 92 90 79 76 61 62 55 47 51 36 40 42 37 40 45 47 53 67 88 93 89 95 98 92 84 69 61 55 51 57 73 58 69 97 78 60
22 44 26 78 100 99 98 90 86 72 63 60 63 68 58 61 54 50 49 58 64 62 70 83 96 97 94 96 99 93 76 59 54 52 58 97 61 51 73 97 99 54 83 99
46 31 83 100 97 91 85 78 69 63 57 53 72 69 67 72 72 72 82 50 61 74 83 73 94 96 74 55 61 62 58 53 53 56 95 75 81 100 98 68 54 86 99 93
29 61 99 98 92 72 69 67 74 74 61 53 56 90 68 79 90 92 86 89 65 49 46 52 53 53 56 60 60 61 85 81 73 97 85 97 97 87 99 99 98 98 96 97
42 80 92 93 66 62 67 77 76 80 73 61 64 69 87 79 90 89 81 73 91 87 58 79 96 95 96 97 84 76 96 96 90 99 97 96 93 95 97 99 100 98 94 76
65 85 92 72 62 73 72 80 74 87 83 75 77 77 91 100 83 86 85 76 77 78 90 99 99 99 99 98 98 99 98 98 99 98 99 100 100 100 99 84 67 44 43 54
78 87 85 62 78 62 60 62 83 92 84 94 91 82 79 97 96 91 94 94 88 84 91 90 88 91 95 97 96 91 94 97 96 93 86 82 79 54 35 37 39 42 51 69
81 91 76 57 60 64 53 58 79 92 88 92 95 93 88 87 92 96 95 98 100 93 89 90 93 85 84 82 80 79 79 73 56 44 37 37 39 40 42 49 68 78 68 59
78 92 75 60 55 54 39 42 58 94 96 94 94 91 92 96 96 98 96 94 90 89 91 91 89 81 65 57 53 49 40 38 40 40 41 49 69 83 85 76 58 59 67 64

GFSCGP_500_rhum_048.txt.gz
RH
34 44 55 39 39 30 18 14 13 12 10 8 7 5 7 12 8 10 12 10 10 10 11 10 9 9 10 10 10 11 10 8 12 36 39 37 44 48 44 23 24 24 16 18
44 24 28 100 98 71 21 12 13 13 10 8 8 6 8 10 9 10 11 11 11 11 13 12 10 10 10 11 12 12 11 10 8 14 28 24 20 31 37 48 54 68 52 42
58 37 36 35 42 30 22 17 16 14 11 9 8 7 9 11 10 11 12 11 10 11 13 16 15 14 12 11 11 12 12 11 11 11 12 30 36 33 34 45 48 62 76 80
70 38 30 26 23 22 18 17 18 16 14 10 11 9 11 10 12 13 16 14 17 16 16 15 14 14 14 15 15 14 13 12 11 11 11 12 12 16 15 16 22 36 41 47
43 29 34 34 34 30 28 26 28 25 18 13 14 11 11 14 14 15 16 16 15 14 13 11 10 10 11 11 11 12 13 14 13 11 10 8 7 6 9 15 27 36 55 68
33 38 36 40 36 36 38 39 32 26 23 16 16 12 11 12 12 12 12 12 12 11 11 10 10 10 9 9 8 8 8 8 8 8 7 5 5 5 7 12 18 31 38 58
46 44 41 41 39 37 35 30 24 20 17 14 14 12 13 13 13 12 10 10 9 9 9 9 9 8 9 9 10 10 11 12 13 13 12 10 7 8 10 13 15 18 29 45
53 42 41 37 33 29 25 20 18 16 15 14 13 10 15 17 20 17 14 12 10 10 11 10 9 10 10 10 12 11 12 12 13 13 13 12 12 11 12 13 19 20 28 48
37 36 32 28 25 24 23 20 19 20 16 13 14 14 19 18 16 13 12 11 12 12 14 23 30 28 27 26 27 38 39 21 15 15 14 12 11 10 11 13 20 28 37 55
33 32 27 24 25 22 20 26 28 28 22 18 17 15 19 22 21 21 22 30 35 29 25 26 24 20 28 25 26 26 36 52 46 22 15 13 11 11 14 18 33 33 61 63
29 28 26 24 22 23 28 31 32 29 23 18 15 16 24 31 36 39 44 37 32 40 45 46 42 43 47 52 60 48 36 37 39 51 36 16 15 11 16 57 46 62 72 79
28 26 27 25 27 31 36 35 25 19 18 17 15 50 53 41 43 41 36 41 54 50 53 61 76 91 93 85 82 74 52 47 42 31 57 45 26 23 55 45 58 68 70 74
27 26 30 32 37 42 33 23 17 17 20 26 33 58 56 44 54 55 51 61 59 50 37 90 71 78 80 93 100 72 50 41 40 30 37 58 34 35 59 59 70 78 74 73
27 34 42 41 39 31 23 15 20 22 28 47 82 57 70 59 47 41 49 40 30 21 27 66 54 39 37 48 54 65 50 82 38 36 38 61 62 48 53 67 71 70 71 71
47 54 52 45 30 25 14 23 25 41 72 61 68 58 46 40 32 42 35 23 20 24 25 25 32 61 56 40 58 59 61 65 65 78 74 87 89 60 46 56 67 68 71 64
62 49 39 27 25 13 33 28 57 76 70 66 62 55 50 39 34 34 21 26 27 34 36 30 30 48 75 84 88 88 90 93 87 79 86 95 78 49 39 64 72 73 63 55
42 32 29 23 21 31 35 75 84 78 76 77 65 54 50 51 44 30 33 39 36 48 54 53 51 38 35 37 42 42 52 71 89 100 99 85 60 66 76 75 71 56 55 67
35 31 21 16 33 43 82 87 90 91 79 66 56 57 57 62 52 43 70 40 46 65 71 74 75 86 73 55 44 65 92 99 100 99 100 95 92 90 85 65 58 88 95 98
19 13 20 37 33 87 87 100 96 76 61 61 58 77 68 62 54 58 66 52 52 55 66 77 86 89 82 89 98 99 100 100 100 100 98 96 91 94 69 88 96 97 90 80
12 20 39 32 82 94 99 84 79 73 67 60 54 52 72 72 58 69 68 68 73 43 42 52 81 71 79 88 94 94 97 96 95 90 86 82 99 98 99 78 70 91 95 80
27 45 58 90 96 97 93 79 86 74 70 63 70 60 68 79 72 59 62 64 66 57 46 70 98 80 69 68 87 100 76 71 91 100 99 99 89 82 93 100 99 97 99 97
50 34 85 97 100 92 75 81 82 74 80 69 68 67 64 87 86 80 64 73 72 75 82 91 91 83 94 75 94 98 96 97 98 97 96 95 97 99 95 87 94 96 94 95
47 53 96 100 86 70 83 80 81 87 85 84 76 78 82 78 78 76 85 85 86 84 86 80 74 77 93 97 96 89 83 91 95 98 98 89 89 90 94 94 95 78 48 43
44 66 100 100 70 84 74 74 79 80 83 85 82 86 87 91 82 75 84 88 100 99 98 93 87 96 100 90 87 95 98 96 92 89 90 90 86 75 56 42 42 47 62 74
46 80 100 96 73 60 66 59 52 72 82 89 92 93 91 87 99 88 85 91 96 98 97 96 95 94 91 88 83 76 67 58 47 42 43 44 44 44 49 59 66 63 52 51
46 87 100 90 61 54 59 44 41 43 68 90 98 92 99 93 88 94 92 87 88 94 94 92 85 65 63 62 52 45 43 42 40 40 44 50 56 61 63 58 52 55 59 60

GFSCGP_500_rhum_051.txt.gz
RH
96 93 72 39 32 26 22 19 16 15 12 11 11 10 10 11 10 8 7 8 9 11 13 11 10 10 10 9 8 9 8 7 8 8 12 42 58 64 62 63 54 53 34 42
98 93 94 95 74 28 23 20 19 19 16 12 10 8 9 8 7 7 7 8 11 12 13 11 9 9 9 10 9 9 9 9 9 10 11 11 28 52 50 53 52 52 62 67
100 88 69 99 98 96 44 22 21 22 18 14 12 10 10 10 8 7 7 7 9 13 14 12 10 9 9 11 11 11 10 10 10 9 10 12 12 20 43 38 45 53 57 65
96 80 52 43 67 94 90 86 58 30 16 11 11 9 12 10 10 9 9 10 8 8 11 12 12 11 11 11 13 13 14 13 12 11 9 10 12 12 16 35 56 55 40 38
68 95 83 37 28 65 64 32 23 20 16 13 12 10 15 15 15 13 13 11 12 12 13 14 12 13 14 15 14 14 14 14 14 14 11 10 10 11 12 14 15 16 22 22
48 86 79 59 39 28 25 24 22 20 18 13 16 13 18 15 15 14 15 14 14 13 14 14 15 15 15 14 13 12 12 12 13 13 12 10 10 9 8 12 12 29 20 28
45 83 71 36 29 31 39 36 28 25 21 18 20 17 18 16 14 14 13 13 13 12 11 11 11 11 11 11 11 11 10 10 11 11 11 10 10 9 8 8 9 16 23 17
51 70 44 38 41 46 44 40 33 27 23 19 17 16 17 18 17 14 12 11 11 10 10 10 10 10 10 10 11 10 10 10 10 10 10 10 9 8 7 6 6 9 11 21
41 43 45 50 49 46 39 33 26 20 18 16 16 18 22 19 19 16 13 11 10 10 10 11 10 10 10 10 10 11 18 22 22 17 14 13 11 11 11 11 12 11 12 17
45 50 49 47 40 32 26 23 21 20 18 17 19 23 21 17 16 14 13 11 11 18 22 19 20 24 29 29 30 29 25 27 35 47 54 40 24 15 13 14 14 13 12 23
42 44 38 33 27 25 24 24 26 28 25 23 20 23 19 16 14 13 18 28 30 27 26 27 30 34 35 38 34 41 51 57 50 38 37 37 53 48 24 17 14 12 12 15
37 36 30 27 26 25 28 32 34 32 26 21 20 26 20 18 19 29 32 29 39 28 28 30 26 20 24 25 20 23 41 90 81 65 59 48 36 50 47 22 14 11 10 14
33 29 28 26 28 34 40 38 34 26 20 19 19 34 37 30 37 39 35 36 30 25 18 17 18 26 31 17 26 67 74 96 100 100 93 66 46 42 55 42 21 16 13 32
29 28 27 33 39 40 38 34 26 19 16 19 38 58 51 50 50 48 38 29 20 19 21 25 34 40 19 22 37 50 38 54 92 100 93 66 53 55 51 70 66 33 28 62
28 28 32 40 44 40 31 26 21 17 22 48 76 64 58 51 42 40 29 18 22 28 34 40 40 43 16 22 50 57 41 51 96 100 87 68 51 48 40 76 86 50 55 70
29 39 49 52 45 31 27 19 19 27 45 80 74 67 51 50 43 42 30 46 34 40 51 40 40 40 16 31 39 80 79 60 63 74 87 84 82 72 60 79 92 66 49 55
59 57 53 44 33 28 22 30 39 68 81 70 62 55 52 57 51 45 49 49 40 47 43 45 48 42 25 20 30 48 92 86 72 61 62 66 55 52 54 61 78 55 29 55
66 61 44 32 25 20 29 63 84 84 82 61 44 43 68 61 54 56 53 46 55 47 40 51 54 50 56 58 36 59 99 97 100 93 100 100 94 99 94 77 49 37 71 95
41 35 34 31 18 26 61 91 95 85 62 52 49 45 57 58 58 61 48 53 44 40 45 48 60 64 69 76 86 77 72 85 100 100 100 100 100 83 91 91 91 99 89 89
45 37 25 16 34 50 88 94 84 73 76 71 66 56 55 73 64 64 49 51 53 58 61 60 54 64 66 78 97 99 100 95 89 85 88 91 96 96 99 100 100 97 94 98
18 14 16 34 45 86 98 94 84 87 80 70 59 62 57 68 79 75 63 60 58 58 68 78 67 72 61 78 65 68 89 95 97 96 96 95 94 98 97 96 98 99 100 100
24 25 45 56 89 94 94 80 80 88 76 69 65 63 61 64 77 74 63 74 70 57 65 69 76 69 76 87 78 74 84 95 96 98 95 99 99 98 99 99 98 97 92 93
46 42 43 86 95 96 82 70 80 84 75 78 73 64 66 70 80 78 71 74 83 86 76 82 82 81 82 81 84 82 79 87 80 92 95 95 89 88 89 92 96 91 67 50
57 49 46 86 99 86 81 78 74 78 81 80 76 79 78 76 74 87 79 75 80 88 88 86 84 83 84 94 89 80 83 89 95 94 86 73 61 52 46 46 55 72 81 76
64 52 53 97 98 84 78 63 60 64 75 78 80 82 79 80 85 81 90 85 82 83 89 89 88 82 78 70 60 49 44 42 42 42 44 47 54 64 73 76 69 58 52 54
64 54 44 83 92 82 68 57 45 43 45 53 80 85 90 84 86 87 86 84 87 88 95 90 80 76 67 54 45 40 40 43 47 49 52 59 63 62 59 53 51 57 61 59

GFSCGP_500_rhum_054.txt.gz
RH
100 95 61 33 30 26 25 23 21 18 16 17 17 11 13 15 15 15 14 14 13 11 10 8 6 7 11 9 8 9 9 9 9 9 11 10 8 13 27 36 57 70 69 70
95 75 73 56 37 31 26 23 22 21 18 14 14 13 15 15 14 14 14 13 12 10 9 8 6 6 10 10 8 8 9 9 9 9 9 8 9 9 11 25 48 70 84 84
99 99 99 100 57 37 31 28 26 24 20 16 14 11 12 12 11 10 9 9 9 8 7 7 6 6 8 9 10 9 9 9 9 9 10 9 9 9 10 14 18 36 50 72
95 96 99 100 99 89 73 37 29 25 22 18 16 12 16 15 13 10 9 8 7 6 6 6 6 6 7 10 11 10 9 10 11 11 10 12 12 12 14 15 16 16 20 53
88 94 97 90 100 100 97 100 64 44 26 18 16 14 18 14 12 11 10 9 8 8 8 7 8 8 7 7 9 11 10 10 11 13 12 11 12 13 14 16 17 19 22 23
97 98 99 90 84 92 97 100 99 84 56 29 21 15 16 14 13 13 14 13 12 11 10 10 10 9 10 11 12 12 13 14 13 13 13 12 12 12 12 15 15 16 19 18
75 87 93 81 55 44 38 57 58 27 19 17 20 18 18 18 17 16 16 14 13 12 11 11 11 11 11 11 11 11 12 12 13 13 13 13 12 12 11 11 13 13 15 24
56 58 76 88 70 48 40 30 25 24 22 23 26 24 22 19 17 16 15 14 13 12 11 11 11 10 10 10 10 10 10 10 10 11 11 11 11 11 10 10 10 10 12 13
70 57 94 90 54 45 38 30 33 32 30 29 23 21 20 20 17 14 13 11 11 10 9 9 9 9 10 10 11 12 13 14 15 14 15 14 14 13 12 10 10 9 9 9
81 74 84 67 45 40 43 45 37 32 27 23 22 22 22 18 15 12 10 11 12 11 10 10 11 13 18 24 28 28 28 29 30 33 33 35 36 28 18 16 14 12 12 11
57 59 62 59 56 58 51 41 32 25 21 23 28 26 22 18 14 14 13 13 13 15 22 24 25 21 18 18 19 20 20 22 25 28 33 49 35 35 38 40 32 19 17 16
53 53 52 54 49 39 32 27 25 29 28 28 28 23 19 16 15 14 15 19 22 24 26 21 23 18 19 20 25 30 28 16 11 11 12 20 57 49 43 43 37 43 46 35
46 47 43 39 32 29 30 32 32 29 30 28 22 20 18 15 21 23 27 31 28 21 18 18 21 27 29 27 34 19 14 17 19 25 30 34 56 95 90 46 40 31 31 51
40 38 35 30 30 31 33 34 37 34 27 21 19 20 16 30 45 42 32 29 26 25 21 22 30 28 28 31 25 16 25 32 54 51 35 41 48 83 100 87 67 52 51 42
35 32 29 29 32 37 38 37 35 28 22 19 22 42 56 63 54 48 42 34 37 31 27 30 29 31 30 30 20 18 23 48 67 46 46 98 100 100 99 99 97 79 63 72
30 29 29 32 39 44 42 34 28 21 16 31 63 76 68 58 49 47 43 43 37 28 32 27 36 30 27 32 26 20 32 59 38 46 70 100 100 100 99 100 97 77 66 77
26 28 34 43 48 48 38 30 23 22 30 68 80 70 72 56 57 48 52 45 36 33 30 40 40 33 33 36 42 26 38 66 67 66 74 86 94 100 98 92 81 79 64 64
35 41 48 53 48 39 31 28 31 53 86 87 76 55 42 51 62 52 48 46 46 34 43 44 44 42 50 44 45 51 42 60 82 98 98 100 92 81 84 82 100 68 75 82
65 64 61 53 42 32 22 31 74 87 92 79 51 42 39 41 53 59 54 48 51 46 50 44 40 55 55 61 54 56 69 67 71 84 95 98 100 100 100 100 100 97 90 83
66 58 49 39 34 21 24 76 96 94 77 54 49 53 53 54 50 54 59 59 50 47 49 46 44 56 52 58 64 69 77 87 88 92 92 91 91 74 79 80 78 76 99 99
53 47 44 38 23 23 50 91 96 84 68 59 67 61 67 53 51 63 67 63 59 58 56 58 53 61 57 53 51 64 72 71 84 97 98 100 100 100 98 96 100 99 98 98
41 32 19 13 20 38 79 92 94 83 67 67 67 71 66 62 64 69 64 62 62 68 64 62 59 60 69 67 61 66 80 72 81 94 100 99 95 96 95 98 98 98 98 97
34 25 25 32 44 68 99 96 86 73 77 74 69 75 72 71 74 65 67 71 72 74 76 70 67 75 79 84 73 73 80 86 93 91 82 81 80 82 84 80 69 54 51 54
35 31 32 43 56 96 95 89 71 74 72 66 74 78 80 74 72 77 74 75 80 83 80 77 76 78 76 73 68 56 47 41 41 41 42 44 48 53 59 66 70 70 64 57
54 45 47 48 67 92 93 75 81 67 69 73 78 79 75 79 78 78 87 86 80 83 86 84 78 77 72 63 49 41 38 41 42 44 48 53 57 58 59 58 56 54 55 60
72 60 51 50 52 96 91 91 67 53 45 49 59 68 68 78 85 85 84 92 91 89 93 94 88 73 54 46 40 44 46 47 54 60 61 62 61 58 55 54 56 61 64 62

GFSCGP_500_rhum_057.txt.gz
RH
96 87 71 73 57 42 29 28 26 23 19 18 17 11 12 14 16 16 17 17 17 16 13 10 9 8 8 7 6 5 9 9 9 9 10 10 12 38 38 39 28 34 49 50
99 88 94 77 45 36 32 29 27 25 21 16 15 14 19 19 18 15 15 15 15 15 15 13 11 9 8 8 8 5 5 10 10 10 10 11 11 10 25 28 27 26 35 45
100 84 88 80 55 38 32 29 27 26 23 20 16 14 16 18 18 16 14 14 14 14 15 14 12 10 9 8 7 6 7 9 10 10 10 10 11 11 12 13 16 24 24 34
99 100 100 98 75 47 34 30 28 26 24 21 18 16 17 14 13 14 14 13 13 12 11 10 9 8 8 6 6 5 6 7 9 10 9 9 9 10 12 12 15 14 12 14
99 99 99 97 97 97 58 38 32 29 25 23 20 17 19 16 13 12 12 11 10 9 9 8 8 7 6 6 5 5 6 6 6 7 8 10 10 10 11 13 13 13 14 16
100 100 99 100 100 100 100 79 45 31 26 21 22 20 22 17 16 15 13 12 10 10 9 9 9 8 8 8 9 9 8 8 8 9 9 10 11 13 14 15 16 15 14 15
100 98 96 96 95 100 100 100 98 76 51 36 38 32 26 19 16 14 12 11 10 10 11 11 12 12 12 11 11 11 10 10 10 10 10 10 11 12 13 14 15 16 20 21
100 99 100 93 96 96 96 96 94 92 83 49 31 27 23 19 17 14 12 12 12 13 14 14 14 13 12 11 10 10 9 9 9 9 9 10 10 9 9 10 11 12 13 15
94 82 91 100 96 92 89 61 42 43 41 26 27 25 26 23 18 16 14 16 16 15 14 13 11 10 9 8 8 9 10 11 11 12 12 14 15 15 15 15 14 12 12 13
83 59 61 87 90 90 81 63 43 34 32 34 31 28 23 21 19 18 17 15 14 12 10 9 9 10 11 12 12 13 15 19 21 23 25 30 37 38 36 33 30 24 18 16
75 68 68 92 83 58 57 51 45 44 39 36 26 24 21 19 18 16 15 13 11 11 11 12 11 14 18 17 16 17 17 18 21 27 34 31 23 20 29 36 42 44 38 34
94 92 91 93 72 55 51 49 46 39 29 26 26 24 21 18 16 16 15 14 14 13 13 16 17 17 15 14 16 18 24 25 24 18 14 14 24 32 24 15 20 54 57 46
83 68 87 71 63 63 54 45 35 29 29 35 31 23 20 17 17 15 15 14 16 21 25 21 20 19 20 21 23 22 21 20 16 12 27 24 26 48 55 58 37 22 27 78
75 59 63 58 44 38 33 28 27 31 39 34 27 23 20 17 16 16 26 33 34 26 22 21 20 21 24 24 21 21 19 13 10 14 23 23 28 40 38 32 37 40 52 67
53 46 42 36 33 31 31 36 40 41 36 28 22 17 15 15 26 44 41 36 31 28 27 23 23 25 28 22 20 20 16 10 13 21 23 44 57 64 65 75 64 86 100 100
40 35 31 32 34 38 42 42 41 34 28 22 16 15 28 46 60 50 48 42 34 36 34 28 29 34 28 24 23 22 24 20 18 25 42 62 56 76 98 99 100 100 100 100
33 31 30 33 39 47 45 43 36 30 23 17 21 47 70 71 63 52 51 49 50 42 37 39 40 32 33 39 30 31 35 32 32 41 46 57 78 76 82 95 100 100 100 100
29 28 33 42 50 50 43 37 33 27 23 33 65 80 72 59 50 52 55 47 44 45 41 42 36 36 38 37 38 44 37 36 42 48 53 64 64 85 98 96 96 100 96 100
31 36 46 48 54 47 41 32 23 23 42 77 90 80 52 41 40 53 54 55 53 51 50 46 36 37 37 38 41 36 44 39 45 60 62 70 70 86 92 100 99 100 93 100
57 54 52 57 56 50 40 29 21 35 86 96 80 56 50 40 39 37 42 48 60 58 52 46 46 50 50 44 40 44 50 58 50 61 60 72 84 86 90 98 100 96 95 100
64 59 58 52 49 41 32 24 25 80 89 87 65 59 53 53 51 53 56 54 57 59 54 55 49 52 56 53 55 47 59 61 65 66 73 79 88 98 99 100 100 100 100 97
73 68 60 52 46 36 29 25 66 94 91 76 70 64 62 65 64 66 60 57 57 58 58 65 58 57 57 65 62 56 56 64 71 65 65 68 79 90 96 93 95 90 84 76
50 49 45 42 28 21 21 50 93 99 97 76 76 69 67 79 77 67 69 66 66 65 69 72 68 63 60 71 69 60 61 62 54 42 39 40 44 46 48 50 53 58 61 62
43 46 41 26 24 34 54 85 100 97 78 77 74 72 77 85 91 89 71 77 75 75 69 73 78 78 77 72 59 47 41 39 38 41 46 51 56 58 58 57 55 54 54 55
74 59 46 34 29 40 58 92 98 92 75 75 72 72 79 83 88 83 83 84 82 83 81 79 82 79 74 63 48 39 39 42 48 56 60 61 63 62 58 56 59 59 59 64
95 86 64 59 43 46 65 96 97 81 74 71 65 69 76 79 79 86 80 92 90 85 91 82 86 86 59 50 51 58 58 61 66 67 66 68 70 70 68 66 67 67 67 68

GFSCGP_500_rhum_060.txt.gz
RH
99 100 93 55 50 40 33 31 28 26 25 24 19 17 18 18 16 16 14 11 8 8 11 11 11 11 11 12 10 10 9 10 8 8 10 13 12 15 15 14 12 16 48 48
98 95 100 98 67 51 37 32 30 29 25 29 23 17 17 17 17 17 18 17 13 10 10 10 11 10 10 10 9 9 9 10 9 6 6 10 12 12 12 11 11 12 14 34
95 100 99 100 83 64 41 32 30 30 28 25 30 22 17 17 17 16 15 16 16 14 13 12 11 10 10 10 10 9 9 9 8 7 5 6 11 12 12 11 11 12 13 13
99 100 99 93 95 61 47 38 32 29 28 26 23 21 18 16 16 16 16 14 14 14 14 13 12 12 11 10 10 10 9 9 7 6 6 6 8 10 12 12 12 11 11 11
100 100 100 100 91 69 48 38 35 32 29 26 23 22 20 18 15 14 14 15 14 14 13 13 12 12 11 10 9 8 7 6 5 5 5 5 5 6 8 10 12 14 14 14
100 99 99 99 99 84 63 41 35 31 37 29 25 23 21 20 17 15 13 12 12 12 11 11 10 10 9 8 8 8 8 7 7 7 7 8 8 8 8 10 10 13 17 22
100 100 100 99 100 100 92 54 38 33 36 42 31 25 22 20 18 16 14 12 11 11 10 10 9 9 9 9 9 10 11 11 12 11 11 10 10 9 9 10 11 12 14 17
100 96 100 99 99 99 100 89 51 40 36 39 34 26 24 22 19 17 15 13 12 12 11 11 10 11 11 12 13 13 14 14 12 10 8 8 8 8 9 9 10 10 11 13
100 98 99 97 98 100 100 100 96 92 85 81 69 50 40 33 28 23 16 13 12 12 12 12 13 14 14 15 14 13 12 9 8 8 10 11 12 13 15 18 20 23 21 18
95 97 96 95 95 94 96 95 96 96 90 87 56 35 25 25 22 18 15 15 16 16 16 15 15 14 13 11 9 8 9 11 12 13 13 14 16 20 25 31 32 32 31 35
100 92 76 89 95 98 89 89 84 58 40 42 34 29 24 22 21 20 19 18 18 17 16 15 13 10 9 10 11 14 14 15 15 16 19 22 25 21 14 14 17 19 20 19
90 75 61 62 81 92 90 84 82 71 50 36 35 30 27 23 21 20 19 17 15 13 12 12 11 11 13 15 16 16 17 17 17 20 21 16 10 13 14 17 19 28 27 31
90 78 68 67 83 80 62 61 58 57 47 34 31 30 27 24 21 20 17 15 14 13 13 12 13 16 19 17 13 14 16 17 15 14 8 8 13 14 26 21 18 38 33 46
84 76 74 83 72 66 52 50 50 45 33 32 32 27 25 24 21 19 18 16 14 15 14 21 24 22 19 16 18 21 17 14 14 15 12 10 15 14 27 31 26 38 58 50
84 74 81 88 71 51 47 40 31 29 35 32 31 28 25 22 19 17 15 21 33 37 34 29 25 23 21 21 23 18 14 14 14 18 18 18 20 20 25 40 43 52 82 68
71 66 59 68 56 36 32 32 37 41 41 36 30 24 19 16 14 19 42 42 39 36 32 34 33 26 27 32 25 19 20 18 16 18 22 23 23 28 36 42 57 82 94 99
54 50 39 39 35 37 39 44 43 40 35 29 24 21 20 22 40 53 54 50 46 42 43 41 34 32 36 36 30 29 21 21 22 21 29 27 24 28 35 52 59 62 84 98
37 35 33 34 38 42 47 44 42 37 31 26 21 21 33 59 63 58 56 50 51 46 38 39 40 39 37 34 35 33 29 30 30 25 29 35 33 39 40 50 60 76 88 92
34 31 30 39 46 49 47 42 37 32 28 25 35 64 79 77 58 46 45 54 52 51 44 45 47 45 37 37 38 38 33 40 35 35 34 39 41 43 51 65 71 81 85 96
33 39 40 46 50 50 46 42 38 28 25 40 74 93 84 60 47 42 38 42 42 44 48 56 49 45 49 47 47 45 45 49 46 43 42 48 50 55 60 65 71 83 87 95
70 59 51 51 59 54 49 43 36 29 46 69 97 87 62 57 50 48 44 46 52 52 58 60 55 49 52 54 55 58 51 49 54 53 52 52 50 55 64 66 70 84 88 84
76 72 66 56 62 51 44 42 34 26 36 91 99 77 71 63 59 55 54 57 54 55 59 68 72 61 54 52 54 53 58 54 60 58 36 32 34 37 39 42 46 52 56 58
74 71 70 67 59 53 47 40 32 26 76 100 99 78 73 73 64 59 65 67 65 59 60 60 68 74 69 63 63 64 61 51 41 33 34 40 47 50 51 51 50 48 49 49
48 57 57 54 50 46 36 24 21 36 92 100 93 81 78 78 72 73 73 76 74 67 65 65 65 70 78 76 69 57 46 37 34 39 49 55 54 55 56 55 56 61 60 56
56 57 55 50 46 37 29 32 40 68 98 100 86 84 79 78 78 82 85 82 80 79 78 77 77 78 77 75 65 48 39 42 48 56 59 56 55 58 64 67 68 65 64 62
54 82 71 77 50 36 31 43 60 93 100 99 80 85 81 76 76 73 77 91 89 85 84 82 89 85 84 75 54 54 60 64 68 67 63 62 66 69 69 70 70 68 65 63

GFSCGP_500_rhum_063.txt.gz
RH
33 51 72 94 82 61 45 46 69 54 58 74 90 80 66 49 41 43 43 37 31 25 20 18 20 22 21 19 15 12 12 13 13 12 10 10 10 9 11 13 19 23 23 19
36 48 95 100 100 62 41 40 57 44 43 43 37 62 66 29 21 19 17 15 15 14 12 12 10 10 12 14 13 12 12 13 12 11 10 9 10 9 7 8 10 14 14 13
23 69 100 100 98 64 41 39 40 38 41 37 38 29 34 23 19 19 20 17 14 11 9 8 7 7 9 10 11 12 12 12 11 11 10 9 9 8 8 8 9 13 17 14
72 97 100 100 100 70 44 39 39 35 40 39 42 27 26 23 21 19 19 16 15 14 13 12 11 9 8 8 9 10 10 10 10 10 10 10 9 8 7 7 10 15 15 14
90 98 100 100 100 83 48 42 38 36 35 47 36 30 40 38 30 18 17 18 17 13 13 12 12 11 11 11 11 10 10 10 10 10 9 8 6 6 6 6 7 8 13 15
100 100 100 99 94 94 70 55 44 38 34 33 35 40 54 42 30 29 18 15 15 14 14 13 11 10 10 10 10 10 10 9 8 8 7 7 7 8 8 8 9 9 9 12
100 100 97 97 100 99 97 64 46 42 38 32 29 28 28 29 35 25 20 16 14 13 12 12 12 12 11 11 10 9 9 9 9 9 10 11 11 12 12 11 10 10 10 10
100 97 100 99 96 94 94 86 73 46 42 46 45 37 30 26 24 21 18 16 15 13 12 11 11 10 10 10 10 9 10 10 11 12 14 15 12 9 8 8 9 10 12 14
100 100 100 100 99 99 100 91 79 58 44 38 37 45 48 41 32 30 26 20 16 14 14 13 12 12 12 11 11 11 12 13 14 16 15 10 8 9 10 11 12 13 17 22
100 97 100 100 99 98 100 100 100 86 72 61 44 38 39 43 43 33 26 25 22 18 14 13 12 12 11 11 13 14 15 17 14 9 9 9 10 10 13 16 19 21 14 11
99 95 91 98 99 98 99 90 99 99 92 92 88 67 54 51 41 35 32 28 24 19 15 14 13 13 14 15 15 14 11 9 11 11 11 10 11 13 12 13 11 8 10 14
76 88 83 79 93 94 93 91 90 88 87 85 82 71 56 38 26 24 23 21 20 18 17 16 16 16 16 13 11 10 13 14 12 11 10 14 10 8 8 6 8 15 16 21
82 86 81 69 70 77 78 84 88 94 93 59 41 40 34 30 26 24 22 20 20 19 17 16 15 14 11 10 11 16 17 14 11 15 14 10 10 11 13 14 17 16 18 19
80 90 78 67 64 66 76 80 82 80 90 78 60 47 37 31 27 24 21 20 18 16 14 13 13 12 12 17 20 18 15 14 17 11 11 10 8 9 8 9 11 18 20 17
77 79 79 80 75 76 77 63 50 56 64 69 50 37 31 29 28 24 21 19 18 16 15 14 19 24 26 24 21 17 17 18 12 10 14 13 13 11 10 13 18 25 22 26
76 76 72 73 86 64 62 54 52 53 79 53 34 30 28 29 26 23 20 18 21 32 39 35 35 34 29 25 23 24 24 19 14 12 14 15 15 15 17 23 24 27 36 40
75 72 72 74 82 59 41 37 33 38 36 38 37 34 29 25 20 18 21 24 43 44 42 39 38 37 34 31 31 35 28 21 21 20 20 20 21 21 23 22 27 32 41 52
70 66 62 46 71 57 57 47 44 43 42 40 34 28 25 21 19 30 43 49 53 46 46 45 43 43 42 38 35 33 32 29 30 26 29 28 28 24 26 29 33 38 40 49
40 46 41 38 36 41 48 48 47 44 38 34 30 26 24 20 39 63 61 55 49 51 54 51 44 44 45 42 39 32 35 40 35 34 35 35 36 33 35 41 45 48 47 53
35 36 36 34 38 41 50 49 45 40 34 32 28 30 48 71 82 65 49 40 40 45 51 49 46 48 48 47 45 44 45 45 48 42 44 42 40 43 42 36 34 34 36 36
42 38 37 37 39 45 52 50 46 42 38 35 32 57 81 88 73 59 51 51 49 44 46 42 41 50 55 51 49 55 53 58 55 49 50 52 36 32 31 34 36 35 36 38
74 68 64 52 46 48 50 52 47 40 38 35 40 80 97 80 68 63 56 50 55 46 43 49 51 57 68 62 54 55 57 65 57 52 61 46 32 36 39 38 37 40 42 45
85 79 74 71 65 61 56 51 48 44 38 27 40 92 99 81 79 71 61 56 55 55 59 58 53 56 66 76 73 72 68 70 60 51 38 33 39 44 41 41 43 47 52 53
55 66 74 71 66 64 62 56 53 46 38 28 68 100 97 84 84 76 69 68 63 59 59 65 62 59 64 70 75 75 72 58 45 37 35 45 51 47 45 45 49 55 58 56
39 46 50 54 61 58 56 55 51 41 27 25 72 100 100 92 90 85 80 74 72 71 66 71 67 68 72 77 76 75 67 52 39 43 53 58 58 55 52 56 60 62 61 58
35 32 34 57 52 52 49 45 35 26 29 32 87 100 100 88 88 88 86 75 66 74 81 74 81 78 76 80 81 78 60 49 57 65 68 66 67 64 66 69 67 65 62 57

GFSCGP_500_rhum_066.txt.gz
RH
68 76 44 31 33 61 85 100 65 53 62 96 90 99 93 81 95 84 80 66 50 42 34 27 24 20 20 20 20 19 19 20 16 14 12 17 19 15 12 10 9 11 23 25
67 53 50 36 74 100 99 96 75 53 55 89 91 89 98 78 75 96 86 70 64 55 45 38 30 25 23 21 20 20 21 20 18 14 12 10 11 12 11 10 10 10 15 21
90 56 44 40 70 78 98 84 72 50 48 77 93 89 88 86 67 86 87 70 58 50 39 29 24 22 22 20 17 16 15 14 14 13 12 12 10 11 11 11 10 10 9 12
78 46 38 41 48 86 96 92 78 48 49 74 94 69 79 94 87 78 64 55 40 28 18 15 14 12 10 8 8 8 9 11 12 12 12 12 12 9 10 11 11 9 8 8
49 35 33 60 92 100 100 99 66 44 46 62 85 60 54 58 76 62 38 21 19 18 17 16 15 13 12 11 10 9 8 9 10 10 10 10 10 10 9 8 7 7 7 7
39 28 38 96 100 97 99 100 60 47 45 47 73 56 53 56 32 43 54 34 21 18 17 24 39 25 20 19 15 11 10 11 10 10 11 10 9 8 8 8 8 9 10 11
75 78 97 100 100 100 100 100 72 50 44 42 52 70 67 59 47 31 34 37 36 28 21 26 19 14 12 11 10 10 10 10 10 11 10 9 8 9 10 11 13 14 12 10
97 96 99 92 94 100 100 100 90 52 42 40 48 43 47 56 54 54 53 47 32 31 22 17 15 13 12 12 11 11 10 10 10 10 9 10 11 13 14 15 12 9 9 11
100 95 92 96 92 99 98 98 98 76 54 43 44 48 37 36 36 38 31 28 36 32 19 16 14 13 12 12 11 11 11 11 10 10 11 12 14 15 11 8 10 11 11 12
100 99 95 97 99 100 98 100 99 87 74 64 56 51 47 40 36 33 31 28 25 23 22 19 16 14 13 13 13 13 12 11 11 12 14 17 13 8 10 11 10 10 8 7
99 98 99 98 100 99 96 100 93 96 86 82 65 54 50 43 40 43 47 47 45 40 30 28 22 17 15 14 12 12 12 13 14 17 15 9 10 11 10 10 8 6 7 9
81 87 81 98 100 100 100 97 100 100 92 92 82 66 49 44 42 42 41 41 38 33 30 28 25 20 16 15 14 14 14 16 15 10 12 11 10 11 11 6 5 5 8 10
55 70 85 81 89 100 100 96 97 95 98 98 98 73 72 74 67 56 46 36 34 31 26 22 19 17 17 16 16 15 14 11 10 15 14 12 12 11 6 5 6 5 7 11
56 61 69 72 69 78 95 94 88 88 91 98 91 70 48 55 46 38 29 25 24 23 21 20 19 17 16 14 13 11 10 13 16 14 12 14 11 10 8 7 8 8 11 15
69 70 78 66 65 61 62 65 68 71 82 78 90 78 64 58 42 34 29 26 24 21 19 17 16 14 13 12 12 17 21 20 17 15 17 12 9 9 10 9 11 11 12 14
69 72 77 82 76 68 62 59 64 64 59 65 75 85 77 63 40 33 30 26 23 20 18 16 15 14 19 25 29 28 27 23 20 21 21 15 11 13 14 15 15 16 17 24
74 76 76 74 72 78 79 69 66 57 53 57 68 62 54 36 34 33 28 24 21 18 17 19 34 38 36 34 34 32 29 27 29 27 24 23 21 22 22 19 19 22 24 31
70 73 76 70 71 74 70 53 47 45 43 48 56 55 41 37 31 26 22 20 20 21 34 49 47 44 42 42 40 39 38 34 31 32 30 28 22 25 29 28 30 36 37 33
73 78 71 68 56 65 71 60 52 48 47 45 46 41 36 30 26 22 20 33 50 55 56 51 44 44 43 41 38 43 44 39 32 35 35 35 29 32 36 36 41 35 29 28
61 44 49 59 47 39 47 75 64 52 47 43 39 34 32 28 25 30 46 65 60 52 44 37 37 42 45 48 48 46 45 41 39 43 46 44 44 44 45 40 32 32 32 29
36 36 37 36 35 34 44 51 60 56 45 40 36 32 29 30 49 75 76 66 49 41 38 38 37 37 35 35 34 43 48 47 48 50 51 54 54 52 43 33 36 36 33 34
68 54 52 43 35 42 48 50 52 49 46 43 40 38 35 52 88 89 75 62 55 54 53 49 44 42 39 40 50 59 58 54 57 56 58 58 65 59 34 42 42 37 38 40
78 68 65 68 61 57 51 51 55 52 47 43 39 33 43 76 100 86 70 64 60 56 62 58 50 47 48 47 48 61 69 71 73 72 66 59 43 35 43 48 43 43 43 46
33 57 76 75 62 59 55 56 59 54 48 46 43 34 30 74 97 88 75 75 69 72 66 59 57 56 53 57 57 63 70 74 73 62 49 40 38 48 54 52 49 49 51 55
32 36 42 52 60 65 63 59 60 59 55 51 46 39 30 74 100 99 85 79 78 73 68 64 63 63 64 61 64 68 73 75 70 56 44 42 55 63 59 59 60 60 58 59
35 38 30 32 35 38 46 59 59 57 56 53 47 30 29 75 100 100 91 81 82 83 74 63 65 72 73 67 71 74 76 83 66 52 58 67 72 74 75 73 70 68 67 65

GFSCGP_500_rhum_069.txt.gz
RH
88 90 56 46 18 14 39 62 71 92 85 60 81 97 97 96 91 89 83 76 57 44 41 36 32 30 27 25 22 20 17 16 16 19 18 16 15 28 47 25 23 22 23 23
86 79 85 66 37 22 31 46 49 82 82 70 61 81 94 96 88 87 93 91 72 53 42 36 33 30 27 25 24 22 21 20 19 16 14 14 18 15 13 12 12 10 8 13
86 79 78 65 51 46 40 46 58 67 68 75 55 60 83 82 92 91 80 87 84 72 52 44 39 40 37 32 30 28 24 22 20 18 18 16 13 12 12 12 13 12 10 9
100 83 56 57 55 42 31 56 93 52 47 66 55 47 55 83 90 99 96 83 77 71 66 61 58 56 52 38 30 26 22 20 18 16 12 9 8 8 9 10 11 11 11 11
82 65 49 51 54 38 47 86 95 69 83 75 56 48 50 77 72 75 88 93 69 61 57 54 51 46 40 40 36 20 13 9 8 7 6 7 7 7 7 9 10 11 10 9
85 79 44 43 40 35 61 82 90 77 93 77 55 47 48 60 63 84 82 76 75 70 63 47 34 20 15 14 13 12 12 12 11 11 10 10 10 10 10 10 9 9 8 9
94 85 50 54 35 52 70 98 88 100 98 58 57 47 42 66 58 60 67 87 67 71 37 20 18 18 17 30 33 27 23 17 12 10 10 10 10 11 10 9 8 9 10 13
57 80 59 42 54 78 100 89 96 80 73 63 54 44 46 62 54 54 43 33 61 49 36 29 25 20 21 30 30 19 13 11 12 12 11 11 11 10 9 10 11 13 15 16
58 53 44 62 89 100 100 95 84 100 92 80 50 42 41 55 57 60 60 35 36 44 42 40 35 32 25 20 18 17 14 12 11 10 10 10 10 10 11 13 15 17 11 9
98 94 95 99 90 92 100 99 100 100 100 89 58 42 40 44 49 43 60 79 64 47 41 38 38 33 21 18 15 14 13 12 11 11 12 11 11 12 14 15 12 10 11 10
85 75 77 70 71 83 89 87 97 100 98 99 73 50 42 41 45 43 40 42 40 51 43 30 25 23 20 18 18 16 14 13 13 12 12 11 13 15 12 10 11 9 9 6
86 93 93 92 85 92 91 97 94 100 99 98 84 70 70 61 56 53 51 49 48 45 42 40 38 38 33 34 30 22 18 17 14 13 13 15 16 11 11 10 9 10 6 5
69 77 74 71 76 86 95 95 97 95 91 90 95 80 82 72 60 50 43 40 38 38 40 44 53 55 46 34 29 24 19 15 14 15 16 15 11 14 13 10 11 7 5 6
39 46 62 78 76 90 94 92 93 100 99 98 95 83 100 96 88 81 73 65 59 50 44 40 37 33 30 24 20 17 16 16 14 13 11 12 16 13 12 11 9 8 7 8
54 52 52 64 76 72 82 95 87 88 96 86 95 79 84 78 54 57 53 45 37 30 27 25 24 22 20 19 17 15 13 12 11 13 18 17 14 14 13 10 10 11 10 12
73 70 67 68 74 73 69 70 67 77 78 76 77 72 71 92 97 77 47 38 33 29 26 23 21 19 17 15 14 13 13 15 20 22 21 19 17 18 16 13 13 15 16 16
78 82 79 72 72 72 67 69 69 62 68 65 51 73 68 82 83 76 83 46 33 29 25 22 19 18 16 16 23 26 31 32 30 26 24 24 26 23 22 22 22 24 24 27
79 73 76 77 77 70 66 72 69 68 66 62 56 55 60 68 51 42 34 33 30 26 22 19 19 23 36 43 41 38 38 37 36 35 32 30 32 30 31 27 28 31 33 34
84 73 70 72 72 68 66 74 68 55 56 55 51 55 67 58 45 37 34 28 24 21 22 28 39 50 50 46 42 41 40 39 39 41 39 34 36 39 38 36 39 39 38 35
65 66 74 72 66 68 51 76 73 59 50 46 46 47 48 44 50 36 26 24 24 34 53 61 61 57 51 47 45 45 45 43 43 48 44 42 50 48 49 48 47 43 33 32
51 55 52 39 50 50 52 58 55 74 61 52 48 43 39 36 35 37 35 38 60 74 62 51 46 40 34 30 29 32 31 36 48 51 55 56 54 56 58 54 56 36 37 40
56 52 45 39 40 38 42 38 50 73 78 80 50 41 38 34 32 34 58 80 83 71 57 54 48 43 40 38 38 41 48 57 61 60 65 66 67 62 60 65 41 42 46 42
82 70 64 63 57 52 46 44 52 57 67 60 52 43 40 39 40 53 90 94 79 67 60 59 59 55 53 49 44 46 47 51 65 69 70 76 72 66 56 39 44 52 52 47
33 39 63 73 65 62 56 59 52 52 53 55 53 46 43 37 31 56 92 95 80 74 73 70 64 61 62 60 56 55 54 56 63 70 72 68 74 52 42 52 61 60 58 58
39 29 29 32 52 70 73 69 58 52 51 52 53 51 47 44 36 35 76 99 90 86 81 76 70 66 69 66 66 61 67 70 72 73 73 63 50 49 58 69 72 74 73 71
40 33 28 28 29 38 44 50 60 64 62 55 52 55 52 47 42 35 75 100 100 86 85 81 79 77 75 77 74 71 75 71 75 79 78 58 57 67 77 82 85 84 82 81

GFSCGP_500_rhum_072.txt.gz
RH
100 83 56 32 15 13 17 42 68 81 75 88 96 100 96 94 78 78 92 92 84 84 67 46 40 34 30 28 27 25 23 22 19 16 15 14 14 15 18 26 34 40 36 50
91 85 93 54 24 15 16 22 41 57 73 81 80 95 99 90 90 90 94 92 87 86 81 60 44 42 39 35 31 28 24 22 21 21 19 17 17 16 15 14 20 18 26 30
80 74 99 76 50 28 15 14 23 47 53 56 78 74 82 67 71 80 84 92 84 74 74 71 52 42 39 37 34 31 28 25 22 20 20 21 21 19 18 18 16 13 10 8
92 98 98 93 72 44 26 19 25 36 37 36 56 52 64 72 59 89 78 75 85 82 72 73 66 47 40 36 33 30 28 28 30 29 32 33 27 20 17 14 11 13 12 10
77 88 89 92 76 56 42 32 32 36 36 31 29 39 43 57 60 64 84 70 75 79 76 70 74 61 46 41 38 38 42 42 38 34 26 22 16 11 8 7 7 8 9 9
99 90 88 75 69 59 55 40 34 34 26 24 40 40 27 50 46 56 78 90 71 62 70 76 73 73 70 65 64 62 64 64 60 50 32 14 17 10 12 15 11 10 10 11
95 100 90 73 55 54 52 46 43 49 35 18 39 62 24 48 44 47 79 83 84 76 66 70 74 71 68 61 58 54 31 19 19 14 12 15 18 17 16 13 11 10 9 10
86 90 77 50 44 46 48 47 45 54 42 56 65 32 31 46 42 51 76 77 80 76 84 84 73 70 57 31 23 18 17 19 26 25 24 18 14 12 11 10 9 9 9 9
43 52 74 60 51 50 36 34 67 62 67 68 57 46 37 46 43 49 71 65 65 82 95 81 67 58 25 20 19 18 24 31 29 22 15 13 12 11 11 10 10 10 10 11
39 55 82 81 72 52 33 93 92 69 70 63 56 55 46 45 45 50 68 56 55 52 39 69 57 36 32 32 32 29 26 25 21 18 16 13 12 11 11 11 11 11 12 15
72 79 66 52 48 36 49 84 87 92 85 83 68 66 61 49 44 44 74 96 95 93 50 47 52 52 47 41 42 41 40 34 23 16 14 12 12 12 12 11 11 13 15 12
98 92 82 78 71 73 78 83 94 97 87 71 81 70 71 61 46 43 51 91 83 88 86 64 62 51 40 33 33 35 21 18 18 19 16 14 14 13 12 13 15 13 13 12
90 91 89 98 88 64 59 64 77 87 77 62 77 72 86 78 73 70 62 80 86 88 70 54 46 50 45 35 31 31 37 34 36 33 23 19 15 14 15 15 12 15 14 12
66 69 75 73 75 81 82 95 97 85 78 74 64 82 100 99 96 98 94 87 82 82 89 83 75 53 44 47 47 46 46 46 38 26 19 16 15 15 14 12 17 14 13 12
45 43 43 50 61 70 71 75 72 75 82 73 77 76 99 100 100 100 100 97 93 79 66 61 54 46 44 52 52 43 37 27 20 17 16 14 12 14 19 19 15 15 12 10
60 56 53 50 51 57 69 65 64 81 73 64 77 70 98 98 96 91 82 82 74 48 56 38 30 28 26 24 22 20 19 17 15 14 14 15 22 25 21 19 18 17 13 13
63 64 61 55 59 56 53 76 69 67 86 91 68 90 72 88 92 100 88 70 55 42 36 32 29 26 24 22 19 17 16 15 18 22 26 31 31 27 24 23 22 22 20 22
75 78 73 64 62 50 62 68 66 64 62 59 61 67 61 63 69 87 94 89 78 95 67 34 28 24 22 20 19 23 27 35 36 36 36 35 34 32 30 30 31 29 29 26
85 90 94 79 70 64 62 64 63 62 68 67 63 62 63 54 63 62 51 46 40 38 34 28 23 23 24 23 30 42 47 45 43 42 42 43 42 39 34 32 34 36 36 37
90 88 95 87 68 74 69 65 63 66 68 57 52 54 52 53 70 60 48 41 35 30 26 28 36 50 53 50 56 54 50 47 46 45 44 45 48 44 41 47 49 50 50 49
91 76 66 66 73 61 61 64 53 76 69 59 52 47 48 49 47 44 47 40 32 32 37 57 65 64 60 58 53 47 41 37 36 35 41 46 50 55 59 56 57 64 61 56
71 82 57 53 49 41 52 45 57 58 70 79 68 56 50 62 47 39 38 48 55 54 64 76 68 55 53 48 43 41 40 38 43 47 51 57 62 64 70 70 70 74 66 42
42 82 73 68 57 54 53 48 48 45 66 89 82 76 54 44 43 41 44 54 74 89 90 77 62 59 61 55 54 50 43 39 40 48 61 69 69 74 78 77 77 52 44 53
44 46 74 88 82 73 70 69 61 57 60 67 83 78 70 48 43 40 46 61 98 100 89 76 73 71 72 66 59 56 55 48 48 56 64 68 74 73 71 75 80 53 61 63
48 43 38 36 50 72 78 76 68 65 62 59 61 63 58 50 48 46 39 44 78 100 99 90 88 89 84 71 62 60 63 61 62 65 66 72 75 71 55 56 59 66 74 77
42 47 42 37 28 28 40 64 77 75 68 58 52 52 56 55 51 48 46 43 44 82 100 93 89 83 77 77 76 72 78 75 74 68 76 79 80 72 56 60 71 82 90 94

GFSCGP_500_rhum_075.txt.gz
RH
100 84 43 18 15 21 31 54 77 90 92 97 98 98 96 97 97 98 95 96 97 97 94 74 62 54 42 34 31 29 28 32 37 31 25 25 19 26 20 15 15 18 32 32
94 80 78 53 16 15 26 33 46 67 98 97 98 97 95 95 91 94 94 88 90 95 95 91 71 54 46 37 32 31 29 27 25 23 22 20 18 17 17 18 18 18 19 26
93 81 93 63 41 19 14 18 38 54 58 76 93 96 88 88 80 68 67 63 67 67 77 88 90 72 53 45 38 32 31 29 28 26 24 22 21 20 18 18 20 22 24 23
100 100 99 68 47 24 14 14 17 24 45 51 61 57 71 74 91 83 59 57 74 72 72 79 82 85 80 54 45 40 36 32 30 28 26 25 24 22 22 25 27 28 27 19
99 93 92 83 57 32 22 16 16 18 17 27 28 38 44 55 50 64 66 63 64 81 70 78 81 81 82 79 60 43 40 37 34 32 29 27 25 26 32 37 31 19 12 9
92 91 81 91 75 56 44 26 18 16 21 20 26 22 19 34 41 46 55 66 81 74 74 69 73 85 84 80 63 61 54 42 36 33 32 34 35 39 43 38 18 14 9 10
100 87 87 94 91 83 72 47 31 26 20 17 26 22 11 19 28 35 42 55 71 75 68 66 68 79 86 86 83 65 51 48 42 41 48 52 59 61 55 33 14 14 21 16
90 78 81 86 82 72 69 55 40 31 26 24 29 17 11 20 32 31 40 50 55 70 67 65 68 73 80 82 84 79 73 69 66 68 68 47 25 18 14 17 21 19 16 14
94 96 98 91 76 66 51 45 42 39 32 31 21 16 20 21 32 45 50 51 51 53 80 81 77 69 67 76 76 74 70 64 60 56 34 17 19 24 22 20 17 15 13 12
74 80 78 77 68 49 44 52 46 33 28 28 27 40 40 43 54 35 47 48 50 73 86 99 99 93 78 72 74 72 49 29 23 19 18 28 34 30 25 19 16 15 12 11
37 50 42 40 56 53 48 44 40 41 40 43 39 38 53 65 60 53 52 48 50 76 96 90 86 90 87 91 78 66 37 22 20 19 20 23 25 26 25 24 20 15 11 11
53 41 36 38 62 70 74 62 46 34 39 48 44 39 72 75 74 60 50 48 50 87 88 87 71 46 50 74 50 33 30 32 33 36 40 41 41 30 17 14 13 12 12 12
79 86 90 82 70 48 40 42 33 42 66 40 50 40 73 89 82 70 50 47 50 79 97 90 86 75 80 62 58 52 48 43 46 48 43 27 21 27 30 23 19 17 15 14
100 99 100 100 97 100 95 91 81 70 56 58 45 60 81 99 93 92 86 70 69 66 89 96 96 96 91 80 70 70 62 46 32 27 28 36 42 43 37 25 19 16 15 14
67 80 87 90 94 93 89 92 77 59 68 65 66 78 90 91 95 98 97 91 81 77 86 94 93 92 90 75 65 61 62 54 47 41 39 41 44 39 23 17 15 14 14 18
54 52 51 51 51 54 67 74 75 75 73 60 74 69 100 92 89 93 100 97 100 97 87 86 84 88 93 92 85 67 53 46 59 46 41 35 22 17 15 13 15 20 22 19
51 54 58 54 56 50 34 51 60 69 68 80 59 90 74 85 96 100 100 90 85 88 100 89 94 95 81 45 38 34 49 60 24 21 19 17 15 16 19 29 30 26 24 24
62 64 61 61 65 44 58 59 55 49 64 67 72 85 88 88 86 92 90 100 81 82 84 59 50 40 37 31 28 25 24 21 20 21 22 23 31 37 40 36 32 31 32 31
82 81 80 71 65 56 64 62 60 56 57 55 56 59 61 60 60 62 65 83 98 97 95 93 88 49 34 29 26 24 24 28 36 40 41 42 43 43 42 42 40 38 35 34
70 79 81 79 77 68 64 66 61 63 64 59 63 61 53 61 58 63 68 71 72 54 46 42 41 44 36 26 30 37 44 52 52 48 47 47 51 48 44 46 49 42 43 47
47 59 74 83 74 74 68 69 69 65 58 61 64 59 52 50 53 53 65 66 50 45 39 35 30 27 32 40 55 62 60 60 59 52 47 46 50 49 48 49 54 52 56 57
38 37 42 73 64 65 71 61 61 62 58 68 71 65 56 52 49 50 50 48 49 43 45 45 57 70 69 67 62 59 56 50 42 36 32 32 32 35 46 57 59 62 69 70
40 38 52 73 61 60 55 46 54 52 55 62 73 80 66 56 53 63 58 45 49 61 62 73 78 84 78 69 64 62 54 47 42 38 36 37 46 58 62 63 69 76 77 81
40 40 37 63 73 66 57 54 56 52 58 53 81 96 98 88 60 51 50 48 46 48 81 99 97 88 78 80 76 66 59 53 50 48 44 44 47 56 71 79 77 74 68 65
40 42 42 47 80 84 78 73 67 62 57 58 69 83 92 90 89 66 50 45 47 72 100 100 100 90 86 81 79 74 67 61 57 59 60 59 60 66 69 72 66 62 67 75
44 43 48 45 46 36 44 67 77 75 66 62 61 67 80 82 82 83 68 60 53 47 64 95 100 98 92 88 86 82 77 72 70 68 72 72 71 69 69 74 72 61 59 62

GFSCGP_500_rhum_078.txt.gz
RH
100 82 71 22 15 15 20 36 76 69 68 86 92 94 97 96 97 97 94 93 95 98 95 87 68 60 62 62 68 66 71 62 52 47 43 35 29 22 23 26 24 26 28 16
97 76 80 22 14 20 25 36 71 91 84 79 79 87 90 93 99 96 97 98 92 92 82 87 86 68 64 59 52 45 38 32 30 28 29 30 31 26 26 26 25 32 32 28
100 96 86 47 16 17 23 35 66 92 94 89 77 87 82 90 98 96 98 97 92 93 87 90 89 88 75 67 56 49 42 33 31 31 31 34 37 34 27 22 20 19 19 18
100 100 96 79 42 18 16 25 40 53 68 77 70 60 82 98 94 92 95 95 100 100 97 95 95 96 90 76 68 56 43 37 35 33 30 29 27 26 25 24 23 22 21 20
100 96 94 86 64 30 16 15 16 24 29 28 34 40 56 67 89 81 95 95 97 98 84 75 72 76 85 94 97 85 69 60 42 35 32 31 29 28 27 26 25 24 24 26
97 97 95 90 83 54 33 20 14 15 21 20 33 30 30 40 40 48 84 95 96 94 83 70 70 70 68 70 78 88 91 84 64 54 48 43 36 33 31 30 28 27 29 34
96 99 97 100 73 55 41 24 17 15 13 11 11 13 13 20 33 46 52 55 80 82 82 62 62 78 71 74 73 72 79 85 85 77 67 50 42 38 35 33 32 34 42 51
97 80 76 83 88 78 55 43 33 22 16 13 14 13 12 19 29 33 42 43 46 55 63 64 66 68 76 69 64 67 72 78 82 71 66 64 55 50 42 46 52 61 56 32
87 90 100 97 89 95 85 80 67 51 34 22 18 17 18 19 22 21 25 21 22 32 47 66 68 81 78 71 68 69 73 74 76 80 80 71 59 62 64 67 50 16 16 20
82 97 92 89 85 81 81 79 74 62 46 30 22 19 20 24 34 25 23 26 28 35 30 52 67 79 83 80 73 73 78 85 83 81 77 74 72 66 61 49 19 27 29 27
88 82 76 78 79 85 74 60 56 54 44 33 24 22 22 38 53 42 37 27 28 34 52 54 57 60 76 82 77 76 74 79 83 78 74 68 56 40 30 21 24 27 26 29
76 63 56 80 88 62 64 68 63 51 38 35 29 17 35 48 68 68 47 38 37 50 43 52 54 66 84 95 96 93 83 79 78 78 73 38 22 20 19 19 25 35 36 38
72 50 43 39 43 34 31 49 68 50 40 28 29 18 34 52 77 81 82 71 59 57 55 52 55 67 86 93 84 61 77 80 82 75 54 32 27 29 33 39 41 38 28 28
91 84 63 52 63 68 57 72 82 72 49 31 24 38 55 76 89 94 92 77 58 49 48 50 59 90 91 95 87 66 65 76 65 49 42 38 37 37 42 43 39 32 40 40
100 100 79 89 95 98 99 99 84 42 40 30 41 54 68 91 91 84 100 95 81 64 50 53 67 72 92 93 94 80 82 83 70 58 58 55 46 40 34 32 34 39 40 34
57 97 100 100 96 89 84 92 96 98 91 53 68 50 99 85 86 93 88 98 100 93 86 72 66 72 87 90 95 98 91 84 88 91 87 84 76 68 52 40 38 36 29 16
59 49 51 50 55 50 44 57 62 66 73 77 60 83 73 79 81 95 94 92 99 96 98 98 87 85 96 100 94 91 95 95 93 93 88 59 60 60 41 30 22 17 15 21
63 68 68 59 66 47 52 55 52 44 47 47 55 71 74 91 86 91 96 98 99 99 100 98 99 100 100 99 96 97 85 65 58 45 55 60 30 22 19 18 18 23 32 36
78 75 67 63 64 54 60 65 63 58 63 50 47 55 62 64 70 75 91 79 91 85 95 99 98 98 95 79 76 70 52 36 28 31 40 23 21 24 28 34 41 43 42 42
89 88 84 74 70 62 69 78 71 63 60 52 51 57 53 52 60 68 63 63 63 68 71 94 100 99 99 96 53 36 31 28 26 30 35 41 49 53 51 49 49 48 48 46
77 84 82 75 75 65 89 75 74 63 60 58 58 58 59 61 59 56 52 51 54 59 71 60 54 52 47 44 74 67 39 45 45 42 54 58 56 52 51 52 52 48 48 54
76 67 49 49 64 62 84 87 76 64 65 63 60 60 68 61 54 54 59 59 64 69 60 52 45 37 37 40 51 68 70 68 67 66 61 58 52 49 49 48 49 53 64 69
63 67 53 50 55 72 70 63 68 67 58 63 60 70 72 68 58 54 55 54 53 52 48 49 50 59 63 81 87 79 68 63 59 54 49 46 46 48 52 54 58 66 67 71
60 56 51 48 67 79 71 63 60 48 54 54 58 58 72 84 77 65 61 62 66 52 54 60 63 65 70 78 79 80 75 73 74 66 58 52 51 47 47 56 64 66 76 82
91 49 43 44 62 76 80 71 64 55 56 56 60 56 61 91 99 94 74 55 54 54 50 58 65 76 88 97 94 83 80 85 77 70 65 60 55 58 61 60 60 66 69 64
100 96 51 51 54 60 86 82 83 80 76 70 66 66 71 84 99 100 99 88 72 59 50 51 64 89 99 100 100 95 96 92 84 76 71 73 72 69 70 71 72 71 72 72

GFSCGP_500_rhum_081.txt.gz
RH
94 92 94 94 72 34 36 22 20 27 35 36 52 78 91 92 92 100 79 67 73 81 87 72 69 71 82 92 95 76 82 92 91 86 80 77 72 63 56 46 40 35 25 29
94 75 98 93 54 22 22 22 26 30 36 39 45 55 75 98 100 97 95 84 82 96 92 93 94 76 74 92 93 85 83 86 89 83 80 79 72 64 57 45 33 26 23 35
83 86 95 89 66 27 18 26 37 30 28 43 42 44 55 95 96 96 99 79 89 93 93 97 97 97 93 89 78 70 70 76 76 71 72 69 51 39 33 31 32 37 37 31
88 88 85 90 73 26 17 25 29 31 29 44 42 43 52 54 72 76 97 100 98 100 100 100 98 97 98 96 92 76 69 65 62 59 51 45 41 36 34 33 36 35 29 25
100 99 99 84 82 30 15 17 22 26 32 48 60 48 55 54 56 65 76 96 98 96 88 98 100 98 97 96 96 97 94 67 52 45 40 38 36 33 32 31 30 28 27 26
96 91 88 95 82 46 24 16 16 18 25 30 52 47 41 51 63 85 91 94 94 97 89 96 100 96 96 99 99 96 96 96 93 78 61 50 46 42 39 35 33 31 30 30
99 90 96 98 89 66 52 20 14 14 14 12 19 23 21 40 40 67 95 97 99 98 99 97 97 100 100 97 97 96 94 92 89 88 87 88 88 84 75 63 51 49 43 38
75 83 86 95 83 85 74 44 23 16 14 12 12 13 16 35 46 44 59 92 89 82 93 98 98 99 93 81 77 73 69 70 70 72 77 80 82 83 82 76 66 53 45 41
81 85 100 97 94 79 69 65 46 32 24 16 13 12 13 18 35 34 34 30 43 58 62 66 92 97 91 76 68 73 75 67 63 68 70 71 74 78 79 73 69 68 56 52
88 96 93 81 84 86 83 80 63 54 43 32 29 23 20 19 22 30 26 24 22 18 22 34 47 60 80 63 61 64 64 68 70 65 63 62 63 67 72 76 76 74 69 67
97 96 88 87 81 83 87 87 84 77 61 51 43 40 32 33 30 28 34 41 31 22 17 20 21 22 40 63 68 64 68 73 71 69 66 65 68 68 72 74 73 71 64 56
98 86 86 94 92 83 81 76 75 68 54 49 47 40 39 31 38 41 60 51 38 33 32 26 21 27 29 28 53 71 72 78 84 80 73 71 73 80 81 75 65 51 34 26
94 93 84 90 80 78 85 92 89 77 62 44 40 27 32 30 44 59 55 42 44 39 33 32 37 42 34 36 49 58 63 73 83 84 76 78 78 82 83 77 46 26 22 23
83 67 69 73 62 49 51 75 58 35 41 45 30 30 30 38 63 77 56 50 54 52 52 58 57 58 60 54 54 60 76 80 85 87 78 77 80 82 82 73 51 29 29 34
100 100 100 90 70 65 50 43 44 35 43 32 38 38 40 56 61 68 49 58 61 57 60 65 54 53 55 59 64 67 64 73 77 83 79 76 85 68 55 43 39 38 37 39
90 100 100 100 100 72 68 79 80 88 96 63 65 31 88 53 55 63 58 57 63 68 56 61 60 50 50 58 63 76 96 84 95 97 89 73 75 78 69 59 57 66 62 58
79 68 86 98 100 99 61 99 99 92 92 96 72 91 81 74 63 60 58 59 73 73 75 65 77 74 63 57 66 72 94 99 97 97 92 85 82 83 79 83 87 83 76 84
97 92 87 72 76 78 72 69 80 68 59 53 52 59 72 72 62 55 57 76 74 84 80 86 87 93 88 85 79 81 88 99 96 91 96 93 92 92 89 74 73 91 78 36
97 99 91 77 71 54 63 60 55 57 65 47 43 48 42 47 54 64 76 85 79 73 70 83 89 96 100 100 100 96 96 98 98 99 90 66 43 38 53 48 28 26 30 38
95 99 100 82 69 53 63 75 71 63 59 58 58 56 54 47 50 73 60 63 69 67 69 68 72 76 97 98 100 99 98 89 83 51 55 60 31 52 62 57 56 59 58 55
100 100 96 96 88 64 84 95 89 77 66 65 60 61 56 58 57 62 56 57 56 56 56 61 62 81 94 96 96 98 99 98 67 65 53 43 53 64 66 79 75 65 59 62
100 98 90 87 85 71 76 92 93 81 75 77 66 64 62 61 62 65 62 59 62 65 65 64 67 63 55 51 50 44 41 53 80 66 66 73 68 69 69 66 64 65 67 67
99 99 98 77 68 57 61 84 81 76 80 71 68 67 63 61 70 65 59 55 54 57 62 67 69 57 52 47 44 48 56 75 89 82 77 74 69 63 56 51 50 52 56 60
100 100 84 71 70 59 58 74 78 64 68 70 56 62 61 70 72 79 65 59 57 58 57 53 49 46 49 72 81 90 87 87 84 78 72 67 63 59 55 55 60 68 72 74
97 100 95 66 66 58 52 52 72 66 62 51 53 57 60 58 64 92 96 85 66 64 62 70 57 59 69 67 82 88 100 99 93 90 88 81 74 71 69 65 66 72 77 76
77 94 98 93 58 46 45 45 66 77 76 79 70 69 71 74 76 92 100 100 100 91 62 59 59 62 68 93 100 100 100 100 99 100 100 96 88 83 82 82 82 79 79 78

GFSCGP_500_rhum_084.txt.gz
RH
100 92 84 100 100 88 93 92 20 17 21 24 30 44 51 40 36 36 44 75 80 89 85 84 94 58 44 45 71 91 95 96 91 68 63 63 76 74 69 70 66 62 53 45
94 85 95 96 90 99 94 71 56 37 20 18 22 23 64 48 28 28 48 50 61 73 75 82 95 74 57 50 66 82 96 95 96 90 70 70 78 79 73 70 67 64 60 54
100 100 82 96 96 88 82 57 51 34 34 32 15 16 20 36 35 43 62 55 84 92 78 76 95 96 77 67 70 71 69 96 96 97 94 82 80 82 77 74 71 67 57 44
78 81 88 90 85 92 71 30 29 29 25 28 30 20 21 28 42 58 99 94 70 99 99 84 97 97 96 93 85 78 73 66 78 88 96 94 77 82 82 72 69 58 44 37
73 74 73 78 91 79 62 44 20 18 21 17 18 18 25 31 41 57 74 98 93 84 86 87 96 97 96 96 97 97 93 92 86 92 85 75 79 83 75 67 57 45 41 39
62 71 59 57 78 78 64 47 24 18 17 14 18 18 18 30 71 78 74 90 77 97 94 99 90 94 90 92 99 98 97 96 95 97 93 82 72 66 60 53 46 40 38 35
68 67 80 79 79 76 77 55 17 18 17 14 19 22 16 56 67 71 98 86 70 78 92 94 83 88 97 100 98 97 98 97 97 96 94 94 88 71 60 51 44 40 41 45
80 67 75 65 83 80 70 55 31 18 13 13 17 15 15 21 47 48 56 82 82 94 98 99 100 98 97 99 94 91 86 92 87 89 94 98 97 95 94 78 75 82 87 87
100 89 84 81 83 93 91 68 48 27 16 14 14 12 12 14 26 40 43 55 67 70 80 97 93 98 100 98 99 99 100 99 98 90 85 82 77 77 76 75 74 75 77 78
94 100 94 85 94 94 83 85 72 58 35 27 20 18 19 14 14 26 29 36 40 54 64 67 92 96 98 99 99 96 96 96 89 82 77 73 73 75 75 74 75 74 75 75
100 100 100 100 91 89 99 80 68 63 55 49 44 36 34 36 31 26 23 25 26 26 33 39 44 55 75 95 95 98 97 96 86 72 68 76 76 74 70 71 72 73 72 71
100 100 100 100 100 96 87 81 74 72 61 59 61 53 58 62 51 34 32 32 25 26 23 19 18 18 19 25 35 46 62 92 92 80 74 70 71 72 71 69 68 68 70 75
100 99 100 100 98 89 80 82 79 76 67 57 58 45 55 54 52 44 39 34 30 27 29 29 24 22 19 19 23 24 24 29 37 53 65 71 71 76 80 75 70 68 70 76
100 100 100 100 98 99 94 100 92 84 54 65 45 61 62 66 54 44 36 41 32 27 30 26 26 24 27 29 25 26 27 27 28 38 48 54 61 65 68 70 72 70 70 74
100 100 98 100 97 99 100 97 70 66 79 64 50 41 48 68 60 40 34 30 36 28 29 27 23 24 21 29 38 40 39 39 46 57 63 62 63 61 63 64 69 73 73 74
92 100 100 100 99 87 84 88 68 50 42 31 46 28 96 54 51 40 30 29 25 33 35 32 35 37 40 44 51 51 52 53 56 61 65 67 73 78 86 80 77 77 69 52
100 93 100 100 100 99 80 86 86 73 55 84 59 95 86 63 52 41 34 28 35 43 51 53 57 57 50 55 58 51 50 53 56 63 81 94 85 95 96 88 78 78 75 71
81 98 100 94 93 90 81 100 96 78 95 92 76 84 91 72 66 58 55 54 60 57 56 56 60 68 75 83 83 74 68 56 58 67 77 87 100 97 98 99 93 84 84 84
100 99 100 100 97 67 72 85 95 92 81 63 58 54 50 48 57 76 73 68 56 51 50 60 65 74 71 92 94 100 100 99 90 80 79 83 94 95 95 76 60 81 68 63
76 74 90 94 93 77 73 80 76 66 57 59 55 55 54 48 49 47 41 54 63 61 63 68 73 71 86 82 84 92 96 100 100 100 97 96 94 99 97 75 59 60 75 62
100 100 95 84 80 72 81 83 76 61 56 58 59 59 58 54 50 49 44 44 54 64 64 64 66 67 67 65 71 97 100 100 100 99 100 97 94 90 74 60 71 76 94 97
100 100 99 96 80 74 88 82 67 68 74 74 67 64 65 58 55 53 52 53 56 60 60 61 66 71 68 71 85 79 64 68 72 80 97 99 97 94 93 85 95 97 97 97
94 88 94 100 98 83 80 74 72 76 77 77 71 70 72 64 61 60 58 60 63 61 59 62 66 66 67 68 59 52 46 44 51 67 88 99 98 98 88 84 82 80 78 82
82 100 98 96 100 84 70 59 64 76 78 71 76 73 69 66 63 62 68 68 64 58 54 54 58 64 69 66 58 56 78 88 99 100 100 95 91 87 85 80 70 64 65 67
85 100 100 100 100 87 65 56 62 79 79 66 68 67 56 61 61 68 74 83 78 63 61 59 60 57 51 50 57 77 77 78 81 90 98 99 94 84 81 76 72 67 67 77
88 92 90 100 98 81 61 58 56 53 78 76 73 62 60 62 64 66 66 77 90 95 79 77 83 93 99 84 97 89 92 98 99 100 100 100 99 96 90 88 84 80 81 82

GFSCGP_500_rhum_087.txt.gz
RH
99 90 79 94 88 99 100 89 62 58 79 84 89 71 65 41 56 36 16 14 17 16 19 29 79 69 67 79 40 42 44 69 89 95 79 63 59 56 45 36 41 53 67 68
95 99 97 99 96 80 87 95 55 36 34 71 89 67 50 27 24 23 15 18 17 15 19 18 66 88 84 92 73 42 42 63 83 82 92 92 83 58 47 50 56 68 72 72
82 58 74 73 87 86 97 100 95 59 37 42 42 44 56 38 18 15 19 18 16 18 14 35 74 84 95 94 95 72 48 50 47 62 82 90 97 91 74 65 56 73 77 74
76 69 66 62 73 99 97 100 91 92 50 31 22 21 27 33 38 36 30 25 24 19 20 31 62 79 84 93 94 95 76 69 66 73 90 98 98 94 93 94 78 83 87 83
67 60 59 77 100 92 93 92 98 97 84 50 34 30 16 15 19 20 28 49 47 45 48 35 37 70 87 95 95 96 92 76 68 66 76 77 97 96 90 96 94 78 76 80
69 76 73 92 91 98 97 96 84 52 40 81 37 28 27 20 16 19 23 20 28 35 62 82 65 54 83 93 92 95 96 90 86 85 80 74 72 79 82 90 88 80 76 80
59 62 59 59 67 78 95 94 73 50 34 40 31 22 18 18 23 29 28 19 23 32 59 74 86 59 88 100 96 96 97 96 95 94 94 95 91 93 95 96 95 90 83 74
61 59 58 66 60 64 74 82 64 47 55 43 29 22 15 23 30 35 26 26 19 52 53 63 82 66 56 84 91 96 95 90 98 94 95 96 95 97 97 96 92 92 94 92
95 82 96 99 82 83 79 65 65 55 50 40 29 19 15 20 16 30 28 27 46 66 90 84 72 62 60 92 98 99 97 98 95 96 97 97 96 92 97 99 98 98 98 98
90 100 90 100 100 100 96 100 91 73 49 27 26 17 15 15 13 15 21 35 39 51 77 99 97 95 97 96 92 94 96 97 96 96 96 95 94 92 90 89 92 91 91 92
94 96 100 100 90 96 99 98 97 99 76 55 97 64 22 21 17 14 13 16 25 41 44 49 64 84 87 97 99 98 98 98 98 96 97 97 96 97 90 81 77 75 75 75
100 100 100 100 100 100 98 99 100 99 93 81 63 65 50 53 38 31 26 20 17 21 23 33 42 48 58 68 94 96 97 97 98 98 97 98 98 94 91 81 79 83 80 78
96 100 100 100 100 92 80 87 98 100 100 83 76 68 71 83 80 72 57 44 31 24 23 21 21 23 22 19 17 23 48 83 91 92 84 76 92 97 97 95 83 78 79 79
94 95 100 100 100 98 100 100 100 100 85 90 67 80 73 98 100 94 74 54 43 34 27 24 22 21 19 21 24 21 20 22 25 22 22 31 35 37 55 73 64 64 65 65
100 95 92 100 100 100 94 100 98 82 86 72 79 68 87 98 66 61 66 49 53 43 31 25 23 23 29 30 27 23 21 29 31 28 28 30 29 33 39 49 54 54 60 59
100 100 100 100 100 100 97 100 100 92 85 67 68 66 80 66 51 38 37 50 43 33 26 25 27 29 32 32 28 24 24 27 39 44 46 46 41 43 54 59 66 69 68 74
99 100 84 97 100 100 87 61 68 69 89 90 50 56 60 65 52 43 32 26 39 32 29 29 40 41 39 33 35 37 38 38 49 49 49 51 52 54 58 66 67 71 71 78
58 100 100 96 100 100 95 74 91 72 74 72 69 69 91 63 67 59 58 35 29 33 31 30 44 44 45 40 42 47 46 48 54 60 59 50 51 58 68 78 93 88 88 88
54 95 99 98 95 93 86 97 97 91 94 89 68 85 85 71 70 76 63 46 49 41 34 29 38 46 46 52 57 56 67 69 71 75 85 92 73 65 71 71 77 90 97 91
92 100 100 100 98 84 71 79 78 85 87 88 84 75 59 52 55 54 53 63 74 76 66 62 57 55 60 58 57 68 72 84 89 89 85 86 90 91 86 87 92 90 96 99
62 94 94 87 95 89 78 98 94 75 74 76 65 56 50 48 47 49 54 46 43 54 66 65 65 70 77 82 77 68 74 71 74 90 89 91 94 94 94 98 100 98 98 92
92 82 92 100 100 83 76 87 83 72 66 61 59 56 56 56 51 49 51 49 50 49 51 53 58 64 66 68 70 68 67 64 81 81 71 75 75 98 99 100 100 97 95 100
100 85 91 99 94 100 84 76 76 72 65 59 57 61 64 61 59 60 56 54 55 55 53 54 57 58 58 60 63 66 65 70 61 51 46 43 49 85 96 100 97 97 99 98
91 89 94 89 97 98 100 89 77 72 71 73 70 70 67 69 72 68 61 60 59 61 63 62 60 58 59 62 64 66 68 59 54 65 75 82 86 95 97 95 97 98 98 91
44 55 62 81 100 99 100 83 79 76 72 68 75 69 73 72 70 66 65 63 64 70 72 65 60 58 58 61 64 66 62 55 58 72 77 81 87 90 96 96 94 93 91 89
72 63 62 76 100 99 82 89 81 78 72 82 80 67 68 68 58 60 61 64 73 79 83 76 63 61 61 65 65 62 69 100 83 76 83 89 97 95 96 98 100 100 97 90

GFSCGP_500_rhum_090.txt.gz
RH
58 70 39 62 81 100 68 61 89 78 94 98 100 98 93 83 39 13 12 14 18 16 12 10 12 15 38 45 53 75 74 69 67 63 59 82 77 59 35 30 31 22 26 41
61 76 80 49 71 67 83 76 61 100 93 99 73 90 92 83 48 31 11 12 15 14 12 12 13 13 12 26 58 60 68 72 72 66 62 69 93 88 65 57 63 60 50 45
52 60 57 67 52 54 75 98 100 84 96 81 82 84 70 77 59 43 26 14 15 14 15 13 13 15 13 11 18 68 75 90 75 69 46 78 87 96 95 92 87 79 83 71
66 70 64 73 76 85 78 98 88 92 77 61 65 71 72 65 65 64 44 30 25 25 20 14 13 15 14 14 12 33 85 86 88 86 66 87 77 87 94 96 96 97 96 95
70 62 50 46 67 74 84 77 100 95 84 76 57 48 50 49 38 40 44 37 37 35 24 32 13 12 18 14 15 42 63 97 90 96 97 75 76 69 73 86 91 97 96 96
66 61 54 61 54 76 77 88 87 96 100 78 68 50 37 35 29 26 36 32 27 17 17 38 18 14 13 18 16 23 75 78 87 92 84 97 83 68 66 85 92 97 96 81
72 68 61 64 80 82 90 100 100 99 95 64 82 70 47 37 28 18 19 25 32 31 25 33 25 16 14 15 28 35 61 81 92 97 95 94 97 72 62 78 73 84 87 79
64 71 68 62 64 86 94 100 99 100 93 76 58 64 57 43 34 31 26 20 15 16 17 17 18 15 15 17 41 68 62 71 97 99 90 84 96 93 84 78 78 91 94 96
68 61 72 70 75 61 79 81 100 99 91 73 60 46 40 35 30 23 20 19 18 16 15 15 17 15 12 33 60 75 74 52 84 91 87 94 90 92 87 89 95 96 96 97
76 70 80 88 74 68 84 100 94 84 86 68 59 53 53 42 24 20 19 19 23 30 26 19 15 17 23 53 82 69 71 65 79 88 93 96 89 98 98 98 95 97 97 93
100 100 98 93 82 83 100 94 100 97 94 84 71 67 49 34 18 15 14 15 19 23 24 20 30 64 67 95 94 66 74 98 76 94 100 97 98 98 94 96 96 96 93 93
100 100 100 100 100 100 100 100 100 99 91 100 100 76 88 57 24 20 18 14 14 16 17 19 30 48 53 60 97 96 100 98 96 100 98 98 92 95 91 96 97 95 95 94
89 100 100 100 100 98 91 100 100 98 100 84 94 82 78 85 73 65 43 41 31 19 14 14 18 23 35 43 42 39 41 94 98 98 97 99 98 97 96 97 96 96 98 98
100 82 96 99 99 97 97 100 100 100 97 93 91 100 100 98 96 83 68 64 40 40 30 20 18 18 20 21 23 28 23 25 23 23 39 78 90 93 90 76 85 94 86 76
100 100 72 85 100 100 99 100 100 95 90 88 90 93 100 100 94 86 74 72 51 49 46 44 36 31 25 23 26 35 37 32 26 23 25 34 36 31 32 35 30 30 32 34
98 99 100 100 91 96 87 100 93 86 94 81 88 81 100 96 89 86 70 62 56 51 48 51 50 40 29 27 26 36 37 34 36 38 35 34 33 39 40 41 38 35 34 35
90 91 100 100 100 100 100 100 91 95 100 96 77 96 98 84 64 47 44 43 37 32 44 43 36 30 25 27 31 32 38 44 42 36 36 38 43 48 49 51 51 52 53 56
90 94 98 100 99 94 83 100 96 78 70 67 61 69 100 90 63 49 61 46 33 30 28 42 43 34 27 27 29 40 47 52 50 48 46 47 52 55 55 51 49 50 53 60
66 80 96 100 97 100 100 100 100 87 86 88 71 73 70 56 65 78 50 60 57 41 32 29 34 34 31 29 40 50 47 55 49 48 54 63 62 62 67 65 74 67 56 61
85 54 81 99 96 99 95 94 98 99 90 81 75 77 82 81 66 62 71 63 63 64 55 45 48 40 37 36 47 50 47 51 50 56 63 68 67 72 74 69 76 78 80 86
94 83 53 97 100 100 96 100 100 87 77 67 73 86 93 83 71 63 54 52 54 58 57 72 79 76 67 69 68 64 72 76 78 77 70 60 60 74 78 79 81 79 87 82
72 66 68 99 100 92 91 95 96 78 75 63 67 82 70 69 54 49 44 42 42 46 61 47 49 67 73 74 72 76 88 86 77 69 59 56 63 76 58 62 70 81 82 83
92 100 82 90 93 92 93 86 78 80 74 68 66 66 64 60 54 53 52 52 48 47 48 49 50 49 53 59 68 73 70 69 70 68 63 65 65 53 42 39 57 83 96 98
46 44 91 95 98 100 100 82 85 74 73 73 68 63 63 64 65 60 59 60 61 58 58 57 56 56 59 61 61 62 62 65 66 65 66 60 57 64 71 80 86 90 94 96
58 48 68 58 83 96 76 57 71 100 94 88 81 75 72 70 68 70 74 72 67 65 64 64 68 68 64 60 58 58 61 64 67 71 66 59 68 72 71 73 78 90 95 97
70 77 63 74 82 68 78 70 56 100 98 89 92 98 91 72 70 73 70 65 65 65 70 73 78 80 68 64 62 61 62 62 61 56 72 77 71 71 76 85 88 90 93 96

GFSCGP_500_rhum_093.txt.gz
RH
50 56 62 66 88 62 66 98 100 98 99 97 97 94 90 89 74 56 62 33 26 37 79 71 78 67 62 53 67 54 51 64 77 73 63 62 62 54 36 58 47 29 22 19
22 27 44 59 80 84 79 90 100 99 98 100 97 97 97 98 86 81 67 60 29 22 39 47 62 54 42 52 48 43 41 43 48 55 69 76 70 66 61 68 75 79 66 53
22 20 22 38 47 65 73 79 93 98 99 97 94 91 85 92 68 68 63 53 26 17 17 28 44 31 26 16 13 15 17 28 48 51 46 50 68 76 89 84 93 97 93 97
22 44 53 49 34 31 59 71 85 92 86 99 81 77 82 86 69 63 74 58 38 18 14 14 23 25 12 14 13 12 12 17 13 22 64 73 60 93 82 82 96 97 96 96
35 52 54 46 54 54 50 53 59 88 77 82 69 57 66 87 77 57 47 47 55 47 20 11 10 15 18 15 13 13 18 21 26 27 30 66 76 74 75 89 80 76 90 92
63 58 53 58 56 71 78 84 82 82 88 93 88 76 47 64 55 65 58 45 38 48 44 27 11 14 15 17 14 14 13 16 13 26 48 63 82 81 98 95 96 86 92 83
46 51 50 56 49 49 62 63 93 95 92 77 90 80 44 63 51 45 52 43 34 34 42 47 30 15 18 14 17 28 20 14 14 23 42 49 64 90 88 86 96 87 90 92
57 73 75 75 76 80 90 98 99 89 75 71 100 74 45 66 70 54 42 37 32 26 34 38 38 34 32 19 17 17 21 18 16 14 16 32 66 82 75 98 96 83 96 90
78 79 95 97 100 91 96 85 95 94 94 89 88 69 64 70 72 68 50 40 30 21 19 26 32 28 22 19 21 18 17 15 15 15 19 24 42 77 90 98 93 82 86 86
77 83 100 100 99 95 94 98 95 92 94 88 75 75 72 60 50 68 68 47 28 26 23 20 18 18 19 18 17 15 14 14 14 19 59 54 67 62 82 93 93 91 89 85
78 93 88 86 73 81 99 83 79 86 98 89 76 71 61 59 57 51 42 26 21 23 22 20 21 17 17 18 16 15 14 13 16 31 51 59 73 62 66 99 99 99 87 88
99 92 100 100 98 99 100 99 100 93 86 78 70 64 53 54 50 44 23 18 18 17 27 34 29 22 17 16 15 22 27 54 68 74 80 83 98 79 78 95 84 81 98 97
99 93 83 100 97 100 98 95 92 98 91 91 86 69 80 80 89 60 34 18 15 14 15 20 24 20 17 20 27 40 58 53 68 73 81 76 80 80 94 100 98 94 96 97
79 100 100 88 100 100 99 100 100 100 98 80 77 96 98 91 98 87 60 48 21 16 13 14 14 14 16 18 20 29 35 36 34 28 38 79 89 99 99 100 98 99 98 97
29 87 100 100 98 100 100 100 99 94 98 96 86 94 100 100 100 91 91 70 51 35 23 20 22 19 17 17 18 22 26 33 36 30 31 33 29 37 41 39 42 37 28 31
13 57 100 100 100 85 92 97 100 100 100 94 88 78 100 97 98 95 94 91 71 46 53 63 64 60 52 39 33 30 26 28 39 40 32 27 22 18 19 26 28 24 23 24
13 61 98 81 100 98 85 91 100 100 98 92 78 95 99 84 87 92 86 75 70 65 60 59 66 52 50 54 47 36 31 30 38 42 40 33 34 37 39 41 41 36 38 40
12 81 93 94 100 98 100 98 100 83 91 88 59 96 100 99 91 84 63 55 52 55 45 39 39 45 44 41 36 30 32 35 37 41 48 50 57 62 57 52 52 51 53 53
17 67 96 92 100 99 100 100 96 98 100 96 82 82 80 71 63 80 75 53 44 37 38 40 34 30 41 40 38 31 32 42 46 51 48 46 46 49 52 52 53 60 67 64
48 64 85 78 100 100 100 100 93 99 100 95 86 80 84 75 51 62 57 61 52 41 44 50 49 43 34 34 44 44 35 34 55 54 48 49 53 54 60 58 60 63 68 68
47 71 85 77 85 97 100 86 90 84 86 92 84 75 69 68 76 80 79 73 63 59 62 66 65 63 53 58 59 57 50 48 51 61 64 64 62 64 68 60 61 65 67 69
43 51 64 74 70 83 88 100 80 76 95 88 80 72 62 64 85 94 90 79 69 61 55 53 57 61 54 62 79 81 81 78 83 79 72 76 85 81 74 61 57 65 54 49
34 35 47 69 78 80 68 63 78 71 62 82 95 100 78 65 78 75 92 61 54 50 49 49 47 52 60 54 55 77 85 83 85 84 86 88 81 70 63 60 62 54 42 39
41 40 46 45 55 81 100 100 100 76 59 68 85 86 82 77 76 67 63 64 65 62 57 54 54 54 58 60 62 66 69 71 75 73 70 69 69 67 67 62 60 70 77 83
39 53 61 60 88 81 65 91 100 80 88 99 88 91 88 79 74 72 73 69 66 67 68 67 63 61 62 63 65 67 67 65 64 65 69 70 71 72 66 61 72 70 68 70
32 37 50 60 63 70 89 81 77 96 80 86 100 100 100 89 87 82 77 76 78 77 73 68 66 65 68 74 75 71 66 62 61 64 68 70 70 65 65 72 72 70 77 94

GFSCGP_500_rhum_096.txt.gz
RH
59 63 70 61 39 33 54 96 98 98 97 98 99 99 98 84 98 93 75 46 40 40 45 42 50 78 76 79 70 97 69 69 56 56 62 67 73 63 62 59 55 45 38 48
56 45 47 52 38 29 39 51 92 94 96 99 97 97 98 98 81 99 93 76 63 51 48 38 31 44 80 78 74 82 80 80 71 71 62 68 68 67 64 60 62 62 52 54
44 38 30 40 57 52 41 46 66 81 93 88 98 98 96 92 92 91 83 75 63 63 54 41 34 28 40 64 87 84 86 76 68 53 44 42 42 33 27 38 57 61 73 86
19 28 31 22 42 62 55 58 50 72 95 98 98 91 96 100 84 75 83 86 85 77 70 52 38 31 28 40 66 70 74 77 68 54 45 47 37 42 47 38 30 63 74 71
19 17 19 20 30 46 49 55 53 57 92 97 93 86 90 90 75 53 53 66 71 73 68 54 43 39 40 56 59 61 60 62 39 19 22 48 69 72 62 29 33 52 47 50
18 34 49 64 60 50 44 39 44 77 64 72 69 87 87 76 84 98 86 83 66 58 61 52 41 25 26 36 31 37 37 25 26 17 20 35 40 46 47 55 63 47 50 65
29 32 47 78 72 72 67 79 80 74 91 81 68 69 68 71 60 58 68 56 55 51 45 44 46 34 18 16 21 21 22 18 37 41 42 41 69 58 54 55 87 93 67 80
40 91 72 88 77 77 82 100 100 84 78 85 96 62 48 56 48 42 44 43 40 34 37 33 30 29 37 33 19 16 22 20 18 23 37 36 36 38 31 47 81 97 97 78
42 36 56 77 79 88 75 75 97 100 91 80 76 60 49 56 78 55 51 50 46 40 29 40 40 33 27 23 36 36 37 29 23 19 16 17 24 34 45 39 26 60 78 75
23 47 65 86 100 93 88 100 100 99 99 89 76 59 46 58 80 79 65 54 49 48 46 43 38 34 27 27 32 34 31 34 25 24 24 23 19 15 15 14 12 29 38 41
25 28 66 98 98 100 100 100 97 99 100 94 85 73 76 80 75 80 74 53 64 58 49 41 37 24 20 23 32 31 29 27 27 21 22 19 16 15 14 15 18 19 37 51
42 76 65 95 96 100 100 100 100 100 79 81 97 84 94 92 94 82 80 54 52 66 55 44 29 26 24 21 20 19 20 20 19 18 16 14 14 14 15 18 47 45 58 64
32 94 100 94 98 99 90 79 78 81 83 69 80 77 98 80 80 68 59 53 40 47 39 51 30 20 23 27 23 20 19 17 16 17 18 22 29 48 46 59 53 63 82 85
16 43 100 100 92 95 97 100 96 96 92 73 64 75 86 97 92 90 76 61 46 28 20 25 31 21 31 34 29 28 34 35 32 33 36 46 49 54 66 62 75 94 97 93
13 20 66 92 88 100 99 96 100 99 96 94 87 81 100 100 93 90 94 81 53 36 21 16 15 15 24 33 30 28 27 28 31 34 34 34 32 26 33 44 83 88 89 96
6 10 18 87 99 91 96 98 96 98 100 80 84 88 100 100 96 85 76 87 77 50 31 21 22 19 19 18 16 18 21 22 24 25 31 42 47 51 26 26 26 27 28 32
6 9 18 57 100 82 62 70 94 99 98 89 74 80 100 99 89 100 99 70 64 68 57 58 69 69 50 40 32 32 31 29 28 26 25 34 43 36 31 26 24 23 20 21
7 9 22 62 92 98 80 92 72 63 81 87 84 90 98 100 97 84 72 72 73 77 81 67 66 72 80 64 53 54 50 48 43 38 34 29 32 37 38 35 29 25 27 32
9 14 32 95 95 100 92 99 100 97 92 78 64 96 91 82 61 59 79 83 85 80 74 70 60 52 47 58 61 51 46 50 48 40 40 37 37 42 49 45 42 43 43 47
12 24 39 49 78 98 100 99 96 100 100 95 86 84 89 81 67 79 72 69 79 66 53 46 43 46 49 50 41 39 49 42 37 38 36 39 58 58 54 50 48 46 44 57
17 23 40 62 52 85 100 88 78 70 76 73 79 99 99 87 72 67 54 54 58 68 62 57 47 53 62 62 59 50 41 42 44 44 44 41 39 59 60 56 56 50 51 66
18 20 28 38 69 83 96 99 91 84 76 64 72 86 92 88 80 71 71 73 68 61 58 60 58 61 62 61 59 58 57 58 62 59 57 53 52 53 59 62 65 70 74 69
17 20 23 31 30 58 64 70 70 82 84 82 79 92 93 88 76 63 78 96 96 92 85 76 70 61 55 56 60 60 53 57 75 81 92 99 98 89 86 91 92 82 71 61
15 23 31 46 54 62 61 66 100 79 63 66 72 67 77 90 98 75 83 92 84 85 66 59 58 57 54 55 58 61 64 62 73 83 91 97 97 90 84 82 79 71 65 62
9 19 33 51 72 72 61 69 59 100 100 100 90 60 78 78 93 87 87 90 75 74 70 67 66 67 66 63 63 65 66 71 75 79 82 80 75 72 70 72 75 75 68 65
6 9 14 20 31 53 50 42 52 52 100 100 100 84 97 98 98 97 97 90 84 81 76 74 78 76 71 68 67 71 75 76 74 72 69 65 64 66 70 74 77 73 70 71

GFSCGP_500_rhum_099.txt.gz
RH
24 30 23 20 26 70 87 94 94 98 98 92 98 93 88 75 69 53 48 49 55 60 64 65 78 90 71 76 73 93 94 96 95 93 55 51 49 49 55 66 62 67 67 63
18 16 21 25 17 19 36 47 90 96 96 96 92 96 97 87 69 71 67 51 44 52 52 43 51 58 73 82 93 86 79 75 87 94 91 62 59 67 65 71 68 64 62 60
30 26 18 18 35 17 17 22 73 93 99 98 98 93 96 97 100 96 72 66 55 46 43 48 39 33 40 51 71 79 87 85 96 96 77 83 79 67 65 80 78 53 32 28
31 31 29 27 28 32 23 20 27 64 86 92 100 92 100 99 89 84 77 81 67 56 48 47 41 36 42 53 49 52 74 88 87 94 78 72 78 65 59 74 76 75 60 51
21 25 29 28 22 25 32 27 31 36 34 49 81 87 81 89 92 92 88 84 94 88 72 82 82 64 61 60 54 55 51 73 84 90 90 89 82 66 66 58 52 68 68 69
17 22 25 28 28 28 28 54 51 48 43 36 46 65 82 84 98 95 86 86 89 72 83 70 75 67 56 53 53 40 46 59 73 79 76 72 72 70 54 38 55 67 88 100
15 11 19 28 26 27 27 42 51 57 75 50 44 50 67 98 98 86 75 74 76 71 69 76 84 66 58 55 48 44 49 64 84 65 66 58 56 58 66 56 66 53 57 61
13 24 35 50 57 80 92 90 73 61 57 79 68 59 58 89 97 87 75 74 68 78 82 83 69 58 61 58 54 52 47 31 46 50 51 50 39 44 52 58 56 46 68 76
12 19 38 79 97 92 85 96 83 100 73 68 57 58 50 77 83 92 93 73 61 86 86 75 55 49 46 43 47 40 31 21 17 18 22 35 37 37 50 53 39 42 40 48
12 16 33 59 77 100 100 99 95 83 100 99 66 77 76 63 77 72 78 70 64 43 49 50 45 38 36 36 35 30 33 41 35 22 13 12 18 22 27 38 34 37 28 36
11 14 31 76 83 88 96 95 86 85 90 78 67 66 66 73 69 80 66 64 58 48 38 37 35 35 34 33 32 36 33 32 34 30 31 23 16 16 17 17 21 22 20 16
10 18 32 66 98 100 100 100 100 100 97 94 79 61 68 78 77 77 73 78 68 68 58 51 46 42 38 36 33 34 32 30 27 29 34 36 42 41 31 26 22 21 19 16
9 21 35 95 90 93 100 100 100 100 100 84 83 52 67 92 98 98 90 82 79 73 57 47 52 52 46 43 39 38 34 26 21 24 32 35 34 33 29 24 21 18 16 15
7 14 23 72 100 100 100 100 100 100 99 69 60 57 72 95 100 100 99 97 95 80 58 50 60 58 41 32 32 30 28 24 20 19 19 22 23 24 25 30 26 21 23 20
5 8 12 51 100 100 99 93 97 92 90 82 62 65 94 100 100 99 95 93 84 75 63 44 49 50 40 40 27 26 31 32 27 25 23 24 25 32 41 44 40 35 37 42
5 5 7 16 91 100 95 100 100 100 100 83 85 79 100 100 86 82 78 67 62 60 52 40 37 29 25 24 23 20 41 40 34 34 36 34 35 38 36 35 36 27 25 26
4 4 8 10 42 90 86 100 100 96 100 99 100 92 100 96 84 73 74 86 71 65 64 61 48 38 27 25 18 19 24 30 30 26 24 26 28 32 33 36 40 57 44 30
5 5 9 15 18 71 84 94 74 73 88 87 87 100 100 100 97 94 91 59 64 66 65 72 74 76 77 68 45 30 23 21 19 20 22 27 29 29 28 31 30 37 35 30
6 7 11 25 37 82 100 95 81 66 54 55 60 69 94 100 96 95 88 70 74 83 75 81 82 96 94 81 81 60 47 41 43 49 54 48 38 38 38 34 31 32 32 33
7 7 10 24 57 64 100 97 88 85 88 79 76 74 81 90 91 100 98 71 63 76 77 82 87 88 91 76 72 72 71 62 63 64 58 59 68 54 44 40 40 39 42 48
7 7 11 14 23 41 84 96 93 97 100 100 100 100 92 85 98 100 96 81 81 78 80 82 79 73 72 83 92 87 72 55 48 44 46 50 49 44 40 42 40 50 58 57
6 6 11 17 19 29 58 78 99 100 99 99 100 100 100 98 93 100 99 85 70 66 67 66 80 70 64 66 63 75 76 65 56 55 52 48 45 42 42 44 46 44 42 48
6 5 8 14 20 38 41 57 82 93 93 92 97 94 100 100 100 100 100 91 74 67 63 58 59 64 66 68 66 66 64 63 58 59 61 68 71 72 72 75 82 86 84 78
6 5 6 13 22 38 53 65 69 57 66 77 86 88 80 83 99 98 100 98 80 70 77 84 83 80 77 72 68 62 58 57 58 61 57 59 74 86 92 94 94 93 96 92
6 5 5 7 11 21 32 45 54 56 56 88 91 83 68 70 68 84 100 100 99 88 90 89 88 77 66 61 58 56 54 53 56 61 64 68 77 88 93 95 94 92 90 82
6 5 5 5 7 12 18 33 37 40 43 44 92 100 100 96 80 75 87 95 97 97 100 92 91 90 77 71 71 70 67 63 64 66 67 70 74 76 74 70 68 68 70 73

GFSCGP_500_rhum_102.txt.gz
RH
22 26 52 58 85 87 91 95 94 97 99 99 96 92 72 65 60 72 67 62 61 71 77 94 96 92 95 97 95 95 96 96 96 89 94 95 96 91 84 71 57 58 65 64
14 17 23 30 27 28 60 92 99 98 100 98 99 92 94 80 70 67 79 62 61 52 57 74 79 92 96 95 93 95 96 95 94 95 96 96 96 92 68 57 62 77 74 69
12 14 14 18 16 14 18 54 82 94 98 99 96 97 87 83 64 65 63 68 66 64 72 84 81 82 85 76 89 96 96 96 95 95 97 95 96 96 91 75 82 80 74 69
14 8 13 14 15 16 14 16 44 58 90 94 100 100 95 83 78 57 51 59 73 73 63 62 75 73 70 65 65 68 79 80 71 99 95 95 96 95 92 95 96 97 94 91
22 17 15 18 21 23 22 25 20 15 35 70 87 94 97 99 84 84 61 65 63 70 75 69 68 62 61 59 53 58 61 54 55 72 86 94 96 97 93 96 97 85 72 76
14 22 22 20 22 22 22 21 25 26 26 26 43 63 94 94 98 97 98 96 90 89 90 89 82 81 77 74 80 81 60 59 53 68 85 92 86 96 82 81 82 84 79 63
8 10 11 11 15 22 26 27 32 55 60 32 38 37 52 85 94 95 91 94 90 94 94 96 99 92 84 84 89 90 81 67 56 55 67 67 64 84 87 89 84 82 77 59
8 9 10 16 15 18 25 33 36 38 51 50 53 31 33 44 82 83 83 87 97 99 84 91 100 94 86 100 94 80 67 61 61 52 50 46 52 62 72 78 66 61 53 52
7 10 12 13 32 32 45 82 87 68 58 50 47 35 32 45 42 45 55 87 85 82 71 71 88 90 88 88 86 84 76 58 54 52 47 42 41 42 51 48 55 51 41 45
6 10 13 16 37 73 74 87 100 100 100 97 54 30 29 59 63 59 54 91 92 81 90 84 79 80 81 100 92 79 64 53 51 47 47 50 46 29 21 30 39 50 47 38
4 6 15 27 82 94 94 100 100 100 100 83 71 60 55 64 100 94 75 68 91 84 81 86 95 97 96 79 65 56 48 41 39 44 42 39 36 34 30 24 16 14 18 29
4 4 14 37 61 97 100 100 100 100 97 92 72 75 65 71 80 99 100 98 84 83 80 78 76 70 70 68 57 46 38 32 28 30 32 29 27 29 29 27 30 27 21 20
4 4 8 22 86 80 100 100 99 100 93 79 72 54 68 67 78 68 73 90 90 83 77 78 71 57 50 45 47 44 34 29 28 26 24 26 25 24 27 27 27 27 29 34
4 5 6 12 66 93 88 100 100 100 100 95 80 69 66 74 76 94 97 89 76 79 84 84 74 65 56 46 40 35 30 25 24 24 27 29 28 26 25 25 28 30 31 31
4 4 5 9 22 89 94 77 83 100 85 97 74 78 91 86 73 79 95 98 91 82 68 74 82 79 60 50 50 43 35 30 26 27 29 32 33 26 19 20 21 23 24 24
4 4 5 8 12 58 68 87 100 99 90 75 70 70 82 100 90 81 100 100 93 81 73 76 80 73 63 50 65 59 50 41 39 37 35 33 28 26 25 24 24 26 27 28
5 5 5 6 12 28 80 98 98 100 100 90 78 89 100 90 73 76 86 88 87 85 86 82 77 70 53 43 41 43 36 33 33 29 27 31 36 33 32 34 40 41 40 37
6 5 5 6 12 19 56 94 97 90 99 98 75 96 88 90 80 76 73 64 80 88 70 68 76 70 63 59 48 39 31 26 23 19 20 40 40 34 28 26 27 29 31 36
6 6 5 6 12 28 75 87 97 93 71 67 78 100 88 98 100 94 96 82 78 72 65 85 89 85 85 82 64 46 38 32 27 23 20 21 23 22 20 21 22 24 26 27
7 6 6 6 10 19 47 99 96 92 84 65 68 80 68 70 62 92 89 85 83 81 94 91 86 97 92 91 87 78 66 58 47 45 40 37 35 36 40 46 48 45 43 45
7 6 6 6 9 18 22 58 98 100 89 100 100 100 100 91 74 68 79 94 100 100 91 69 60 74 87 98 97 93 85 91 73 62 60 63 60 66 66 59 59 67 71 62
8 7 7 6 7 13 26 40 68 95 100 100 96 95 100 100 100 100 100 96 99 100 92 66 69 74 79 89 98 95 91 87 82 74 75 70 66 58 49 53 60 51 50 46
8 8 7 7 6 11 20 45 60 59 76 98 99 98 100 100 100 100 100 100 95 95 100 90 75 69 71 71 87 98 92 85 70 77 84 83 79 75 70 60 55 54 54 58
10 8 8 7 5 7 11 17 28 47 66 63 56 78 87 96 96 98 100 100 100 100 100 96 81 69 66 68 67 68 70 68 70 68 66 64 61 61 62 73 83 84 82 83
11 9 8 7 5 6 6 9 18 29 37 45 57 54 59 81 80 85 80 76 91 100 100 99 84 73 81 91 88 88 83 75 67 62 58 58 58 62 65 63 68 80 88 92
12 11 8 8 7 6 6 5 7 16 26 30 38 50 66 81 90 81 69 69 66 74 83 96 97 92 92 91 90 81 69 64 62 61 62 61 62 64 68 70 74 79 79 76

GFSCGP_500_rhum_105.txt.gz
RH
23 32 35 43 75 83 92 98 96 93 97 99 77 75 61 64 68 61 81 90 92 95 95 96 95 95 92 92 96 96 97 96 96 96 96 96 82 84 82 65 58 67 74 50
18 23 26 42 55 62 71 59 78 91 97 99 93 82 87 62 65 72 67 68 75 84 95 96 97 97 96 97 96 93 96 96 97 97 94 97 94 91 88 72 66 77 78 56
14 17 22 29 42 48 39 38 46 64 96 97 93 75 66 77 68 68 77 74 77 69 68 79 93 94 97 97 96 95 96 96 95 97 96 96 96 96 91 83 86 93 84 68
9 13 14 11 14 17 20 28 31 54 90 94 99 98 76 74 86 80 76 73 77 75 66 65 75 80 83 82 93 97 96 97 95 96 96 97 97 97 96 99 97 96 96 96
6 9 8 14 13 14 20 17 17 20 46 96 96 95 95 81 64 67 79 91 94 75 74 79 72 68 66 64 90 85 89 92 93 91 90 94 95 94 96 97 97 98 96 96
6 6 8 18 19 17 20 25 26 23 18 76 75 85 96 94 84 100 100 93 93 95 96 88 94 81 81 74 75 77 71 84 92 87 96 96 97 93 94 96 95 96 91 77
7 7 8 9 18 24 24 24 21 22 20 22 33 42 69 98 92 94 92 94 91 87 84 88 87 84 97 93 85 74 64 59 58 86 89 84 75 80 91 80 91 87 95 70
6 6 7 8 10 14 19 31 40 25 25 24 24 31 36 49 58 66 100 100 93 99 83 91 87 93 100 88 85 87 78 71 68 66 63 65 64 62 61 59 60 67 73 66
4 4 6 10 9 17 37 80 98 84 46 29 26 22 33 41 48 43 78 91 98 95 98 96 94 100 99 98 86 84 82 80 86 87 78 66 61 54 54 55 51 49 62 66
4 4 5 11 15 30 91 97 100 99 100 78 37 29 29 40 36 35 40 45 93 99 96 89 96 92 85 96 100 89 87 87 94 87 78 72 53 50 53 53 45 43 45 46
4 4 5 9 17 22 50 88 100 100 100 99 86 51 39 34 36 58 46 52 59 78 96 100 96 96 93 90 84 78 90 83 89 82 78 77 64 48 42 42 45 51 45 27
4 5 5 6 12 26 98 99 100 98 97 100 94 82 83 82 52 63 71 64 93 81 71 86 90 92 100 100 100 88 86 88 82 86 77 61 51 45 44 43 41 39 36 34
5 5 6 6 10 40 72 100 94 100 100 70 85 78 76 80 93 84 99 86 84 85 94 76 88 93 93 94 99 100 100 96 76 56 49 42 35 28 29 32 29 26 24 23
6 6 7 6 6 13 53 88 100 79 100 100 90 79 88 83 80 80 81 72 94 100 100 96 90 92 98 92 76 71 78 72 67 56 48 41 33 29 27 28 26 25 26 24
6 7 7 6 6 10 43 65 76 89 87 93 100 80 71 95 93 90 80 78 74 70 71 91 95 90 80 93 81 66 59 54 53 49 50 43 33 27 27 30 32 31 28 26
7 7 8 8 6 8 49 59 66 69 73 95 92 99 100 100 88 86 80 85 100 98 80 68 66 77 76 78 73 64 56 52 47 42 39 36 34 31 33 34 34 34 31 28
8 8 9 9 7 10 45 53 73 73 70 64 70 62 95 98 90 74 84 80 73 81 99 100 93 87 90 95 91 87 79 60 53 49 48 44 41 37 35 35 34 32 30 29
9 9 10 10 8 10 12 48 74 88 80 69 76 72 65 76 85 77 76 68 63 68 76 82 91 100 100 100 96 81 65 56 60 63 53 39 32 31 31 26 30 35 34 30
10 10 10 10 9 9 8 20 63 72 84 87 96 100 86 80 72 94 97 89 72 65 75 70 78 96 100 98 94 96 91 70 49 47 47 37 32 28 22 18 24 34 33 28
10 10 11 10 9 9 6 12 17 38 95 99 83 84 84 92 100 98 100 100 87 81 83 83 92 90 94 87 77 77 76 74 68 52 42 35 34 33 28 22 20 21 22 27
10 11 11 10 10 10 6 9 18 38 63 100 100 94 74 74 78 87 96 99 100 96 95 90 88 94 92 90 84 82 72 72 63 50 46 45 56 55 50 47 46 44 54 59
12 12 11 9 11 8 7 6 13 26 58 88 98 98 100 97 93 88 100 92 98 100 100 100 91 95 96 96 89 90 83 74 66 58 63 77 84 76 67 63 59 57 64 67
13 12 12 10 10 9 6 6 12 22 31 41 56 72 87 96 100 100 100 100 100 99 100 100 100 100 97 82 76 81 79 78 89 92 91 92 93 93 95 84 77 81 78 77
18 15 12 10 10 10 7 6 7 12 19 36 40 42 56 71 91 91 100 100 100 100 97 96 90 86 81 76 73 66 65 68 69 94 98 97 95 89 89 90 87 85 83 79
21 17 14 12 10 9 10 8 9 10 8 14 23 30 38 48 56 69 85 94 100 96 95 96 91 93 98 90 80 72 69 66 65 68 78 86 87 81 74 69 66 66 63 67
24 22 18 13 10 9 11 11 11 11 12 8 7 12 23 38 53 57 62 81 82 77 70 68 82 77 81 92 93 81 82 85 81 81 79 74 69 67 64 64 64 68 70 74

GFSCGP_500_rhum_108.txt.gz
RH
27 30 38 50 61 65 83 97 95 91 97 95 95 61 66 55 61 63 76 89 96 94 96 95 97 96 96 97 96 97 95 94 97 100 91 83 80 76 84 91 93 90 78 70
24 24 33 45 58 58 76 73 72 68 79 92 89 66 47 54 66 78 75 88 96 97 96 98 96 94 96 96 97 96 97 96 96 96 97 92 88 88 90 92 90 78 74 66
15 23 24 28 37 46 49 56 56 52 53 87 89 78 68 59 76 63 68 76 90 93 96 92 96 96 97 96 97 95 97 95 96 92 92 98 96 98 93 96 84 78 73 57
6 11 17 22 20 24 34 47 45 35 29 75 98 87 78 76 72 71 70 66 76 95 94 97 97 96 96 96 97 97 96 96 96 95 96 97 96 96 95 96 94 92 81 86
4 4 7 10 14 18 20 21 26 24 20 63 89 96 88 97 86 81 65 60 62 78 93 91 96 96 88 93 93 96 97 97 96 96 96 97 96 97 97 96 97 96 95 97
4 4 4 4 7 12 18 21 20 18 21 28 52 66 88 90 100 100 98 91 87 72 67 79 91 93 88 94 96 96 95 96 96 96 97 97 97 97 96 97 96 97 96 96
4 5 5 6 6 8 12 19 27 24 19 21 26 46 69 100 99 97 97 97 95 94 85 77 80 77 78 91 89 89 86 83 91 100 87 94 95 97 96 96 96 96 95 96
4 5 5 7 7 10 39 31 72 55 27 19 19 36 71 83 83 93 82 84 94 94 91 94 84 88 82 73 72 70 75 70 74 79 68 70 82 96 94 95 95 96 96 92
5 6 5 6 8 10 64 66 88 88 58 32 22 18 49 68 44 65 96 80 76 84 86 86 85 70 74 80 81 81 76 73 68 64 57 52 71 81 81 78 87 87 81 79
6 6 6 6 8 14 71 85 100 99 91 92 42 24 30 66 50 48 74 92 79 57 100 78 73 99 94 94 85 92 83 79 78 70 61 57 58 67 71 67 60 54 50 50
6 7 6 6 8 18 30 91 100 100 90 93 80 56 45 33 31 35 46 58 62 50 57 77 94 87 100 100 100 99 95 97 92 91 86 75 82 84 82 75 67 56 48 45
7 8 7 7 8 14 41 81 94 97 100 100 86 94 92 68 50 38 42 51 73 98 70 50 60 93 95 97 98 99 100 94 94 91 84 72 78 86 76 69 64 61 51 44
7 8 8 8 8 9 31 79 98 87 86 88 100 93 100 100 89 65 68 64 75 99 100 99 64 52 56 73 89 86 83 80 82 79 82 82 78 72 70 70 63 52 43 42
8 9 8 9 8 7 17 47 77 96 100 100 89 96 85 95 98 100 90 85 85 77 70 100 100 98 78 68 73 69 79 90 87 89 88 88 82 75 72 60 45 34 31 28
9 9 9 9 10 8 10 25 59 69 87 87 91 99 76 96 98 91 100 87 94 100 100 100 100 100 100 100 99 96 78 82 93 95 94 91 84 65 56 47 43 38 32 27
10 10 10 9 10 10 10 34 36 51 55 71 74 93 100 82 88 100 96 94 74 71 81 93 100 100 100 100 100 100 100 94 90 80 71 70 57 55 53 50 48 39 36 30
10 11 11 10 10 10 11 20 54 51 51 60 64 72 84 94 100 100 100 93 88 76 69 70 74 78 81 99 100 98 97 97 92 86 83 71 59 54 47 43 40 37 36 34
12 12 12 12 11 11 11 10 21 48 62 64 62 64 60 54 90 100 97 91 93 85 75 78 84 92 94 99 100 100 100 100 99 91 83 72 60 55 53 48 45 42 39 36
13 13 13 14 12 12 11 9 12 19 55 81 82 90 76 93 82 81 86 92 90 84 84 88 86 98 100 100 98 96 98 95 93 89 77 75 67 66 57 54 40 30 28 28
13 14 14 14 14 13 11 11 11 12 21 46 80 92 96 100 100 99 84 80 74 62 56 73 80 88 93 91 96 100 99 93 88 88 86 66 54 49 46 40 34 31 24 22
14 15 15 14 15 12 14 14 12 10 14 21 57 77 82 95 98 100 98 99 92 87 93 90 80 72 82 84 97 98 96 93 80 74 80 86 79 75 69 60 61 58 45 37
16 16 15 14 16 14 17 14 15 12 12 26 29 39 78 86 86 89 77 74 85 88 100 100 94 84 76 88 89 99 99 96 94 80 66 61 68 71 77 74 58 65 61 60
18 18 17 16 16 17 16 15 15 15 13 10 13 20 32 48 74 99 100 82 85 100 94 97 100 100 100 100 95 95 90 88 86 81 78 85 94 99 94 88 79 75 71 66
22 21 21 18 17 18 14 14 14 16 16 13 10 9 15 34 43 55 89 100 100 100 100 98 87 86 96 100 100 100 100 97 74 72 78 87 99 97 93 91 96 99 100 100
23 23 25 23 20 18 17 13 12 14 17 18 14 10 7 12 30 42 55 76 93 100 100 99 100 97 93 87 85 82 87 94 71 66 66 71 75 92 97 96 97 95 95 94
24 25 27 26 25 25 19 14 14 14 14 18 20 16 11 6 10 30 39 50 68 81 86 85 84 84 86 84 80 76 79 84 77 72 70 69 72 79 82 88 91 91 84 77

GFSCGP_500_rhum_111.txt.gz
RH
29 33 48 31 30 38 66 74 92 90 89 83 78 90 88 83 63 69 93 96 74 89 94 72 80 94 96 95 97 92 96 94 94 89 89 83 67 40 34 30 30 28 33 54
22 26 33 42 54 59 63 66 67 64 54 65 69 72 82 100 86 84 76 82 76 100 93 94 90 91 97 91 96 92 95 95 97 96 93 76 43 33 39 42 44 54 55 51
9 17 26 32 37 38 48 50 51 58 59 53 58 59 80 89 78 68 65 62 78 89 88 96 93 96 92 87 94 95 96 95 95 92 92 85 55 74 72 54 90 85 77 69
6 7 8 15 26 28 30 32 38 43 54 51 47 54 55 86 85 82 70 66 76 98 98 98 96 96 96 96 96 98 96 96 96 95 95 93 96 92 68 81 94 87 86 89
4 4 4 5 7 13 20 23 27 27 30 42 46 51 62 71 81 67 69 69 77 81 89 95 96 97 96 96 97 97 96 96 95 97 97 96 92 89 91 93 92 98 98 96
5 6 6 6 6 7 10 16 24 23 23 26 30 40 82 95 95 90 90 88 84 81 94 94 96 95 95 95 96 96 96 97 96 97 94 94 95 95 90 97 97 94 94 96
6 6 6 6 6 7 18 22 64 35 23 26 24 36 74 70 91 93 82 70 77 86 96 84 79 90 93 97 95 93 91 97 97 97 97 96 97 96 94 94 96 96 96 97
7 6 6 7 8 8 77 97 91 99 98 55 25 30 69 68 67 71 93 89 75 74 87 90 84 90 95 95 97 93 91 95 96 96 96 97 97 95 97 97 96 96 97 94
7 7 7 7 8 11 45 69 90 100 100 98 51 26 36 43 65 82 98 92 71 79 80 98 97 89 90 86 75 78 91 92 96 90 90 91 96 96 96 96 92 95 94 95
8 7 7 7 8 15 24 100 97 99 100 100 89 47 79 25 43 56 63 83 97 96 96 92 98 87 80 85 80 76 78 86 82 90 84 94 93 95 89 95 92 86 84 91
8 8 7 8 7 8 35 74 90 100 90 100 100 92 49 29 32 60 67 52 77 99 96 92 87 78 80 77 83 72 83 78 74 79 85 79 78 77 66 77 94 94 90 74
8 8 9 8 7 6 17 35 74 100 100 94 100 100 86 59 40 48 84 67 59 75 93 77 74 90 77 67 74 93 87 84 81 79 74 75 78 77 74 78 88 95 86 74
9 9 9 8 8 8 9 30 59 86 96 100 97 100 100 91 78 78 67 76 67 63 78 82 71 76 86 94 100 91 100 88 89 96 91 96 88 87 82 70 62 83 80 74
10 10 10 10 10 8 9 18 46 61 77 90 93 100 91 100 100 99 100 100 79 63 70 94 84 58 61 73 71 84 95 97 98 98 98 98 100 96 88 86 81 85 82 74
11 12 11 10 10 10 9 14 34 52 52 68 85 80 86 88 97 98 96 91 99 100 94 94 100 94 82 73 82 78 68 70 89 88 78 84 90 93 94 98 95 92 82 74
12 12 13 11 11 11 10 10 22 50 61 62 76 79 69 98 81 99 100 90 97 93 100 100 95 94 100 100 100 100 100 82 80 74 74 78 81 89 96 97 96 84 66 58
13 13 14 12 12 13 12 11 12 18 26 40 54 56 55 66 75 85 85 94 100 98 96 89 98 100 100 100 100 99 99 100 99 93 88 81 84 82 79 83 86 70 62 57
14 14 14 14 13 14 15 12 12 11 12 32 36 40 53 56 53 65 69 80 91 100 100 92 89 96 100 100 98 100 100 100 100 100 100 100 100 97 91 82 73 65 57 53
14 14 14 15 13 15 18 15 14 13 12 8 17 52 59 69 74 58 48 87 98 94 95 100 100 99 94 97 100 100 100 98 98 96 95 94 96 92 90 86 79 69 63 58
15 15 14 15 14 14 18 18 18 16 14 12 11 18 53 81 80 84 86 73 83 99 100 100 100 95 91 100 99 99 100 100 100 88 79 82 86 87 88 89 87 78 70 61
16 16 16 15 16 14 19 18 17 18 16 13 12 17 25 71 78 82 95 100 97 78 70 75 83 73 58 66 79 91 91 95 95 91 89 88 89 88 82 86 84 64 62 66
17 18 18 17 17 15 20 16 18 20 21 19 13 12 12 19 42 71 76 82 93 99 100 87 86 78 55 63 74 76 74 74 82 94 99 93 90 84 87 93 99 100 94 89
19 19 19 19 18 19 20 20 18 18 20 25 16 13 10 8 15 28 56 74 72 64 60 55 84 83 92 88 89 79 70 67 74 82 99 96 87 85 84 91 98 92 93 91
20 21 21 21 21 20 21 22 23 24 19 21 26 16 12 9 7 10 23 45 68 77 66 62 62 68 84 98 100 100 100 100 96 94 97 95 85 88 90 88 88 93 100 98
20 20 20 23 22 20 21 24 27 29 24 20 27 27 17 13 11 7 11 28 40 63 75 74 84 89 94 92 95 94 98 97 98 100 100 100 98 84 82 86 91 98 98 100
19 20 21 21 20 20 21 23 28 30 30 30 26 30 26 19 14 10 8 21 32 42 62 72 84 93 94 93 92 95 92 84 82 87 100 100 95 83 77 80 81 99 100 100

GFSCGP_500_rhum_114.txt.gz
RH
25 35 38 33 30 37 54 60 66 79 60 65 64 76 91 95 69 81 85 70 84 76 98 94 95 95 72 52 83 89 96 96 98 95 90 91 87 85 77 62 45 38 38 38
14 23 29 39 46 50 53 62 64 65 59 55 54 58 72 87 74 47 56 59 73 73 96 100 72 70 52 46 93 97 96 96 97 98 98 98 98 91 75 65 55 48 47 40
7 7 10 17 26 33 43 47 54 52 49 56 56 47 63 76 72 65 67 80 91 95 98 97 98 60 41 66 93 92 95 96 96 97 96 93 96 94 87 73 59 43 39 36
5 5 5 6 8 11 24 29 37 37 37 44 53 40 48 68 85 99 88 79 76 98 97 91 89 97 54 55 88 92 97 96 97 97 96 98 97 92 78 67 43 52 47 52
6 6 6 6 6 7 9 13 27 35 30 31 38 43 73 58 67 76 66 77 90 79 91 95 78 99 93 83 94 94 95 96 96 97 98 97 96 96 93 92 73 51 46 54
7 7 7 7 8 8 8 12 13 25 40 31 31 39 90 81 89 74 74 75 77 95 98 89 85 92 97 97 96 96 98 96 97 96 96 96 96 98 97 92 86 93 70 96
7 7 7 8 9 10 13 36 66 85 72 40 34 36 100 81 99 83 82 82 90 88 95 96 95 97 95 96 96 96 97 95 97 96 97 96 95 96 96 96 95 94 96 98
7 7 7 6 8 16 25 86 100 100 99 93 44 66 66 73 83 97 96 95 68 76 93 98 96 96 97 95 94 95 95 96 95 96 97 97 97 96 97 96 95 97 94 95
8 8 7 7 8 17 43 91 100 100 100 100 100 63 44 48 71 91 98 93 89 98 93 100 96 94 96 95 96 96 95 94 97 93 93 96 96 95 94 96 98 97 98 93
9 9 8 7 7 15 40 96 100 100 93 93 100 93 52 45 50 71 83 89 89 84 92 93 100 95 94 88 95 96 96 87 93 93 96 95 97 97 94 96 95 99 98 97
10 9 9 8 7 10 29 95 96 92 97 100 100 82 57 65 49 38 58 78 100 95 98 87 100 90 94 95 92 86 91 95 96 97 97 94 96 93 73 95 96 96 97 96
10 10 10 9 8 7 18 34 65 95 86 100 100 95 86 67 49 63 47 55 67 92 97 91 85 86 95 88 98 95 93 92 89 88 89 93 89 75 74 86 78 79 76 86
11 11 10 10 10 8 8 21 47 89 82 85 98 100 76 74 65 49 55 48 63 60 86 98 92 84 88 98 86 76 78 76 82 80 94 96 95 88 81 80 85 94 94 96
11 12 11 12 12 11 8 10 37 64 72 85 86 100 100 100 100 78 62 76 68 69 71 74 94 94 85 100 95 82 82 82 87 99 99 94 89 91 89 95 96 98 96 94
11 13 11 13 13 13 12 9 16 26 49 69 73 90 82 76 87 100 99 91 100 81 72 69 68 77 89 74 78 95 87 94 99 99 95 99 98 98 100 99 96 95 91 90
11 12 12 12 12 14 14 13 10 16 27 32 48 58 60 58 58 48 71 89 96 98 100 74 70 82 88 91 86 81 86 81 84 89 94 99 99 96 95 95 96 93 95 96
12 13 12 11 12 13 15 15 14 10 9 14 42 50 60 65 61 56 59 61 68 81 92 94 97 87 92 99 96 85 87 84 78 85 94 95 93 95 96 91 90 88 91 97
12 12 12 12 12 14 16 17 17 15 12 10 10 17 32 43 42 50 44 50 65 77 87 98 99 97 100 100 93 90 100 93 88 91 88 89 91 95 91 82 85 83 84 90
13 12 13 14 12 14 16 16 17 18 15 13 11 9 9 18 45 51 59 52 48 59 71 84 99 100 99 99 100 100 97 95 95 97 98 99 96 97 92 92 85 88 93 90
14 12 13 13 13 14 15 15 16 18 18 14 13 11 10 10 13 48 66 66 60 53 57 77 74 79 94 100 95 88 88 91 91 88 94 99 98 100 95 92 93 96 96 98
14 15 14 13 15 13 15 17 16 18 21 17 13 11 11 10 11 16 46 68 70 70 66 78 98 93 85 85 88 93 90 85 83 84 88 92 88 88 82 78 78 83 87 90
15 14 14 14 15 14 15 18 19 20 22 23 17 14 11 10 8 8 15 36 64 73 82 72 69 66 80 80 80 73 68 58 57 69 75 78 85 79 82 87 96 99 95 96
16 15 14 14 15 14 15 16 18 20 22 23 20 17 14 11 10 8 7 9 16 43 64 67 77 72 72 72 63 63 49 38 46 54 65 70 66 64 83 88 91 94 90 86
15 16 14 13 14 14 14 16 17 18 21 19 21 23 18 15 12 11 9 8 12 18 30 58 54 51 51 58 74 86 85 96 91 92 88 80 72 70 77 90 100 98 94 92
15 16 16 15 14 14 14 15 17 18 19 21 22 22 24 21 17 14 12 11 9 14 19 32 48 55 54 53 62 69 74 86 98 98 100 100 100 96 90 95 99 98 100 100
18 16 17 18 15 14 14 15 17 19 21 22 22 23 25 26 24 20 16 14 12 9 12 22 34 47 57 64 74 79 84 90 90 88 84 94 96 92 93 100 100 100 100 100

GFSCGP_500_rhum_117.txt.gz
RH
16 24 36 44 44 45 40 50 60 70 61 56 56 73 96 84 68 63 85 77 97 94 88 98 96 97 97 98 90 84 93 86 70 94 97 94 78 74 86 90 83 74 62 53
7 8 11 20 31 40 34 43 57 58 65 57 55 60 75 74 74 78 56 57 84 79 95 89 97 97 96 91 84 74 88 95 81 96 96 96 95 96 100 100 93 81 67 54
6 6 6 7 8 9 27 44 52 48 54 48 53 87 75 77 72 66 51 76 91 82 95 98 98 92 95 90 86 87 74 95 95 96 96 96 96 95 93 91 96 82 65 53
6 7 7 7 8 8 11 12 22 32 37 42 39 58 59 83 91 72 61 74 89 94 96 95 91 84 87 86 77 80 86 92 96 94 97 97 97 96 96 99 98 88 71 57
7 7 7 8 9 10 12 11 11 19 30 35 36 99 100 100 100 99 100 82 90 79 96 98 96 97 88 96 94 78 63 63 75 96 96 96 97 97 96 96 94 87 72 66
8 7 7 8 11 11 14 17 15 14 20 36 39 100 98 93 99 96 91 87 98 97 86 94 91 96 86 98 98 99 71 59 93 97 96 96 96 96 99 97 98 97 96 90
8 8 7 9 14 20 23 36 43 56 30 52 33 76 92 69 100 100 100 100 88 98 97 92 98 92 90 96 97 98 94 91 93 95 96 96 97 96 97 98 98 96 82 91
8 8 8 8 17 50 68 93 100 100 91 77 51 45 100 65 95 100 98 97 99 85 96 96 97 98 98 96 94 95 98 92 94 94 96 96 96 96 96 96 97 98 96 94
9 9 8 8 18 47 78 100 100 100 100 92 98 63 73 49 81 98 98 95 85 80 82 96 98 98 97 98 97 97 98 94 97 96 96 96 98 95 95 97 95 95 95 91
10 10 9 8 14 38 59 92 90 99 99 100 88 86 62 44 68 93 100 97 93 85 84 84 81 95 97 97 98 96 95 97 96 95 96 97 98 96 96 94 94 97 96 97
10 10 10 8 7 19 62 66 73 71 67 100 84 62 57 43 44 64 90 97 98 97 98 87 81 81 92 96 94 95 97 98 96 96 96 96 96 95 98 96 97 97 97 93
10 11 11 9 8 8 25 53 57 67 100 96 73 73 77 61 39 44 57 73 95 91 99 94 91 88 100 96 97 87 95 98 97 97 97 92 94 97 95 97 98 96 96 95
9 9 12 11 9 8 16 44 44 65 78 81 92 61 53 52 49 33 42 47 56 63 85 99 98 98 92 90 97 98 92 93 95 93 96 96 97 98 97 99 98 99 97 90
8 9 11 13 12 10 8 14 32 36 53 63 80 74 64 61 56 53 38 34 44 48 44 72 94 100 99 100 95 87 89 84 87 88 92 98 94 97 97 97 96 96 95 96
9 8 9 11 13 12 11 9 9 21 38 44 46 74 96 78 67 58 68 58 43 37 60 62 69 88 92 89 95 97 97 97 92 86 90 94 97 95 94 96 96 95 97 92
8 8 9 11 11 12 13 12 11 10 11 12 17 42 59 64 63 55 46 50 71 80 55 67 77 76 70 88 95 92 95 100 97 87 97 92 98 97 98 96 94 97 99 98
9 8 9 10 11 11 13 14 12 11 11 10 9 8 12 32 49 61 59 56 53 59 80 81 67 78 83 75 83 85 93 84 88 86 85 97 96 97 98 99 98 98 99 97
9 8 8 10 12 11 12 13 13 12 11 10 9 9 8 8 12 29 40 45 43 44 52 56 69 77 84 90 87 83 93 96 96 91 93 88 85 95 98 98 99 99 98 99
9 8 8 9 11 13 12 12 13 11 12 12 11 11 9 8 8 7 14 32 39 40 43 45 50 55 65 75 88 88 81 92 100 96 96 100 96 99 100 97 96 97 97 97
10 8 8 8 10 12 13 13 14 13 13 13 13 13 12 10 9 7 8 10 23 36 37 43 51 46 55 65 67 68 73 80 87 85 89 93 87 89 94 98 99 98 100 100
10 10 8 8 9 10 11 13 14 14 15 16 15 15 15 13 12 10 8 7 8 12 28 38 39 42 47 54 58 64 66 64 68 70 76 80 84 85 90 93 94 90 90 96
11 10 9 9 9 10 11 13 15 16 17 17 17 17 17 17 15 14 12 11 8 7 9 20 30 32 35 51 57 56 55 55 56 59 64 65 68 72 70 72 81 82 80 80
13 12 11 9 9 9 10 12 14 16 18 19 20 20 20 20 19 17 16 16 12 10 8 8 16 36 44 48 47 43 49 52 57 64 50 42 53 61 60 71 78 79 82 89
13 14 14 12 10 10 11 11 12 14 17 19 20 22 21 22 22 21 20 19 17 16 14 11 9 11 24 38 44 56 56 52 54 52 46 43 34 35 43 57 69 72 72 77
15 15 14 15 15 12 11 11 12 14 15 15 19 20 23 23 22 22 23 23 21 19 18 16 13 10 12 16 27 36 39 42 48 66 80 78 83 81 76 75 72 70 72 74
16 17 17 15 18 16 13 13 13 14 16 15 16 19 22 24 25 25 26 26 25 22 22 18 13 10 10 12 22 34 45 50 63 69 70 75 78 82 90 88 89 89 96 95